<?xml version="1.0" encoding="UTF-8" standalone="no" ?>
<gpx xmlns="http://www.topografix.com/GPX/1/1" xmlns:xsi="http://www.w3.org/2001/XMLSchema-instance" xsi:schemaLocation="http://www.topografix.com/GPX/1/1 http://www.topografix.com/GPX/1/1/gpx.xsd" version="1.1" creator="VisuGPX - https://www.visugpx.com">
  <metadata>
    <name>Le mont Cindre en mode single et sanglier</name>
    <desc><![CDATA[Les singles du mont Cindre, en mode sanglier et glissades]]></desc>
  </metadata>
  <trk>
    <name><![CDATA[2011-12-22T09:11:38Z]]></name>
    <trkseg>
      <trkpt lat="45.80401" lon="4.83134">
        <ele>238</ele>
        <time>2011-12-22T09:11:38Z</time>
      </trkpt>
      <trkpt lat="45.80399" lon="4.83124">
        <ele>238</ele>
        <time>2011-12-22T09:11:41Z</time>
      </trkpt>
      <trkpt lat="45.80402" lon="4.83107">
        <ele>238</ele>
        <time>2011-12-22T09:11:46Z</time>
      </trkpt>
      <trkpt lat="45.80409" lon="4.83082">
        <ele>240</ele>
        <time>2011-12-22T09:11:53Z</time>
      </trkpt>
      <trkpt lat="45.80414" lon="4.83063">
        <ele>240</ele>
        <time>2011-12-22T09:11:59Z</time>
      </trkpt>
      <trkpt lat="45.80416" lon="4.83057">
        <ele>240</ele>
        <time>2011-12-22T09:12:01Z</time>
      </trkpt>
      <trkpt lat="45.80423" lon="4.83042">
        <ele>242</ele>
        <time>2011-12-22T09:12:06Z</time>
      </trkpt>
      <trkpt lat="45.80427" lon="4.83034">
        <ele>242</ele>
        <time>2011-12-22T09:12:09Z</time>
      </trkpt>
      <trkpt lat="45.80429" lon="4.83027">
        <ele>242</ele>
        <time>2011-12-22T09:12:11Z</time>
      </trkpt>
      <trkpt lat="45.80434" lon="4.83009">
        <ele>242</ele>
        <time>2011-12-22T09:12:16Z</time>
      </trkpt>
      <trkpt lat="45.80436" lon="4.83007">
        <ele>242</ele>
        <time>2011-12-22T09:12:17Z</time>
      </trkpt>
      <trkpt lat="45.80439" lon="4.82994">
        <ele>241</ele>
        <time>2011-12-22T09:12:21Z</time>
      </trkpt>
      <trkpt lat="45.80441" lon="4.82984">
        <ele>241</ele>
        <time>2011-12-22T09:12:24Z</time>
      </trkpt>
      <trkpt lat="45.80443" lon="4.82974">
        <ele>241</ele>
        <time>2011-12-22T09:12:27Z</time>
      </trkpt>
      <trkpt lat="45.8045" lon="4.8296">
        <ele>241</ele>
        <time>2011-12-22T09:12:32Z</time>
      </trkpt>
      <trkpt lat="45.80456" lon="4.82954">
        <ele>240</ele>
        <time>2011-12-22T09:12:35Z</time>
      </trkpt>
      <trkpt lat="45.8046" lon="4.82953">
        <ele>240</ele>
        <time>2011-12-22T09:12:37Z</time>
      </trkpt>
      <trkpt lat="45.80468" lon="4.82953">
        <ele>240</ele>
        <time>2011-12-22T09:12:40Z</time>
      </trkpt>
      <trkpt lat="45.80473" lon="4.82952">
        <ele>240</ele>
        <time>2011-12-22T09:12:42Z</time>
      </trkpt>
      <trkpt lat="45.80475" lon="4.82951">
        <ele>240</ele>
        <time>2011-12-22T09:12:43Z</time>
      </trkpt>
      <trkpt lat="45.80486" lon="4.82949">
        <ele>240</ele>
        <time>2011-12-22T09:12:47Z</time>
      </trkpt>
      <trkpt lat="45.80488" lon="4.82948">
        <ele>240</ele>
        <time>2011-12-22T09:12:48Z</time>
      </trkpt>
      <trkpt lat="45.80499" lon="4.82948">
        <ele>240</ele>
        <time>2011-12-22T09:12:52Z</time>
      </trkpt>
      <trkpt lat="45.80508" lon="4.82949">
        <ele>240</ele>
        <time>2011-12-22T09:12:55Z</time>
      </trkpt>
      <trkpt lat="45.80516" lon="4.82949">
        <ele>240</ele>
        <time>2011-12-22T09:12:58Z</time>
      </trkpt>
      <trkpt lat="45.80528" lon="4.82946">
        <ele>240</ele>
        <time>2011-12-22T09:13:03Z</time>
      </trkpt>
      <trkpt lat="45.80541" lon="4.82946">
        <ele>240</ele>
        <time>2011-12-22T09:13:08Z</time>
      </trkpt>
      <trkpt lat="45.80546" lon="4.82946">
        <ele>240</ele>
        <time>2011-12-22T09:13:10Z</time>
      </trkpt>
      <trkpt lat="45.80554" lon="4.82946">
        <ele>240</ele>
        <time>2011-12-22T09:13:13Z</time>
      </trkpt>
      <trkpt lat="45.80566" lon="4.82942">
        <ele>240</ele>
        <time>2011-12-22T09:13:18Z</time>
      </trkpt>
      <trkpt lat="45.80568" lon="4.82941">
        <ele>240</ele>
        <time>2011-12-22T09:13:19Z</time>
      </trkpt>
      <trkpt lat="45.80581" lon="4.82938">
        <ele>240</ele>
        <time>2011-12-22T09:13:24Z</time>
      </trkpt>
      <trkpt lat="45.80584" lon="4.82937">
        <ele>241</ele>
        <time>2011-12-22T09:13:25Z</time>
      </trkpt>
      <trkpt lat="45.80596" lon="4.82931">
        <ele>240</ele>
        <time>2011-12-22T09:13:30Z</time>
      </trkpt>
      <trkpt lat="45.80603" lon="4.82928">
        <ele>241</ele>
        <time>2011-12-22T09:13:33Z</time>
      </trkpt>
      <trkpt lat="45.80608" lon="4.82926">
        <ele>241</ele>
        <time>2011-12-22T09:13:35Z</time>
      </trkpt>
      <trkpt lat="45.8062" lon="4.8292">
        <ele>241</ele>
        <time>2011-12-22T09:13:40Z</time>
      </trkpt>
      <trkpt lat="45.80622" lon="4.82919">
        <ele>241</ele>
        <time>2011-12-22T09:13:41Z</time>
      </trkpt>
      <trkpt lat="45.80632" lon="4.82915">
        <ele>238</ele>
        <time>2011-12-22T09:13:45Z</time>
      </trkpt>
      <trkpt lat="45.80642" lon="4.82912">
        <ele>239</ele>
        <time>2011-12-22T09:13:49Z</time>
      </trkpt>
      <trkpt lat="45.80647" lon="4.8291">
        <ele>239</ele>
        <time>2011-12-22T09:13:51Z</time>
      </trkpt>
      <trkpt lat="45.8066" lon="4.82905">
        <ele>240</ele>
        <time>2011-12-22T09:13:56Z</time>
      </trkpt>
      <trkpt lat="45.80676" lon="4.829">
        <ele>241</ele>
        <time>2011-12-22T09:14:02Z</time>
      </trkpt>
      <trkpt lat="45.80678" lon="4.829">
        <ele>241</ele>
        <time>2011-12-22T09:14:03Z</time>
      </trkpt>
      <trkpt lat="45.80692" lon="4.82901">
        <ele>241</ele>
        <time>2011-12-22T09:14:09Z</time>
      </trkpt>
      <trkpt lat="45.80697" lon="4.82902">
        <ele>241</ele>
        <time>2011-12-22T09:14:11Z</time>
      </trkpt>
      <trkpt lat="45.80706" lon="4.82905">
        <ele>241</ele>
        <time>2011-12-22T09:14:15Z</time>
      </trkpt>
      <trkpt lat="45.80715" lon="4.82909">
        <ele>241</ele>
        <time>2011-12-22T09:14:19Z</time>
      </trkpt>
      <trkpt lat="45.80718" lon="4.8291">
        <ele>241</ele>
        <time>2011-12-22T09:14:20Z</time>
      </trkpt>
      <trkpt lat="45.80729" lon="4.82915">
        <ele>241</ele>
        <time>2011-12-22T09:14:25Z</time>
      </trkpt>
      <trkpt lat="45.80733" lon="4.82916">
        <ele>241</ele>
        <time>2011-12-22T09:14:27Z</time>
      </trkpt>
      <trkpt lat="45.80746" lon="4.8292">
        <ele>242</ele>
        <time>2011-12-22T09:14:32Z</time>
      </trkpt>
      <trkpt lat="45.80751" lon="4.82921">
        <ele>242</ele>
        <time>2011-12-22T09:14:34Z</time>
      </trkpt>
      <trkpt lat="45.80768" lon="4.82927">
        <ele>243</ele>
        <time>2011-12-22T09:14:40Z</time>
      </trkpt>
      <trkpt lat="45.8077" lon="4.8293">
        <ele>243</ele>
        <time>2011-12-22T09:14:41Z</time>
      </trkpt>
      <trkpt lat="45.8078" lon="4.82938">
        <ele>244</ele>
        <time>2011-12-22T09:14:45Z</time>
      </trkpt>
      <trkpt lat="45.80787" lon="4.82943">
        <ele>244</ele>
        <time>2011-12-22T09:14:48Z</time>
      </trkpt>
      <trkpt lat="45.80791" lon="4.82945">
        <ele>244</ele>
        <time>2011-12-22T09:14:50Z</time>
      </trkpt>
      <trkpt lat="45.80804" lon="4.82949">
        <ele>244</ele>
        <time>2011-12-22T09:14:56Z</time>
      </trkpt>
      <trkpt lat="45.80807" lon="4.8295">
        <ele>244</ele>
        <time>2011-12-22T09:14:57Z</time>
      </trkpt>
      <trkpt lat="45.80818" lon="4.82954">
        <ele>244</ele>
        <time>2011-12-22T09:15:02Z</time>
      </trkpt>
      <trkpt lat="45.80826" lon="4.82956">
        <ele>244</ele>
        <time>2011-12-22T09:15:05Z</time>
      </trkpt>
      <trkpt lat="45.80832" lon="4.82958">
        <ele>244</ele>
        <time>2011-12-22T09:15:08Z</time>
      </trkpt>
      <trkpt lat="45.80845" lon="4.82962">
        <ele>246</ele>
        <time>2011-12-22T09:15:13Z</time>
      </trkpt>
      <trkpt lat="45.80848" lon="4.82963">
        <ele>246</ele>
        <time>2011-12-22T09:15:14Z</time>
      </trkpt>
      <trkpt lat="45.80861" lon="4.82967">
        <ele>246</ele>
        <time>2011-12-22T09:15:19Z</time>
      </trkpt>
      <trkpt lat="45.80863" lon="4.82969">
        <ele>246</ele>
        <time>2011-12-22T09:15:20Z</time>
      </trkpt>
      <trkpt lat="45.80876" lon="4.82974">
        <ele>246</ele>
        <time>2011-12-22T09:15:26Z</time>
      </trkpt>
      <trkpt lat="45.80881" lon="4.82976">
        <ele>246</ele>
        <time>2011-12-22T09:15:28Z</time>
      </trkpt>
      <trkpt lat="45.80893" lon="4.8298">
        <ele>247</ele>
        <time>2011-12-22T09:15:33Z</time>
      </trkpt>
      <trkpt lat="45.80901" lon="4.82982">
        <ele>247</ele>
        <time>2011-12-22T09:15:36Z</time>
      </trkpt>
      <trkpt lat="45.80908" lon="4.82984">
        <ele>247</ele>
        <time>2011-12-22T09:15:39Z</time>
      </trkpt>
      <trkpt lat="45.80921" lon="4.82986">
        <ele>249</ele>
        <time>2011-12-22T09:15:44Z</time>
      </trkpt>
      <trkpt lat="45.80932" lon="4.82986">
        <ele>249</ele>
        <time>2011-12-22T09:15:49Z</time>
      </trkpt>
      <trkpt lat="45.80941" lon="4.82984">
        <ele>249</ele>
        <time>2011-12-22T09:15:52Z</time>
      </trkpt>
      <trkpt lat="45.80952" lon="4.82985">
        <ele>249</ele>
        <time>2011-12-22T09:15:56Z</time>
      </trkpt>
      <trkpt lat="45.8096" lon="4.82985">
        <ele>249</ele>
        <time>2011-12-22T09:15:59Z</time>
      </trkpt>
      <trkpt lat="45.80967" lon="4.82985">
        <ele>249</ele>
        <time>2011-12-22T09:16:02Z</time>
      </trkpt>
      <trkpt lat="45.80979" lon="4.82985">
        <ele>249</ele>
        <time>2011-12-22T09:16:07Z</time>
      </trkpt>
      <trkpt lat="45.80994" lon="4.82986">
        <ele>249</ele>
        <time>2011-12-22T09:16:13Z</time>
      </trkpt>
      <trkpt lat="45.80999" lon="4.82986">
        <ele>249</ele>
        <time>2011-12-22T09:16:15Z</time>
      </trkpt>
      <trkpt lat="45.81006" lon="4.82987">
        <ele>250</ele>
        <time>2011-12-22T09:16:18Z</time>
      </trkpt>
      <trkpt lat="45.81018" lon="4.82987">
        <ele>250</ele>
        <time>2011-12-22T09:16:23Z</time>
      </trkpt>
      <trkpt lat="45.81022" lon="4.82989">
        <ele>250</ele>
        <time>2011-12-22T09:16:25Z</time>
      </trkpt>
      <trkpt lat="45.81024" lon="4.82991">
        <ele>250</ele>
        <time>2011-12-22T09:16:26Z</time>
      </trkpt>
      <trkpt lat="45.81025" lon="4.83002">
        <ele>250</ele>
        <time>2011-12-22T09:16:29Z</time>
      </trkpt>
      <trkpt lat="45.81025" lon="4.83009">
        <ele>250</ele>
        <time>2011-12-22T09:16:31Z</time>
      </trkpt>
      <trkpt lat="45.81025" lon="4.83024">
        <ele>250</ele>
        <time>2011-12-22T09:16:35Z</time>
      </trkpt>
      <trkpt lat="45.81025" lon="4.83035">
        <ele>250</ele>
        <time>2011-12-22T09:16:38Z</time>
      </trkpt>
      <trkpt lat="45.81024" lon="4.83043">
        <ele>250</ele>
        <time>2011-12-22T09:16:40Z</time>
      </trkpt>
      <trkpt lat="45.81024" lon="4.83046">
        <ele>250</ele>
        <time>2011-12-22T09:16:41Z</time>
      </trkpt>
      <trkpt lat="45.81029" lon="4.83056">
        <ele>250</ele>
        <time>2011-12-22T09:16:44Z</time>
      </trkpt>
      <trkpt lat="45.8103" lon="4.83059">
        <ele>250</ele>
        <time>2011-12-22T09:16:45Z</time>
      </trkpt>
      <trkpt lat="45.81039" lon="4.83067">
        <ele>251</ele>
        <time>2011-12-22T09:16:49Z</time>
      </trkpt>
      <trkpt lat="45.81047" lon="4.83065">
        <ele>251</ele>
        <time>2011-12-22T09:16:52Z</time>
      </trkpt>
      <trkpt lat="45.81052" lon="4.83063">
        <ele>251</ele>
        <time>2011-12-22T09:16:54Z</time>
      </trkpt>
      <trkpt lat="45.81067" lon="4.83058">
        <ele>251</ele>
        <time>2011-12-22T09:17:00Z</time>
      </trkpt>
      <trkpt lat="45.81069" lon="4.83057">
        <ele>251</ele>
        <time>2011-12-22T09:17:01Z</time>
      </trkpt>
      <trkpt lat="45.81085" lon="4.83053">
        <ele>252</ele>
        <time>2011-12-22T09:17:07Z</time>
      </trkpt>
      <trkpt lat="45.81101" lon="4.8305">
        <ele>252</ele>
        <time>2011-12-22T09:17:13Z</time>
      </trkpt>
      <trkpt lat="45.81105" lon="4.83049">
        <ele>252</ele>
        <time>2011-12-22T09:17:15Z</time>
      </trkpt>
      <trkpt lat="45.81113" lon="4.83047">
        <ele>253</ele>
        <time>2011-12-22T09:17:18Z</time>
      </trkpt>
      <trkpt lat="45.81124" lon="4.83046">
        <ele>253</ele>
        <time>2011-12-22T09:17:22Z</time>
      </trkpt>
      <trkpt lat="45.81126" lon="4.83045">
        <ele>253</ele>
        <time>2011-12-22T09:17:23Z</time>
      </trkpt>
      <trkpt lat="45.81139" lon="4.83043">
        <ele>253</ele>
        <time>2011-12-22T09:17:28Z</time>
      </trkpt>
      <trkpt lat="45.81141" lon="4.83042">
        <ele>253</ele>
        <time>2011-12-22T09:17:29Z</time>
      </trkpt>
      <trkpt lat="45.81156" lon="4.83039">
        <ele>253</ele>
        <time>2011-12-22T09:17:35Z</time>
      </trkpt>
      <trkpt lat="45.81161" lon="4.83039">
        <ele>253</ele>
        <time>2011-12-22T09:17:37Z</time>
      </trkpt>
      <trkpt lat="45.81169" lon="4.83038">
        <ele>256</ele>
        <time>2011-12-22T09:17:40Z</time>
      </trkpt>
      <trkpt lat="45.81172" lon="4.83038">
        <ele>256</ele>
        <time>2011-12-22T09:17:41Z</time>
      </trkpt>
      <trkpt lat="45.81176" lon="4.83039">
        <ele>256</ele>
        <time>2011-12-22T09:17:43Z</time>
      </trkpt>
      <trkpt lat="45.81179" lon="4.83038">
        <ele>256</ele>
        <time>2011-12-22T09:17:44Z</time>
      </trkpt>
      <trkpt lat="45.81189" lon="4.83036">
        <ele>257</ele>
        <time>2011-12-22T09:17:48Z</time>
      </trkpt>
      <trkpt lat="45.81199" lon="4.83034">
        <ele>257</ele>
        <time>2011-12-22T09:17:52Z</time>
      </trkpt>
      <trkpt lat="45.81201" lon="4.83033">
        <ele>257</ele>
        <time>2011-12-22T09:17:53Z</time>
      </trkpt>
      <trkpt lat="45.81216" lon="4.83032">
        <ele>258</ele>
        <time>2011-12-22T09:17:59Z</time>
      </trkpt>
      <trkpt lat="45.81219" lon="4.83032">
        <ele>258</ele>
        <time>2011-12-22T09:18:00Z</time>
      </trkpt>
      <trkpt lat="45.81231" lon="4.83032">
        <ele>258</ele>
        <time>2011-12-22T09:18:04Z</time>
      </trkpt>
      <trkpt lat="45.81238" lon="4.8303">
        <ele>258</ele>
        <time>2011-12-22T09:18:07Z</time>
      </trkpt>
      <trkpt lat="45.81243" lon="4.83029">
        <ele>258</ele>
        <time>2011-12-22T09:18:09Z</time>
      </trkpt>
      <trkpt lat="45.81256" lon="4.83026">
        <ele>261</ele>
        <time>2011-12-22T09:18:14Z</time>
      </trkpt>
      <trkpt lat="45.81258" lon="4.83025">
        <ele>261</ele>
        <time>2011-12-22T09:18:15Z</time>
      </trkpt>
      <trkpt lat="45.81271" lon="4.83023">
        <ele>261</ele>
        <time>2011-12-22T09:18:20Z</time>
      </trkpt>
      <trkpt lat="45.81274" lon="4.83022">
        <ele>261</ele>
        <time>2011-12-22T09:18:21Z</time>
      </trkpt>
      <trkpt lat="45.81281" lon="4.83018">
        <ele>262</ele>
        <time>2011-12-22T09:18:24Z</time>
      </trkpt>
      <trkpt lat="45.81293" lon="4.83014">
        <ele>262</ele>
        <time>2011-12-22T09:18:29Z</time>
      </trkpt>
      <trkpt lat="45.81296" lon="4.83013">
        <ele>262</ele>
        <time>2011-12-22T09:18:30Z</time>
      </trkpt>
      <trkpt lat="45.81309" lon="4.83011">
        <ele>262</ele>
        <time>2011-12-22T09:18:35Z</time>
      </trkpt>
      <trkpt lat="45.81312" lon="4.83011">
        <ele>262</ele>
        <time>2011-12-22T09:18:36Z</time>
      </trkpt>
      <trkpt lat="45.81324" lon="4.83002">
        <ele>263</ele>
        <time>2011-12-22T09:18:42Z</time>
      </trkpt>
      <trkpt lat="45.8133" lon="4.82998">
        <ele>262</ele>
        <time>2011-12-22T09:18:45Z</time>
      </trkpt>
      <trkpt lat="45.81335" lon="4.82995">
        <ele>263</ele>
        <time>2011-12-22T09:18:47Z</time>
      </trkpt>
      <trkpt lat="45.81348" lon="4.82992">
        <ele>263</ele>
        <time>2011-12-22T09:18:52Z</time>
      </trkpt>
      <trkpt lat="45.81351" lon="4.82992">
        <ele>263</ele>
        <time>2011-12-22T09:18:53Z</time>
      </trkpt>
      <trkpt lat="45.81362" lon="4.8299">
        <ele>263</ele>
        <time>2011-12-22T09:18:57Z</time>
      </trkpt>
      <trkpt lat="45.81364" lon="4.82989">
        <ele>263</ele>
        <time>2011-12-22T09:18:58Z</time>
      </trkpt>
      <trkpt lat="45.81367" lon="4.82989">
        <ele>263</ele>
        <time>2011-12-22T09:18:59Z</time>
      </trkpt>
      <trkpt lat="45.81379" lon="4.82984">
        <ele>263</ele>
        <time>2011-12-22T09:19:04Z</time>
      </trkpt>
      <trkpt lat="45.81385" lon="4.82983">
        <ele>263</ele>
        <time>2011-12-22T09:19:06Z</time>
      </trkpt>
      <trkpt lat="45.81393" lon="4.82979">
        <ele>263</ele>
        <time>2011-12-22T09:19:10Z</time>
      </trkpt>
      <trkpt lat="45.81404" lon="4.82976">
        <ele>263</ele>
        <time>2011-12-22T09:19:14Z</time>
      </trkpt>
      <trkpt lat="45.81406" lon="4.82975">
        <ele>263</ele>
        <time>2011-12-22T09:19:15Z</time>
      </trkpt>
      <trkpt lat="45.81419" lon="4.82974">
        <ele>264</ele>
        <time>2011-12-22T09:19:20Z</time>
      </trkpt>
      <trkpt lat="45.81422" lon="4.82974">
        <ele>264</ele>
        <time>2011-12-22T09:19:21Z</time>
      </trkpt>
      <trkpt lat="45.81438" lon="4.82973">
        <ele>264</ele>
        <time>2011-12-22T09:19:27Z</time>
      </trkpt>
      <trkpt lat="45.8144" lon="4.82973">
        <ele>264</ele>
        <time>2011-12-22T09:19:28Z</time>
      </trkpt>
      <trkpt lat="45.81453" lon="4.82972">
        <ele>264</ele>
        <time>2011-12-22T09:19:33Z</time>
      </trkpt>
      <trkpt lat="45.81458" lon="4.82971">
        <ele>264</ele>
        <time>2011-12-22T09:19:35Z</time>
      </trkpt>
      <trkpt lat="45.81466" lon="4.82969">
        <ele>264</ele>
        <time>2011-12-22T09:19:38Z</time>
      </trkpt>
      <trkpt lat="45.81478" lon="4.82967">
        <ele>264</ele>
        <time>2011-12-22T09:19:42Z</time>
      </trkpt>
      <trkpt lat="45.81484" lon="4.82966">
        <ele>265</ele>
        <time>2011-12-22T09:19:44Z</time>
      </trkpt>
      <trkpt lat="45.81497" lon="4.82963">
        <ele>265</ele>
        <time>2011-12-22T09:19:49Z</time>
      </trkpt>
      <trkpt lat="45.81508" lon="4.82962">
        <ele>267</ele>
        <time>2011-12-22T09:19:53Z</time>
      </trkpt>
      <trkpt lat="45.81516" lon="4.82962">
        <ele>267</ele>
        <time>2011-12-22T09:19:56Z</time>
      </trkpt>
      <trkpt lat="45.81522" lon="4.82962">
        <ele>267</ele>
        <time>2011-12-22T09:19:58Z</time>
      </trkpt>
      <trkpt lat="45.81535" lon="4.82959">
        <ele>268</ele>
        <time>2011-12-22T09:20:02Z</time>
      </trkpt>
      <trkpt lat="45.81537" lon="4.82958">
        <ele>268</ele>
        <time>2011-12-22T09:20:03Z</time>
      </trkpt>
      <trkpt lat="45.8155" lon="4.8295">
        <ele>268</ele>
        <time>2011-12-22T09:20:08Z</time>
      </trkpt>
      <trkpt lat="45.81552" lon="4.82949">
        <ele>268</ele>
        <time>2011-12-22T09:20:09Z</time>
      </trkpt>
      <trkpt lat="45.81564" lon="4.8294">
        <ele>269</ele>
        <time>2011-12-22T09:20:14Z</time>
      </trkpt>
      <trkpt lat="45.81569" lon="4.82938">
        <ele>269</ele>
        <time>2011-12-22T09:20:16Z</time>
      </trkpt>
      <trkpt lat="45.81576" lon="4.82934">
        <ele>269</ele>
        <time>2011-12-22T09:20:19Z</time>
      </trkpt>
      <trkpt lat="45.81588" lon="4.8293">
        <ele>271</ele>
        <time>2011-12-22T09:20:24Z</time>
      </trkpt>
      <trkpt lat="45.81601" lon="4.82923">
        <ele>272</ele>
        <time>2011-12-22T09:20:30Z</time>
      </trkpt>
      <trkpt lat="45.81605" lon="4.82921">
        <ele>272</ele>
        <time>2011-12-22T09:20:32Z</time>
      </trkpt>
      <trkpt lat="45.81607" lon="4.8292">
        <ele>272</ele>
        <time>2011-12-22T09:20:33Z</time>
      </trkpt>
      <trkpt lat="45.8161" lon="4.82919">
        <ele>272</ele>
        <time>2011-12-22T09:20:34Z</time>
      </trkpt>
      <trkpt lat="45.81618" lon="4.82917">
        <ele>272</ele>
        <time>2011-12-22T09:20:38Z</time>
      </trkpt>
      <trkpt lat="45.81623" lon="4.82915">
        <ele>274</ele>
        <time>2011-12-22T09:20:40Z</time>
      </trkpt>
      <trkpt lat="45.81636" lon="4.82912">
        <ele>274</ele>
        <time>2011-12-22T09:20:46Z</time>
      </trkpt>
      <trkpt lat="45.81639" lon="4.82917">
        <ele>274</ele>
        <time>2011-12-22T09:20:48Z</time>
      </trkpt>
      <trkpt lat="45.81642" lon="4.82921">
        <ele>273</ele>
        <time>2011-12-22T09:20:50Z</time>
      </trkpt>
      <trkpt lat="45.81643" lon="4.82924">
        <ele>273</ele>
        <time>2011-12-22T09:20:51Z</time>
      </trkpt>
      <trkpt lat="45.81651" lon="4.82938">
        <ele>273</ele>
        <time>2011-12-22T09:20:57Z</time>
      </trkpt>
      <trkpt lat="45.81652" lon="4.82941">
        <ele>273</ele>
        <time>2011-12-22T09:20:58Z</time>
      </trkpt>
      <trkpt lat="45.8166" lon="4.82952">
        <ele>273</ele>
        <time>2011-12-22T09:21:03Z</time>
      </trkpt>
      <trkpt lat="45.81664" lon="4.82956">
        <ele>273</ele>
        <time>2011-12-22T09:21:05Z</time>
      </trkpt>
      <trkpt lat="45.81675" lon="4.82961">
        <ele>274</ele>
        <time>2011-12-22T09:21:09Z</time>
      </trkpt>
      <trkpt lat="45.81683" lon="4.82961">
        <ele>274</ele>
        <time>2011-12-22T09:21:12Z</time>
      </trkpt>
      <trkpt lat="45.8169" lon="4.82961">
        <ele>274</ele>
        <time>2011-12-22T09:21:15Z</time>
      </trkpt>
      <trkpt lat="45.81701" lon="4.82961">
        <ele>274</ele>
        <time>2011-12-22T09:21:19Z</time>
      </trkpt>
      <trkpt lat="45.81704" lon="4.82962">
        <ele>274</ele>
        <time>2011-12-22T09:21:20Z</time>
      </trkpt>
      <trkpt lat="45.81719" lon="4.82963">
        <ele>274</ele>
        <time>2011-12-22T09:21:26Z</time>
      </trkpt>
      <trkpt lat="45.81729" lon="4.82962">
        <ele>274</ele>
        <time>2011-12-22T09:21:30Z</time>
      </trkpt>
      <trkpt lat="45.81731" lon="4.82961">
        <ele>274</ele>
        <time>2011-12-22T09:21:31Z</time>
      </trkpt>
      <trkpt lat="45.81737" lon="4.82958">
        <ele>274</ele>
        <time>2011-12-22T09:21:33Z</time>
      </trkpt>
      <trkpt lat="45.81742" lon="4.82958">
        <ele>275</ele>
        <time>2011-12-22T09:21:35Z</time>
      </trkpt>
      <trkpt lat="45.8175" lon="4.82959">
        <ele>275</ele>
        <time>2011-12-22T09:21:38Z</time>
      </trkpt>
      <trkpt lat="45.81755" lon="4.82959">
        <ele>276</ele>
        <time>2011-12-22T09:21:40Z</time>
      </trkpt>
      <trkpt lat="45.81757" lon="4.82959">
        <ele>276</ele>
        <time>2011-12-22T09:21:41Z</time>
      </trkpt>
      <trkpt lat="45.81769" lon="4.82961">
        <ele>276</ele>
        <time>2011-12-22T09:21:46Z</time>
      </trkpt>
      <trkpt lat="45.81775" lon="4.82961">
        <ele>276</ele>
        <time>2011-12-22T09:21:49Z</time>
      </trkpt>
      <trkpt lat="45.81784" lon="4.82963">
        <ele>277</ele>
        <time>2011-12-22T09:21:53Z</time>
      </trkpt>
      <trkpt lat="45.81793" lon="4.82967">
        <ele>277</ele>
        <time>2011-12-22T09:21:57Z</time>
      </trkpt>
      <trkpt lat="45.81799" lon="4.82969">
        <ele>277</ele>
        <time>2011-12-22T09:21:59Z</time>
      </trkpt>
      <trkpt lat="45.81813" lon="4.82972">
        <ele>277</ele>
        <time>2011-12-22T09:22:05Z</time>
      </trkpt>
      <trkpt lat="45.81825" lon="4.82964">
        <ele>277</ele>
        <time>2011-12-22T09:22:10Z</time>
      </trkpt>
      <trkpt lat="45.81829" lon="4.82957">
        <ele>278</ele>
        <time>2011-12-22T09:22:13Z</time>
      </trkpt>
      <trkpt lat="45.81832" lon="4.82955">
        <ele>278</ele>
        <time>2011-12-22T09:22:15Z</time>
      </trkpt>
      <trkpt lat="45.81835" lon="4.82949">
        <ele>280</ele>
        <time>2011-12-22T09:22:18Z</time>
      </trkpt>
      <trkpt lat="45.81836" lon="4.82947">
        <ele>280</ele>
        <time>2011-12-22T09:22:19Z</time>
      </trkpt>
      <trkpt lat="45.81839" lon="4.82935">
        <ele>281</ele>
        <time>2011-12-22T09:22:24Z</time>
      </trkpt>
      <trkpt lat="45.8184" lon="4.82933">
        <ele>281</ele>
        <time>2011-12-22T09:22:25Z</time>
      </trkpt>
      <trkpt lat="45.81844" lon="4.8292">
        <ele>282</ele>
        <time>2011-12-22T09:22:30Z</time>
      </trkpt>
      <trkpt lat="45.81849" lon="4.82911">
        <ele>285</ele>
        <time>2011-12-22T09:22:34Z</time>
      </trkpt>
      <trkpt lat="45.81853" lon="4.82909">
        <ele>285</ele>
        <time>2011-12-22T09:22:36Z</time>
      </trkpt>
      <trkpt lat="45.81854" lon="4.82906">
        <ele>285</ele>
        <time>2011-12-22T09:22:37Z</time>
      </trkpt>
      <trkpt lat="45.81857" lon="4.82893">
        <ele>286</ele>
        <time>2011-12-22T09:22:42Z</time>
      </trkpt>
      <trkpt lat="45.81858" lon="4.82888">
        <ele>286</ele>
        <time>2011-12-22T09:22:44Z</time>
      </trkpt>
      <trkpt lat="45.81863" lon="4.82882">
        <ele>287</ele>
        <time>2011-12-22T09:22:47Z</time>
      </trkpt>
      <trkpt lat="45.81873" lon="4.82868">
        <ele>287</ele>
        <time>2011-12-22T09:22:53Z</time>
      </trkpt>
      <trkpt lat="45.81873" lon="4.82866">
        <ele>287</ele>
        <time>2011-12-22T09:22:54Z</time>
      </trkpt>
      <trkpt lat="45.81874" lon="4.82862">
        <ele>288</ele>
        <time>2011-12-22T09:22:56Z</time>
      </trkpt>
      <trkpt lat="45.81873" lon="4.82853">
        <ele>288</ele>
        <time>2011-12-22T09:22:59Z</time>
      </trkpt>
      <trkpt lat="45.81875" lon="4.8285">
        <ele>288</ele>
        <time>2011-12-22T09:23:02Z</time>
      </trkpt>
      <trkpt lat="45.81877" lon="4.8285">
        <ele>288</ele>
        <time>2011-12-22T09:23:03Z</time>
      </trkpt>
      <trkpt lat="45.81884" lon="4.82853">
        <ele>288</ele>
        <time>2011-12-22T09:23:05Z</time>
      </trkpt>
      <trkpt lat="45.8189" lon="4.82854">
        <ele>288</ele>
        <time>2011-12-22T09:23:07Z</time>
      </trkpt>
      <trkpt lat="45.81902" lon="4.82859">
        <ele>288</ele>
        <time>2011-12-22T09:23:12Z</time>
      </trkpt>
      <trkpt lat="45.81914" lon="4.82862">
        <ele>288</ele>
        <time>2011-12-22T09:23:17Z</time>
      </trkpt>
      <trkpt lat="45.8192" lon="4.82867">
        <ele>289</ele>
        <time>2011-12-22T09:23:20Z</time>
      </trkpt>
      <trkpt lat="45.81922" lon="4.82868">
        <ele>289</ele>
        <time>2011-12-22T09:23:21Z</time>
      </trkpt>
      <trkpt lat="45.81933" lon="4.82869">
        <ele>290</ele>
        <time>2011-12-22T09:23:26Z</time>
      </trkpt>
      <trkpt lat="45.81937" lon="4.82869">
        <ele>290</ele>
        <time>2011-12-22T09:23:28Z</time>
      </trkpt>
      <trkpt lat="45.81939" lon="4.82869">
        <ele>290</ele>
        <time>2011-12-22T09:23:29Z</time>
      </trkpt>
      <trkpt lat="45.81944" lon="4.82868">
        <ele>290</ele>
        <time>2011-12-22T09:23:31Z</time>
      </trkpt>
      <trkpt lat="45.81955" lon="4.82868">
        <ele>290</ele>
        <time>2011-12-22T09:23:36Z</time>
      </trkpt>
      <trkpt lat="45.81959" lon="4.82867">
        <ele>291</ele>
        <time>2011-12-22T09:23:38Z</time>
      </trkpt>
      <trkpt lat="45.81962" lon="4.82866">
        <ele>291</ele>
        <time>2011-12-22T09:23:40Z</time>
      </trkpt>
      <trkpt lat="45.81978" lon="4.82866">
        <ele>292</ele>
        <time>2011-12-22T09:23:46Z</time>
      </trkpt>
      <trkpt lat="45.81996" lon="4.82867">
        <ele>292</ele>
        <time>2011-12-22T09:23:54Z</time>
      </trkpt>
      <trkpt lat="45.81998" lon="4.82866">
        <ele>292</ele>
        <time>2011-12-22T09:23:55Z</time>
      </trkpt>
      <trkpt lat="45.82007" lon="4.82865">
        <ele>297</ele>
        <time>2011-12-22T09:23:59Z</time>
      </trkpt>
      <trkpt lat="45.82017" lon="4.82864">
        <ele>297</ele>
        <time>2011-12-22T09:24:04Z</time>
      </trkpt>
      <trkpt lat="45.82019" lon="4.82864">
        <ele>298</ele>
        <time>2011-12-22T09:24:05Z</time>
      </trkpt>
      <trkpt lat="45.82031" lon="4.82864">
        <ele>298</ele>
        <time>2011-12-22T09:24:11Z</time>
      </trkpt>
      <trkpt lat="45.82035" lon="4.82865">
        <ele>298</ele>
        <time>2011-12-22T09:24:13Z</time>
      </trkpt>
      <trkpt lat="45.82039" lon="4.82865">
        <ele>298</ele>
        <time>2011-12-22T09:24:15Z</time>
      </trkpt>
      <trkpt lat="45.82044" lon="4.82865">
        <ele>299</ele>
        <time>2011-12-22T09:24:17Z</time>
      </trkpt>
      <trkpt lat="45.82054" lon="4.82865">
        <ele>299</ele>
        <time>2011-12-22T09:24:22Z</time>
      </trkpt>
      <trkpt lat="45.82061" lon="4.82868">
        <ele>300</ele>
        <time>2011-12-22T09:24:26Z</time>
      </trkpt>
      <trkpt lat="45.82072" lon="4.82874">
        <ele>299</ele>
        <time>2011-12-22T09:24:31Z</time>
      </trkpt>
      <trkpt lat="45.82074" lon="4.82875">
        <ele>300</ele>
        <time>2011-12-22T09:24:32Z</time>
      </trkpt>
      <trkpt lat="45.82084" lon="4.82879">
        <ele>305</ele>
        <time>2011-12-22T09:24:38Z</time>
      </trkpt>
      <trkpt lat="45.8209" lon="4.8288">
        <ele>305</ele>
        <time>2011-12-22T09:24:40Z</time>
      </trkpt>
      <trkpt lat="45.82099" lon="4.82884">
        <ele>305</ele>
        <time>2011-12-22T09:24:43Z</time>
      </trkpt>
      <trkpt lat="45.82107" lon="4.8289">
        <ele>305</ele>
        <time>2011-12-22T09:24:47Z</time>
      </trkpt>
      <trkpt lat="45.8211" lon="4.8289">
        <ele>305</ele>
        <time>2011-12-22T09:24:49Z</time>
      </trkpt>
      <trkpt lat="45.82113" lon="4.82891">
        <ele>305</ele>
        <time>2011-12-22T09:24:51Z</time>
      </trkpt>
      <trkpt lat="45.82118" lon="4.82894">
        <ele>305</ele>
        <time>2011-12-22T09:24:54Z</time>
      </trkpt>
      <trkpt lat="45.82126" lon="4.82894">
        <ele>306</ele>
        <time>2011-12-22T09:24:58Z</time>
      </trkpt>
      <trkpt lat="45.82129" lon="4.82894">
        <ele>306</ele>
        <time>2011-12-22T09:25:00Z</time>
      </trkpt>
      <trkpt lat="45.82139" lon="4.82894">
        <ele>307</ele>
        <time>2011-12-22T09:25:05Z</time>
      </trkpt>
      <trkpt lat="45.82145" lon="4.82896">
        <ele>307</ele>
        <time>2011-12-22T09:25:08Z</time>
      </trkpt>
      <trkpt lat="45.8215" lon="4.82897">
        <ele>307</ele>
        <time>2011-12-22T09:25:10Z</time>
      </trkpt>
      <trkpt lat="45.82152" lon="4.82898">
        <ele>307</ele>
        <time>2011-12-22T09:25:11Z</time>
      </trkpt>
      <trkpt lat="45.82162" lon="4.82901">
        <ele>306</ele>
        <time>2011-12-22T09:25:16Z</time>
      </trkpt>
      <trkpt lat="45.82164" lon="4.82901">
        <ele>306</ele>
        <time>2011-12-22T09:25:17Z</time>
      </trkpt>
      <trkpt lat="45.82172" lon="4.82904">
        <ele>309</ele>
        <time>2011-12-22T09:25:21Z</time>
      </trkpt>
      <trkpt lat="45.82173" lon="4.82906">
        <ele>309</ele>
        <time>2011-12-22T09:25:22Z</time>
      </trkpt>
      <trkpt lat="45.8218" lon="4.82908">
        <ele>309</ele>
        <time>2011-12-22T09:25:26Z</time>
      </trkpt>
      <trkpt lat="45.82182" lon="4.82908">
        <ele>310</ele>
        <time>2011-12-22T09:25:27Z</time>
      </trkpt>
      <trkpt lat="45.82191" lon="4.82905">
        <ele>311</ele>
        <time>2011-12-22T09:25:31Z</time>
      </trkpt>
      <trkpt lat="45.82193" lon="4.82904">
        <ele>311</ele>
        <time>2011-12-22T09:25:32Z</time>
      </trkpt>
      <trkpt lat="45.82201" lon="4.82909">
        <ele>312</ele>
        <time>2011-12-22T09:25:36Z</time>
      </trkpt>
      <trkpt lat="45.82204" lon="4.8291">
        <ele>312</ele>
        <time>2011-12-22T09:25:37Z</time>
      </trkpt>
      <trkpt lat="45.82217" lon="4.82914">
        <ele>312</ele>
        <time>2011-12-22T09:25:42Z</time>
      </trkpt>
      <trkpt lat="45.82221" lon="4.82914">
        <ele>312</ele>
        <time>2011-12-22T09:25:43Z</time>
      </trkpt>
      <trkpt lat="45.82225" lon="4.82915">
        <ele>312</ele>
        <time>2011-12-22T09:25:45Z</time>
      </trkpt>
      <trkpt lat="45.82227" lon="4.82919">
        <ele>304</ele>
        <time>2011-12-22T09:25:47Z</time>
      </trkpt>
      <trkpt lat="45.82237" lon="4.82925">
        <ele>305</ele>
        <time>2011-12-22T09:25:52Z</time>
      </trkpt>
      <trkpt lat="45.82246" lon="4.82916">
        <ele>311</ele>
        <time>2011-12-22T09:25:56Z</time>
      </trkpt>
      <trkpt lat="45.82253" lon="4.82911">
        <ele>311</ele>
        <time>2011-12-22T09:26:00Z</time>
      </trkpt>
      <trkpt lat="45.82254" lon="4.8291">
        <ele>312</ele>
        <time>2011-12-22T09:26:01Z</time>
      </trkpt>
      <trkpt lat="45.82256" lon="4.8291">
        <ele>312</ele>
        <time>2011-12-22T09:26:02Z</time>
      </trkpt>
      <trkpt lat="45.82258" lon="4.82908">
        <ele>312</ele>
        <time>2011-12-22T09:26:03Z</time>
      </trkpt>
      <trkpt lat="45.82265" lon="4.829">
        <ele>313</ele>
        <time>2011-12-22T09:26:06Z</time>
      </trkpt>
      <trkpt lat="45.8227" lon="4.82896">
        <ele>314</ele>
        <time>2011-12-22T09:26:09Z</time>
      </trkpt>
      <trkpt lat="45.82274" lon="4.82893">
        <ele>314</ele>
        <time>2011-12-22T09:26:11Z</time>
      </trkpt>
      <trkpt lat="45.82286" lon="4.82888">
        <ele>315</ele>
        <time>2011-12-22T09:26:17Z</time>
      </trkpt>
      <trkpt lat="45.823" lon="4.82892">
        <ele>314</ele>
        <time>2011-12-22T09:26:22Z</time>
      </trkpt>
      <trkpt lat="45.82305" lon="4.82893">
        <ele>314</ele>
        <time>2011-12-22T09:26:24Z</time>
      </trkpt>
      <trkpt lat="45.82319" lon="4.82897">
        <ele>313</ele>
        <time>2011-12-22T09:26:29Z</time>
      </trkpt>
      <trkpt lat="45.82325" lon="4.82899">
        <ele>312</ele>
        <time>2011-12-22T09:26:31Z</time>
      </trkpt>
      <trkpt lat="45.82333" lon="4.82901">
        <ele>311</ele>
        <time>2011-12-22T09:26:34Z</time>
      </trkpt>
      <trkpt lat="45.82345" lon="4.82902">
        <ele>312</ele>
        <time>2011-12-22T09:26:39Z</time>
      </trkpt>
      <trkpt lat="45.82347" lon="4.82902">
        <ele>313</ele>
        <time>2011-12-22T09:26:40Z</time>
      </trkpt>
      <trkpt lat="45.8236" lon="4.82904">
        <ele>314</ele>
        <time>2011-12-22T09:26:45Z</time>
      </trkpt>
      <trkpt lat="45.82365" lon="4.82904">
        <ele>314</ele>
        <time>2011-12-22T09:26:47Z</time>
      </trkpt>
      <trkpt lat="45.82371" lon="4.82905">
        <ele>314</ele>
        <time>2011-12-22T09:26:50Z</time>
      </trkpt>
      <trkpt lat="45.82382" lon="4.82912">
        <ele>314</ele>
        <time>2011-12-22T09:26:55Z</time>
      </trkpt>
      <trkpt lat="45.82384" lon="4.82914">
        <ele>314</ele>
        <time>2011-12-22T09:26:56Z</time>
      </trkpt>
      <trkpt lat="45.82397" lon="4.82922">
        <ele>305</ele>
        <time>2011-12-22T09:27:02Z</time>
      </trkpt>
      <trkpt lat="45.82399" lon="4.82924">
        <ele>305</ele>
        <time>2011-12-22T09:27:03Z</time>
      </trkpt>
      <trkpt lat="45.82409" lon="4.82931">
        <ele>306</ele>
        <time>2011-12-22T09:27:07Z</time>
      </trkpt>
      <trkpt lat="45.82418" lon="4.82933">
        <ele>307</ele>
        <time>2011-12-22T09:27:10Z</time>
      </trkpt>
      <trkpt lat="45.82421" lon="4.82932">
        <ele>307</ele>
        <time>2011-12-22T09:27:11Z</time>
      </trkpt>
      <trkpt lat="45.82432" lon="4.82926">
        <ele>307</ele>
        <time>2011-12-22T09:27:16Z</time>
      </trkpt>
      <trkpt lat="45.82436" lon="4.82924">
        <ele>307</ele>
        <time>2011-12-22T09:27:18Z</time>
      </trkpt>
      <trkpt lat="45.82448" lon="4.82917">
        <ele>307</ele>
        <time>2011-12-22T09:27:24Z</time>
      </trkpt>
      <trkpt lat="45.82455" lon="4.82913">
        <ele>318</ele>
        <time>2011-12-22T09:27:27Z</time>
      </trkpt>
      <trkpt lat="45.82461" lon="4.8291">
        <ele>318</ele>
        <time>2011-12-22T09:27:30Z</time>
      </trkpt>
      <trkpt lat="45.82473" lon="4.82905">
        <ele>319</ele>
        <time>2011-12-22T09:27:36Z</time>
      </trkpt>
      <trkpt lat="45.82486" lon="4.82901">
        <ele>319</ele>
        <time>2011-12-22T09:27:43Z</time>
      </trkpt>
      <trkpt lat="45.82491" lon="4.82898">
        <ele>319</ele>
        <time>2011-12-22T09:27:46Z</time>
      </trkpt>
      <trkpt lat="45.82496" lon="4.82898">
        <ele>319</ele>
        <time>2011-12-22T09:27:49Z</time>
      </trkpt>
      <trkpt lat="45.82505" lon="4.82895">
        <ele>322</ele>
        <time>2011-12-22T09:27:54Z</time>
      </trkpt>
      <trkpt lat="45.82509" lon="4.82896">
        <ele>322</ele>
        <time>2011-12-22T09:27:57Z</time>
      </trkpt>
      <trkpt lat="45.82515" lon="4.82898">
        <ele>322</ele>
        <time>2011-12-22T09:28:00Z</time>
      </trkpt>
      <trkpt lat="45.82526" lon="4.82903">
        <ele>323</ele>
        <time>2011-12-22T09:28:05Z</time>
      </trkpt>
      <trkpt lat="45.82527" lon="4.82905">
        <ele>323</ele>
        <time>2011-12-22T09:28:06Z</time>
      </trkpt>
      <trkpt lat="45.82535" lon="4.8292">
        <ele>313</ele>
        <time>2011-12-22T09:28:13Z</time>
      </trkpt>
      <trkpt lat="45.82538" lon="4.82921">
        <ele>314</ele>
        <time>2011-12-22T09:28:15Z</time>
      </trkpt>
      <trkpt lat="45.82541" lon="4.8292">
        <ele>314</ele>
        <time>2011-12-22T09:28:16Z</time>
      </trkpt>
      <trkpt lat="45.82544" lon="4.82918">
        <ele>314</ele>
        <time>2011-12-22T09:28:18Z</time>
      </trkpt>
      <trkpt lat="45.82551" lon="4.82908">
        <ele>325</ele>
        <time>2011-12-22T09:28:24Z</time>
      </trkpt>
      <trkpt lat="45.82553" lon="4.82902">
        <ele>325</ele>
        <time>2011-12-22T09:28:27Z</time>
      </trkpt>
      <trkpt lat="45.82553" lon="4.829">
        <ele>325</ele>
        <time>2011-12-22T09:28:28Z</time>
      </trkpt>
      <trkpt lat="45.82554" lon="4.82898">
        <ele>326</ele>
        <time>2011-12-22T09:28:29Z</time>
      </trkpt>
      <trkpt lat="45.82554" lon="4.82894">
        <ele>326</ele>
        <time>2011-12-22T09:28:31Z</time>
      </trkpt>
      <trkpt lat="45.82555" lon="4.82887">
        <ele>326</ele>
        <time>2011-12-22T09:28:35Z</time>
      </trkpt>
      <trkpt lat="45.82555" lon="4.82882">
        <ele>327</ele>
        <time>2011-12-22T09:28:37Z</time>
      </trkpt>
      <trkpt lat="45.82557" lon="4.82876">
        <ele>327</ele>
        <time>2011-12-22T09:28:40Z</time>
      </trkpt>
      <trkpt lat="45.82557" lon="4.82874">
        <ele>328</ele>
        <time>2011-12-22T09:28:41Z</time>
      </trkpt>
      <trkpt lat="45.82556" lon="4.82863">
        <ele>329</ele>
        <time>2011-12-22T09:28:46Z</time>
      </trkpt>
      <trkpt lat="45.82554" lon="4.82853">
        <ele>329</ele>
        <time>2011-12-22T09:28:52Z</time>
      </trkpt>
      <trkpt lat="45.82553" lon="4.82849">
        <ele>330</ele>
        <time>2011-12-22T09:28:54Z</time>
      </trkpt>
      <trkpt lat="45.82551" lon="4.82844">
        <ele>330</ele>
        <time>2011-12-22T09:28:57Z</time>
      </trkpt>
      <trkpt lat="45.82548" lon="4.82831">
        <ele>339</ele>
        <time>2011-12-22T09:29:04Z</time>
      </trkpt>
      <trkpt lat="45.82545" lon="4.82824">
        <ele>339</ele>
        <time>2011-12-22T09:29:07Z</time>
      </trkpt>
      <trkpt lat="45.82543" lon="4.82817">
        <ele>339</ele>
        <time>2011-12-22T09:29:10Z</time>
      </trkpt>
      <trkpt lat="45.82541" lon="4.8281">
        <ele>339</ele>
        <time>2011-12-22T09:29:15Z</time>
      </trkpt>
      <trkpt lat="45.8254" lon="4.82799">
        <ele>340</ele>
        <time>2011-12-22T09:29:22Z</time>
      </trkpt>
      <trkpt lat="45.82537" lon="4.82788">
        <ele>341</ele>
        <time>2011-12-22T09:29:27Z</time>
      </trkpt>
      <trkpt lat="45.82538" lon="4.8278">
        <ele>341</ele>
        <time>2011-12-22T09:29:30Z</time>
      </trkpt>
      <trkpt lat="45.82539" lon="4.82775">
        <ele>342</ele>
        <time>2011-12-22T09:29:32Z</time>
      </trkpt>
      <trkpt lat="45.8254" lon="4.8277">
        <ele>342</ele>
        <time>2011-12-22T09:29:34Z</time>
      </trkpt>
      <trkpt lat="45.82538" lon="4.82764">
        <ele>342</ele>
        <time>2011-12-22T09:29:37Z</time>
      </trkpt>
      <trkpt lat="45.82538" lon="4.82762">
        <ele>342</ele>
        <time>2011-12-22T09:29:38Z</time>
      </trkpt>
      <trkpt lat="45.82535" lon="4.82747">
        <ele>351</ele>
        <time>2011-12-22T09:29:44Z</time>
      </trkpt>
      <trkpt lat="45.82535" lon="4.82744">
        <ele>351</ele>
        <time>2011-12-22T09:29:45Z</time>
      </trkpt>
      <trkpt lat="45.82533" lon="4.82734">
        <ele>352</ele>
        <time>2011-12-22T09:29:50Z</time>
      </trkpt>
      <trkpt lat="45.82528" lon="4.82721">
        <ele>353</ele>
        <time>2011-12-22T09:29:56Z</time>
      </trkpt>
      <trkpt lat="45.82528" lon="4.82713">
        <ele>354</ele>
        <time>2011-12-22T09:30:00Z</time>
      </trkpt>
      <trkpt lat="45.82529" lon="4.82712">
        <ele>354</ele>
        <time>2011-12-22T09:30:01Z</time>
      </trkpt>
      <trkpt lat="45.82537" lon="4.82704">
        <ele>355</ele>
        <time>2011-12-22T09:30:07Z</time>
      </trkpt>
      <trkpt lat="45.82538" lon="4.82702">
        <ele>355</ele>
        <time>2011-12-22T09:30:08Z</time>
      </trkpt>
      <trkpt lat="45.82544" lon="4.82701">
        <ele>355</ele>
        <time>2011-12-22T09:30:13Z</time>
      </trkpt>
      <trkpt lat="45.82557" lon="4.82708">
        <ele>355</ele>
        <time>2011-12-22T09:30:20Z</time>
      </trkpt>
      <trkpt lat="45.82566" lon="4.82712">
        <ele>355</ele>
        <time>2011-12-22T09:30:25Z</time>
      </trkpt>
      <trkpt lat="45.82575" lon="4.82711">
        <ele>355</ele>
        <time>2011-12-22T09:30:29Z</time>
      </trkpt>
      <trkpt lat="45.8258" lon="4.82712">
        <ele>355</ele>
        <time>2011-12-22T09:30:31Z</time>
      </trkpt>
      <trkpt lat="45.82591" lon="4.82717">
        <ele>360</ele>
        <time>2011-12-22T09:30:37Z</time>
      </trkpt>
      <trkpt lat="45.82594" lon="4.82718">
        <ele>360</ele>
        <time>2011-12-22T09:30:39Z</time>
      </trkpt>
      <trkpt lat="45.82604" lon="4.8272">
        <ele>361</ele>
        <time>2011-12-22T09:30:44Z</time>
      </trkpt>
      <trkpt lat="45.82612" lon="4.82723">
        <ele>361</ele>
        <time>2011-12-22T09:30:48Z</time>
      </trkpt>
      <trkpt lat="45.82615" lon="4.82725">
        <ele>362</ele>
        <time>2011-12-22T09:30:50Z</time>
      </trkpt>
      <trkpt lat="45.82625" lon="4.82732">
        <ele>362</ele>
        <time>2011-12-22T09:30:56Z</time>
      </trkpt>
      <trkpt lat="45.82629" lon="4.82735">
        <ele>362</ele>
        <time>2011-12-22T09:30:58Z</time>
      </trkpt>
      <trkpt lat="45.82634" lon="4.8274">
        <ele>363</ele>
        <time>2011-12-22T09:31:01Z</time>
      </trkpt>
      <trkpt lat="45.82642" lon="4.82749">
        <ele>363</ele>
        <time>2011-12-22T09:31:06Z</time>
      </trkpt>
      <trkpt lat="45.82643" lon="4.82751">
        <ele>355</ele>
        <time>2011-12-22T09:31:07Z</time>
      </trkpt>
      <trkpt lat="45.82652" lon="4.82762">
        <ele>356</ele>
        <time>2011-12-22T09:31:12Z</time>
      </trkpt>
      <trkpt lat="45.82653" lon="4.82763">
        <ele>356</ele>
        <time>2011-12-22T09:31:13Z</time>
      </trkpt>
      <trkpt lat="45.82658" lon="4.82769">
        <ele>355</ele>
        <time>2011-12-22T09:31:16Z</time>
      </trkpt>
      <trkpt lat="45.8266" lon="4.82771">
        <ele>355</ele>
        <time>2011-12-22T09:31:17Z</time>
      </trkpt>
      <trkpt lat="45.82661" lon="4.82773">
        <ele>355</ele>
        <time>2011-12-22T09:31:18Z</time>
      </trkpt>
      <trkpt lat="45.82666" lon="4.8278">
        <ele>354</ele>
        <time>2011-12-22T09:31:22Z</time>
      </trkpt>
      <trkpt lat="45.82673" lon="4.82787">
        <ele>364</ele>
        <time>2011-12-22T09:31:27Z</time>
      </trkpt>
      <trkpt lat="45.82678" lon="4.8279">
        <ele>364</ele>
        <time>2011-12-22T09:31:31Z</time>
      </trkpt>
      <trkpt lat="45.82685" lon="4.82795">
        <ele>364</ele>
        <time>2011-12-22T09:31:37Z</time>
      </trkpt>
      <trkpt lat="45.82688" lon="4.82795">
        <ele>365</ele>
        <time>2011-12-22T09:31:39Z</time>
      </trkpt>
      <trkpt lat="45.8269" lon="4.82795">
        <ele>365</ele>
        <time>2011-12-22T09:31:40Z</time>
      </trkpt>
      <trkpt lat="45.82697" lon="4.82795">
        <ele>366</ele>
        <time>2011-12-22T09:31:44Z</time>
      </trkpt>
      <trkpt lat="45.82706" lon="4.82793">
        <ele>367</ele>
        <time>2011-12-22T09:31:48Z</time>
      </trkpt>
      <trkpt lat="45.82709" lon="4.82793">
        <ele>367</ele>
        <time>2011-12-22T09:31:50Z</time>
      </trkpt>
      <trkpt lat="45.82712" lon="4.82793">
        <ele>368</ele>
        <time>2011-12-22T09:31:52Z</time>
      </trkpt>
      <trkpt lat="45.82715" lon="4.82793">
        <ele>368</ele>
        <time>2011-12-22T09:31:54Z</time>
      </trkpt>
      <trkpt lat="45.82721" lon="4.82794">
        <ele>369</ele>
        <time>2011-12-22T09:31:58Z</time>
      </trkpt>
      <trkpt lat="45.82728" lon="4.82795">
        <ele>369</ele>
        <time>2011-12-22T09:32:03Z</time>
      </trkpt>
      <trkpt lat="45.82729" lon="4.82796">
        <ele>369</ele>
        <time>2011-12-22T09:32:04Z</time>
      </trkpt>
      <trkpt lat="45.82734" lon="4.82799">
        <ele>369</ele>
        <time>2011-12-22T09:32:07Z</time>
      </trkpt>
      <trkpt lat="45.82738" lon="4.828">
        <ele>369</ele>
        <time>2011-12-22T09:32:10Z</time>
      </trkpt>
      <trkpt lat="45.82746" lon="4.82799">
        <ele>370</ele>
        <time>2011-12-22T09:32:15Z</time>
      </trkpt>
      <trkpt lat="45.82748" lon="4.82798">
        <ele>370</ele>
        <time>2011-12-22T09:32:16Z</time>
      </trkpt>
      <trkpt lat="45.82755" lon="4.82801">
        <ele>378</ele>
        <time>2011-12-22T09:32:21Z</time>
      </trkpt>
      <trkpt lat="45.82763" lon="4.82804">
        <ele>378</ele>
        <time>2011-12-22T09:32:26Z</time>
      </trkpt>
      <trkpt lat="45.82763" lon="4.82805">
        <ele>378</ele>
        <time>2011-12-22T09:32:27Z</time>
      </trkpt>
      <trkpt lat="45.82764" lon="4.82808">
        <ele>377</ele>
        <time>2011-12-22T09:32:29Z</time>
      </trkpt>
      <trkpt lat="45.82765" lon="4.82812">
        <ele>377</ele>
        <time>2011-12-22T09:32:31Z</time>
      </trkpt>
      <trkpt lat="45.82765" lon="4.82813">
        <ele>376</ele>
        <time>2011-12-22T09:32:32Z</time>
      </trkpt>
      <trkpt lat="45.82763" lon="4.82815">
        <ele>376</ele>
        <time>2011-12-22T09:32:36Z</time>
      </trkpt>
      <trkpt lat="45.8276" lon="4.82818">
        <ele>375</ele>
        <time>2011-12-22T09:32:42Z</time>
      </trkpt>
      <trkpt lat="45.82762" lon="4.82815">
        <ele>376</ele>
        <time>2011-12-22T09:32:46Z</time>
      </trkpt>
      <trkpt lat="45.82763" lon="4.82822">
        <ele>374</ele>
        <time>2011-12-22T09:33:08Z</time>
      </trkpt>
      <trkpt lat="45.82764" lon="4.82825">
        <ele>374</ele>
        <time>2011-12-22T09:33:11Z</time>
      </trkpt>
      <trkpt lat="45.82765" lon="4.82827">
        <ele>374</ele>
        <time>2011-12-22T09:33:13Z</time>
      </trkpt>
      <trkpt lat="45.82765" lon="4.82831">
        <ele>373</ele>
        <time>2011-12-22T09:33:18Z</time>
      </trkpt>
      <trkpt lat="45.82763" lon="4.82834">
        <ele>364</ele>
        <time>2011-12-22T09:33:24Z</time>
      </trkpt>
      <trkpt lat="45.82763" lon="4.82838">
        <ele>364</ele>
        <time>2011-12-22T09:33:29Z</time>
      </trkpt>
      <trkpt lat="45.82765" lon="4.82837">
        <ele>364</ele>
        <time>2011-12-22T09:33:32Z</time>
      </trkpt>
      <trkpt lat="45.82769" lon="4.82836">
        <ele>364</ele>
        <time>2011-12-22T09:33:34Z</time>
      </trkpt>
      <trkpt lat="45.82772" lon="4.82834">
        <ele>364</ele>
        <time>2011-12-22T09:33:39Z</time>
      </trkpt>
      <trkpt lat="45.82775" lon="4.82832">
        <ele>375</ele>
        <time>2011-12-22T09:33:41Z</time>
      </trkpt>
      <trkpt lat="45.82776" lon="4.8283">
        <ele>376</ele>
        <time>2011-12-22T09:33:44Z</time>
      </trkpt>
      <trkpt lat="45.82778" lon="4.82828">
        <ele>376</ele>
        <time>2011-12-22T09:33:46Z</time>
      </trkpt>
      <trkpt lat="45.8278" lon="4.82825">
        <ele>377</ele>
        <time>2011-12-22T09:33:50Z</time>
      </trkpt>
      <trkpt lat="45.82782" lon="4.82823">
        <ele>377</ele>
        <time>2011-12-22T09:33:52Z</time>
      </trkpt>
      <trkpt lat="45.82784" lon="4.82821">
        <ele>378</ele>
        <time>2011-12-22T09:33:58Z</time>
      </trkpt>
      <trkpt lat="45.82788" lon="4.8282">
        <ele>378</ele>
        <time>2011-12-22T09:34:01Z</time>
      </trkpt>
      <trkpt lat="45.82789" lon="4.8282">
        <ele>378</ele>
        <time>2011-12-22T09:34:02Z</time>
      </trkpt>
      <trkpt lat="45.82792" lon="4.82821">
        <ele>378</ele>
        <time>2011-12-22T09:34:05Z</time>
      </trkpt>
      <trkpt lat="45.82795" lon="4.82818">
        <ele>379</ele>
        <time>2011-12-22T09:34:08Z</time>
      </trkpt>
      <trkpt lat="45.828" lon="4.82816">
        <ele>379</ele>
        <time>2011-12-22T09:34:13Z</time>
      </trkpt>
      <trkpt lat="45.82804" lon="4.82812">
        <ele>379</ele>
        <time>2011-12-22T09:34:19Z</time>
      </trkpt>
      <trkpt lat="45.82805" lon="4.82812">
        <ele>379</ele>
        <time>2011-12-22T09:34:21Z</time>
      </trkpt>
      <trkpt lat="45.82806" lon="4.8281">
        <ele>380</ele>
        <time>2011-12-22T09:34:23Z</time>
      </trkpt>
      <trkpt lat="45.82807" lon="4.82809">
        <ele>380</ele>
        <time>2011-12-22T09:34:24Z</time>
      </trkpt>
      <trkpt lat="45.82808" lon="4.82808">
        <ele>380</ele>
        <time>2011-12-22T09:34:26Z</time>
      </trkpt>
      <trkpt lat="45.82807" lon="4.82804">
        <ele>381</ele>
        <time>2011-12-22T09:34:32Z</time>
      </trkpt>
      <trkpt lat="45.82808" lon="4.82799">
        <ele>381</ele>
        <time>2011-12-22T09:34:39Z</time>
      </trkpt>
      <trkpt lat="45.82807" lon="4.82795">
        <ele>382</ele>
        <time>2011-12-22T09:34:47Z</time>
      </trkpt>
      <trkpt lat="45.82807" lon="4.82787">
        <ele>383</ele>
        <time>2011-12-22T09:34:52Z</time>
      </trkpt>
      <trkpt lat="45.82807" lon="4.82784">
        <ele>384</ele>
        <time>2011-12-22T09:34:56Z</time>
      </trkpt>
      <trkpt lat="45.82807" lon="4.82783">
        <ele>384</ele>
        <time>2011-12-22T09:34:57Z</time>
      </trkpt>
      <trkpt lat="45.82806" lon="4.82779">
        <ele>384</ele>
        <time>2011-12-22T09:35:02Z</time>
      </trkpt>
      <trkpt lat="45.82803" lon="4.82777">
        <ele>384</ele>
        <time>2011-12-22T09:35:07Z</time>
      </trkpt>
      <trkpt lat="45.82802" lon="4.82776">
        <ele>385</ele>
        <time>2011-12-22T09:35:08Z</time>
      </trkpt>
      <trkpt lat="45.82801" lon="4.82776">
        <ele>385</ele>
        <time>2011-12-22T09:35:09Z</time>
      </trkpt>
      <trkpt lat="45.82801" lon="4.82771">
        <ele>385</ele>
        <time>2011-12-22T09:35:14Z</time>
      </trkpt>
      <trkpt lat="45.82801" lon="4.82764">
        <ele>386</ele>
        <time>2011-12-22T09:35:19Z</time>
      </trkpt>
      <trkpt lat="45.82801" lon="4.8276">
        <ele>386</ele>
        <time>2011-12-22T09:35:23Z</time>
      </trkpt>
      <trkpt lat="45.828" lon="4.82759">
        <ele>386</ele>
        <time>2011-12-22T09:35:25Z</time>
      </trkpt>
      <trkpt lat="45.82798" lon="4.82757">
        <ele>386</ele>
        <time>2011-12-22T09:35:30Z</time>
      </trkpt>
      <trkpt lat="45.82796" lon="4.8275">
        <ele>399</ele>
        <time>2011-12-22T09:35:36Z</time>
      </trkpt>
      <trkpt lat="45.82796" lon="4.82749">
        <ele>399</ele>
        <time>2011-12-22T09:35:37Z</time>
      </trkpt>
      <trkpt lat="45.82797" lon="4.82746">
        <ele>399</ele>
        <time>2011-12-22T09:35:40Z</time>
      </trkpt>
      <trkpt lat="45.82797" lon="4.82742">
        <ele>399</ele>
        <time>2011-12-22T09:35:45Z</time>
      </trkpt>
      <trkpt lat="45.82795" lon="4.82737">
        <ele>400</ele>
        <time>2011-12-22T09:35:51Z</time>
      </trkpt>
      <trkpt lat="45.82795" lon="4.82736">
        <ele>400</ele>
        <time>2011-12-22T09:35:52Z</time>
      </trkpt>
      <trkpt lat="45.82794" lon="4.82735">
        <ele>400</ele>
        <time>2011-12-22T09:35:54Z</time>
      </trkpt>
      <trkpt lat="45.82793" lon="4.82736">
        <ele>400</ele>
        <time>2011-12-22T09:35:55Z</time>
      </trkpt>
      <trkpt lat="45.82789" lon="4.82733">
        <ele>400</ele>
        <time>2011-12-22T09:35:59Z</time>
      </trkpt>
      <trkpt lat="45.82789" lon="4.82731">
        <ele>400</ele>
        <time>2011-12-22T09:36:00Z</time>
      </trkpt>
      <trkpt lat="45.82788" lon="4.82729">
        <ele>400</ele>
        <time>2011-12-22T09:36:02Z</time>
      </trkpt>
      <trkpt lat="45.82783" lon="4.82718">
        <ele>401</ele>
        <time>2011-12-22T09:36:16Z</time>
      </trkpt>
      <trkpt lat="45.82785" lon="4.82714">
        <ele>401</ele>
        <time>2011-12-22T09:36:23Z</time>
      </trkpt>
      <trkpt lat="45.82786" lon="4.82714">
        <ele>401</ele>
        <time>2011-12-22T09:36:25Z</time>
      </trkpt>
      <trkpt lat="45.82792" lon="4.82712">
        <ele>402</ele>
        <time>2011-12-22T09:36:32Z</time>
      </trkpt>
      <trkpt lat="45.82798" lon="4.82705">
        <ele>403</ele>
        <time>2011-12-22T09:36:39Z</time>
      </trkpt>
      <trkpt lat="45.82799" lon="4.82704">
        <ele>403</ele>
        <time>2011-12-22T09:36:41Z</time>
      </trkpt>
      <trkpt lat="45.82801" lon="4.827">
        <ele>403</ele>
        <time>2011-12-22T09:36:44Z</time>
      </trkpt>
      <trkpt lat="45.82801" lon="4.82699">
        <ele>403</ele>
        <time>2011-12-22T09:36:45Z</time>
      </trkpt>
      <trkpt lat="45.82801" lon="4.82699">
        <ele>403</ele>
        <time>2011-12-22T09:36:46Z</time>
      </trkpt>
      <trkpt lat="45.82801" lon="4.82697">
        <ele>404</ele>
        <time>2011-12-22T09:36:47Z</time>
      </trkpt>
      <trkpt lat="45.82801" lon="4.82694">
        <ele>404</ele>
        <time>2011-12-22T09:36:49Z</time>
      </trkpt>
      <trkpt lat="45.82803" lon="4.82689">
        <ele>405</ele>
        <time>2011-12-22T09:36:53Z</time>
      </trkpt>
      <trkpt lat="45.82803" lon="4.82686">
        <ele>405</ele>
        <time>2011-12-22T09:36:55Z</time>
      </trkpt>
      <trkpt lat="45.82805" lon="4.82678">
        <ele>406</ele>
        <time>2011-12-22T09:37:01Z</time>
      </trkpt>
      <trkpt lat="45.82807" lon="4.82676">
        <ele>406</ele>
        <time>2011-12-22T09:37:04Z</time>
      </trkpt>
      <trkpt lat="45.8281" lon="4.82674">
        <ele>407</ele>
        <time>2011-12-22T09:37:07Z</time>
      </trkpt>
      <trkpt lat="45.82811" lon="4.82674">
        <ele>407</ele>
        <time>2011-12-22T09:37:08Z</time>
      </trkpt>
      <trkpt lat="45.82812" lon="4.82672">
        <ele>407</ele>
        <time>2011-12-22T09:37:09Z</time>
      </trkpt>
      <trkpt lat="45.82815" lon="4.82667">
        <ele>408</ele>
        <time>2011-12-22T09:37:13Z</time>
      </trkpt>
      <trkpt lat="45.82822" lon="4.82661">
        <ele>415</ele>
        <time>2011-12-22T09:37:18Z</time>
      </trkpt>
      <trkpt lat="45.82825" lon="4.8266">
        <ele>415</ele>
        <time>2011-12-22T09:37:19Z</time>
      </trkpt>
      <trkpt lat="45.82837" lon="4.82649">
        <ele>416</ele>
        <time>2011-12-22T09:37:27Z</time>
      </trkpt>
      <trkpt lat="45.82838" lon="4.82648">
        <ele>416</ele>
        <time>2011-12-22T09:37:28Z</time>
      </trkpt>
      <trkpt lat="45.82849" lon="4.82641">
        <ele>417</ele>
        <time>2011-12-22T09:37:35Z</time>
      </trkpt>
      <trkpt lat="45.82855" lon="4.82634">
        <ele>418</ele>
        <time>2011-12-22T09:37:40Z</time>
      </trkpt>
      <trkpt lat="45.82858" lon="4.8263">
        <ele>418</ele>
        <time>2011-12-22T09:37:43Z</time>
      </trkpt>
      <trkpt lat="45.82868" lon="4.82622">
        <ele>418</ele>
        <time>2011-12-22T09:37:51Z</time>
      </trkpt>
      <trkpt lat="45.82871" lon="4.82619">
        <ele>418</ele>
        <time>2011-12-22T09:37:53Z</time>
      </trkpt>
      <trkpt lat="45.82875" lon="4.82616">
        <ele>419</ele>
        <time>2011-12-22T09:37:56Z</time>
      </trkpt>
      <trkpt lat="45.82876" lon="4.82613">
        <ele>419</ele>
        <time>2011-12-22T09:37:58Z</time>
      </trkpt>
      <trkpt lat="45.82879" lon="4.82611">
        <ele>419</ele>
        <time>2011-12-22T09:38:00Z</time>
      </trkpt>
      <trkpt lat="45.82884" lon="4.82607">
        <ele>419</ele>
        <time>2011-12-22T09:38:04Z</time>
      </trkpt>
      <trkpt lat="45.82887" lon="4.82603">
        <ele>419</ele>
        <time>2011-12-22T09:38:07Z</time>
      </trkpt>
      <trkpt lat="45.8289" lon="4.82599">
        <ele>420</ele>
        <time>2011-12-22T09:38:10Z</time>
      </trkpt>
      <trkpt lat="45.82891" lon="4.82599">
        <ele>420</ele>
        <time>2011-12-22T09:38:11Z</time>
      </trkpt>
      <trkpt lat="45.82896" lon="4.82598">
        <ele>420</ele>
        <time>2011-12-22T09:38:15Z</time>
      </trkpt>
      <trkpt lat="45.82902" lon="4.82593">
        <ele>421</ele>
        <time>2011-12-22T09:38:19Z</time>
      </trkpt>
      <trkpt lat="45.82904" lon="4.8259">
        <ele>421</ele>
        <time>2011-12-22T09:38:21Z</time>
      </trkpt>
      <trkpt lat="45.82908" lon="4.82588">
        <ele>421</ele>
        <time>2011-12-22T09:38:23Z</time>
      </trkpt>
      <trkpt lat="45.82913" lon="4.82586">
        <ele>422</ele>
        <time>2011-12-22T09:38:26Z</time>
      </trkpt>
      <trkpt lat="45.8292" lon="4.82582">
        <ele>423</ele>
        <time>2011-12-22T09:38:30Z</time>
      </trkpt>
      <trkpt lat="45.82922" lon="4.8258">
        <ele>422</ele>
        <time>2011-12-22T09:38:31Z</time>
      </trkpt>
      <trkpt lat="45.82923" lon="4.82579">
        <ele>422</ele>
        <time>2011-12-22T09:38:32Z</time>
      </trkpt>
      <trkpt lat="45.82933" lon="4.8257">
        <ele>421</ele>
        <time>2011-12-22T09:38:38Z</time>
      </trkpt>
      <trkpt lat="45.82935" lon="4.82569">
        <ele>421</ele>
        <time>2011-12-22T09:38:39Z</time>
      </trkpt>
      <trkpt lat="45.82938" lon="4.82566">
        <ele>421</ele>
        <time>2011-12-22T09:38:41Z</time>
      </trkpt>
      <trkpt lat="45.82942" lon="4.82564">
        <ele>421</ele>
        <time>2011-12-22T09:38:43Z</time>
      </trkpt>
      <trkpt lat="45.82949" lon="4.82555">
        <ele>420</ele>
        <time>2011-12-22T09:38:49Z</time>
      </trkpt>
      <trkpt lat="45.82954" lon="4.82551">
        <ele>420</ele>
        <time>2011-12-22T09:38:52Z</time>
      </trkpt>
      <trkpt lat="45.82959" lon="4.82547">
        <ele>420</ele>
        <time>2011-12-22T09:38:55Z</time>
      </trkpt>
      <trkpt lat="45.8296" lon="4.82546">
        <ele>420</ele>
        <time>2011-12-22T09:38:56Z</time>
      </trkpt>
      <trkpt lat="45.82961" lon="4.82543">
        <ele>420</ele>
        <time>2011-12-22T09:38:59Z</time>
      </trkpt>
      <trkpt lat="45.82962" lon="4.82541">
        <ele>420</ele>
        <time>2011-12-22T09:39:01Z</time>
      </trkpt>
      <trkpt lat="45.82966" lon="4.82534">
        <ele>420</ele>
        <time>2011-12-22T09:39:11Z</time>
      </trkpt>
      <trkpt lat="45.82977" lon="4.82527">
        <ele>420</ele>
        <time>2011-12-22T09:39:17Z</time>
      </trkpt>
      <trkpt lat="45.82982" lon="4.8252">
        <ele>420</ele>
        <time>2011-12-22T09:39:22Z</time>
      </trkpt>
      <trkpt lat="45.82983" lon="4.82518">
        <ele>420</ele>
        <time>2011-12-22T09:39:23Z</time>
      </trkpt>
      <trkpt lat="45.82985" lon="4.82513">
        <ele>421</ele>
        <time>2011-12-22T09:39:27Z</time>
      </trkpt>
      <trkpt lat="45.82985" lon="4.82511">
        <ele>421</ele>
        <time>2011-12-22T09:39:28Z</time>
      </trkpt>
      <trkpt lat="45.82986" lon="4.82508">
        <ele>421</ele>
        <time>2011-12-22T09:39:31Z</time>
      </trkpt>
      <trkpt lat="45.82987" lon="4.825">
        <ele>424</ele>
        <time>2011-12-22T09:39:35Z</time>
      </trkpt>
      <trkpt lat="45.82987" lon="4.82498">
        <ele>424</ele>
        <time>2011-12-22T09:39:36Z</time>
      </trkpt>
      <trkpt lat="45.82986" lon="4.82492">
        <ele>424</ele>
        <time>2011-12-22T09:39:38Z</time>
      </trkpt>
      <trkpt lat="45.82987" lon="4.82485">
        <ele>425</ele>
        <time>2011-12-22T09:39:41Z</time>
      </trkpt>
      <trkpt lat="45.82985" lon="4.82475">
        <ele>425</ele>
        <time>2011-12-22T09:39:44Z</time>
      </trkpt>
      <trkpt lat="45.82983" lon="4.82472">
        <ele>426</ele>
        <time>2011-12-22T09:39:45Z</time>
      </trkpt>
      <trkpt lat="45.82981" lon="4.82468">
        <ele>426</ele>
        <time>2011-12-22T09:39:46Z</time>
      </trkpt>
      <trkpt lat="45.82981" lon="4.82462">
        <ele>426</ele>
        <time>2011-12-22T09:39:50Z</time>
      </trkpt>
      <trkpt lat="45.82981" lon="4.82457">
        <ele>426</ele>
        <time>2011-12-22T09:39:53Z</time>
      </trkpt>
      <trkpt lat="45.8298" lon="4.82454">
        <ele>426</ele>
        <time>2011-12-22T09:39:55Z</time>
      </trkpt>
      <trkpt lat="45.82979" lon="4.82453">
        <ele>426</ele>
        <time>2011-12-22T09:39:56Z</time>
      </trkpt>
      <trkpt lat="45.82978" lon="4.82452">
        <ele>427</ele>
        <time>2011-12-22T09:39:58Z</time>
      </trkpt>
      <trkpt lat="45.82975" lon="4.82451">
        <ele>427</ele>
        <time>2011-12-22T09:40:01Z</time>
      </trkpt>
      <trkpt lat="45.82972" lon="4.82451">
        <ele>427</ele>
        <time>2011-12-22T09:40:04Z</time>
      </trkpt>
      <trkpt lat="45.82969" lon="4.8245">
        <ele>427</ele>
        <time>2011-12-22T09:40:06Z</time>
      </trkpt>
      <trkpt lat="45.82966" lon="4.82448">
        <ele>427</ele>
        <time>2011-12-22T09:40:10Z</time>
      </trkpt>
      <trkpt lat="45.82964" lon="4.82446">
        <ele>427</ele>
        <time>2011-12-22T09:40:12Z</time>
      </trkpt>
      <trkpt lat="45.82962" lon="4.82445">
        <ele>428</ele>
        <time>2011-12-22T09:40:19Z</time>
      </trkpt>
      <trkpt lat="45.82956" lon="4.82439">
        <ele>428</ele>
        <time>2011-12-22T09:40:23Z</time>
      </trkpt>
      <trkpt lat="45.82955" lon="4.82438">
        <ele>428</ele>
        <time>2011-12-22T09:40:24Z</time>
      </trkpt>
      <trkpt lat="45.82947" lon="4.82424">
        <ele>429</ele>
        <time>2011-12-22T09:40:30Z</time>
      </trkpt>
      <trkpt lat="45.82946" lon="4.82418">
        <ele>430</ele>
        <time>2011-12-22T09:40:32Z</time>
      </trkpt>
      <trkpt lat="45.82944" lon="4.82404">
        <ele>430</ele>
        <time>2011-12-22T09:40:37Z</time>
      </trkpt>
      <trkpt lat="45.82943" lon="4.82392">
        <ele>430</ele>
        <time>2011-12-22T09:40:41Z</time>
      </trkpt>
      <trkpt lat="45.82942" lon="4.82388">
        <ele>430</ele>
        <time>2011-12-22T09:40:42Z</time>
      </trkpt>
      <trkpt lat="45.82939" lon="4.82377">
        <ele>430</ele>
        <time>2011-12-22T09:40:46Z</time>
      </trkpt>
      <trkpt lat="45.82936" lon="4.82367">
        <ele>430</ele>
        <time>2011-12-22T09:40:50Z</time>
      </trkpt>
      <trkpt lat="45.82933" lon="4.82359">
        <ele>430</ele>
        <time>2011-12-22T09:40:53Z</time>
      </trkpt>
      <trkpt lat="45.82928" lon="4.82344">
        <ele>432</ele>
        <time>2011-12-22T09:41:00Z</time>
      </trkpt>
      <trkpt lat="45.82921" lon="4.82329">
        <ele>432</ele>
        <time>2011-12-22T09:41:06Z</time>
      </trkpt>
      <trkpt lat="45.82917" lon="4.82321">
        <ele>430</ele>
        <time>2011-12-22T09:41:10Z</time>
      </trkpt>
      <trkpt lat="45.82916" lon="4.82319">
        <ele>434</ele>
        <time>2011-12-22T09:41:11Z</time>
      </trkpt>
      <trkpt lat="45.82907" lon="4.82317">
        <ele>435</ele>
        <time>2011-12-22T09:41:16Z</time>
      </trkpt>
      <trkpt lat="45.82899" lon="4.82316">
        <ele>435</ele>
        <time>2011-12-22T09:41:22Z</time>
      </trkpt>
      <trkpt lat="45.82898" lon="4.82316">
        <ele>435</ele>
        <time>2011-12-22T09:41:23Z</time>
      </trkpt>
      <trkpt lat="45.8289" lon="4.82324">
        <ele>435</ele>
        <time>2011-12-22T09:41:29Z</time>
      </trkpt>
      <trkpt lat="45.82885" lon="4.82334">
        <ele>437</ele>
        <time>2011-12-22T09:41:35Z</time>
      </trkpt>
      <trkpt lat="45.82885" lon="4.82339">
        <ele>437</ele>
        <time>2011-12-22T09:41:41Z</time>
      </trkpt>
      <trkpt lat="45.8288" lon="4.82341">
        <ele>437</ele>
        <time>2011-12-22T09:41:46Z</time>
      </trkpt>
      <trkpt lat="45.82875" lon="4.82342">
        <ele>437</ele>
        <time>2011-12-22T09:41:50Z</time>
      </trkpt>
      <trkpt lat="45.82874" lon="4.82344">
        <ele>437</ele>
        <time>2011-12-22T09:41:52Z</time>
      </trkpt>
      <trkpt lat="45.82872" lon="4.82348">
        <ele>437</ele>
        <time>2011-12-22T09:41:55Z</time>
      </trkpt>
      <trkpt lat="45.82871" lon="4.82351">
        <ele>437</ele>
        <time>2011-12-22T09:41:57Z</time>
      </trkpt>
      <trkpt lat="45.82871" lon="4.82352">
        <ele>437</ele>
        <time>2011-12-22T09:41:58Z</time>
      </trkpt>
      <trkpt lat="45.82868" lon="4.82358">
        <ele>437</ele>
        <time>2011-12-22T09:42:03Z</time>
      </trkpt>
      <trkpt lat="45.82867" lon="4.8236">
        <ele>437</ele>
        <time>2011-12-22T09:42:05Z</time>
      </trkpt>
      <trkpt lat="45.82865" lon="4.82361">
        <ele>437</ele>
        <time>2011-12-22T09:42:07Z</time>
      </trkpt>
      <trkpt lat="45.82864" lon="4.82363">
        <ele>437</ele>
        <time>2011-12-22T09:42:09Z</time>
      </trkpt>
      <trkpt lat="45.82862" lon="4.82368">
        <ele>437</ele>
        <time>2011-12-22T09:42:12Z</time>
      </trkpt>
      <trkpt lat="45.82862" lon="4.82369">
        <ele>437</ele>
        <time>2011-12-22T09:42:13Z</time>
      </trkpt>
      <trkpt lat="45.82861" lon="4.82371">
        <ele>437</ele>
        <time>2011-12-22T09:42:16Z</time>
      </trkpt>
      <trkpt lat="45.82858" lon="4.82369">
        <ele>438</ele>
        <time>2011-12-22T09:42:21Z</time>
      </trkpt>
      <trkpt lat="45.82852" lon="4.82365">
        <ele>438</ele>
        <time>2011-12-22T09:42:28Z</time>
      </trkpt>
      <trkpt lat="45.82851" lon="4.82367">
        <ele>438</ele>
        <time>2011-12-22T09:42:32Z</time>
      </trkpt>
      <trkpt lat="45.82849" lon="4.8237">
        <ele>438</ele>
        <time>2011-12-22T09:42:35Z</time>
      </trkpt>
      <trkpt lat="45.8285" lon="4.82372">
        <ele>438</ele>
        <time>2011-12-22T09:42:36Z</time>
      </trkpt>
      <trkpt lat="45.8285" lon="4.82375">
        <ele>438</ele>
        <time>2011-12-22T09:42:38Z</time>
      </trkpt>
      <trkpt lat="45.82852" lon="4.82385">
        <ele>438</ele>
        <time>2011-12-22T09:42:43Z</time>
      </trkpt>
      <trkpt lat="45.82856" lon="4.82396">
        <ele>437</ele>
        <time>2011-12-22T09:42:48Z</time>
      </trkpt>
      <trkpt lat="45.82857" lon="4.82398">
        <ele>437</ele>
        <time>2011-12-22T09:42:49Z</time>
      </trkpt>
      <trkpt lat="45.8286" lon="4.8241">
        <ele>437</ele>
        <time>2011-12-22T09:42:55Z</time>
      </trkpt>
      <trkpt lat="45.82863" lon="4.82417">
        <ele>436</ele>
        <time>2011-12-22T09:43:01Z</time>
      </trkpt>
      <trkpt lat="45.82865" lon="4.82418">
        <ele>436</ele>
        <time>2011-12-22T09:43:02Z</time>
      </trkpt>
      <trkpt lat="45.82867" lon="4.8242">
        <ele>436</ele>
        <time>2011-12-22T09:43:05Z</time>
      </trkpt>
      <trkpt lat="45.82867" lon="4.82419">
        <ele>436</ele>
        <time>2011-12-22T09:43:06Z</time>
      </trkpt>
      <trkpt lat="45.82863" lon="4.82413">
        <ele>437</ele>
        <time>2011-12-22T09:43:11Z</time>
      </trkpt>
      <trkpt lat="45.82862" lon="4.82412">
        <ele>437</ele>
        <time>2011-12-22T09:43:12Z</time>
      </trkpt>
      <trkpt lat="45.82859" lon="4.824">
        <ele>437</ele>
        <time>2011-12-22T09:43:18Z</time>
      </trkpt>
      <trkpt lat="45.82858" lon="4.82397">
        <ele>437</ele>
        <time>2011-12-22T09:43:19Z</time>
      </trkpt>
      <trkpt lat="45.82853" lon="4.82383">
        <ele>438</ele>
        <time>2011-12-22T09:43:25Z</time>
      </trkpt>
      <trkpt lat="45.82851" lon="4.82376">
        <ele>438</ele>
        <time>2011-12-22T09:43:28Z</time>
      </trkpt>
      <trkpt lat="45.8285" lon="4.8237">
        <ele>438</ele>
        <time>2011-12-22T09:43:31Z</time>
      </trkpt>
      <trkpt lat="45.82852" lon="4.82362">
        <ele>438</ele>
        <time>2011-12-22T09:43:37Z</time>
      </trkpt>
      <trkpt lat="45.82854" lon="4.82355">
        <ele>438</ele>
        <time>2011-12-22T09:43:44Z</time>
      </trkpt>
      <trkpt lat="45.82853" lon="4.82358">
        <ele>438</ele>
        <time>2011-12-22T09:43:46Z</time>
      </trkpt>
      <trkpt lat="45.82851" lon="4.8237">
        <ele>438</ele>
        <time>2011-12-22T09:43:50Z</time>
      </trkpt>
      <trkpt lat="45.82847" lon="4.82383">
        <ele>438</ele>
        <time>2011-12-22T09:43:56Z</time>
      </trkpt>
      <trkpt lat="45.82843" lon="4.82387">
        <ele>438</ele>
        <time>2011-12-22T09:44:01Z</time>
      </trkpt>
      <trkpt lat="45.82841" lon="4.8239">
        <ele>438</ele>
        <time>2011-12-22T09:44:03Z</time>
      </trkpt>
      <trkpt lat="45.82839" lon="4.82391">
        <ele>438</ele>
        <time>2011-12-22T09:44:06Z</time>
      </trkpt>
      <trkpt lat="45.82838" lon="4.82391">
        <ele>438</ele>
        <time>2011-12-22T09:44:07Z</time>
      </trkpt>
      <trkpt lat="45.82834" lon="4.82391">
        <ele>438</ele>
        <time>2011-12-22T09:44:11Z</time>
      </trkpt>
      <trkpt lat="45.82833" lon="4.82391">
        <ele>438</ele>
        <time>2011-12-22T09:44:12Z</time>
      </trkpt>
      <trkpt lat="45.82831" lon="4.82392">
        <ele>441</ele>
        <time>2011-12-22T09:44:16Z</time>
      </trkpt>
      <trkpt lat="45.82832" lon="4.82392">
        <ele>440</ele>
        <time>2011-12-22T09:44:21Z</time>
      </trkpt>
      <trkpt lat="45.82835" lon="4.82391">
        <ele>438</ele>
        <time>2011-12-22T09:44:24Z</time>
      </trkpt>
      <trkpt lat="45.82842" lon="4.82386">
        <ele>438</ele>
        <time>2011-12-22T09:44:30Z</time>
      </trkpt>
      <trkpt lat="45.82847" lon="4.82381">
        <ele>438</ele>
        <time>2011-12-22T09:44:35Z</time>
      </trkpt>
      <trkpt lat="45.82851" lon="4.82373">
        <ele>438</ele>
        <time>2011-12-22T09:44:40Z</time>
      </trkpt>
      <trkpt lat="45.82852" lon="4.8237">
        <ele>438</ele>
        <time>2011-12-22T09:44:41Z</time>
      </trkpt>
      <trkpt lat="45.82855" lon="4.82359">
        <ele>438</ele>
        <time>2011-12-22T09:44:45Z</time>
      </trkpt>
      <trkpt lat="45.82855" lon="4.82357">
        <ele>438</ele>
        <time>2011-12-22T09:44:46Z</time>
      </trkpt>
      <trkpt lat="45.8286" lon="4.82348">
        <ele>438</ele>
        <time>2011-12-22T09:44:51Z</time>
      </trkpt>
      <trkpt lat="45.82864" lon="4.82343">
        <ele>438</ele>
        <time>2011-12-22T09:44:55Z</time>
      </trkpt>
      <trkpt lat="45.82864" lon="4.82342">
        <ele>438</ele>
        <time>2011-12-22T09:44:57Z</time>
      </trkpt>
      <trkpt lat="45.82866" lon="4.82341">
        <ele>438</ele>
        <time>2011-12-22T09:45:02Z</time>
      </trkpt>
      <trkpt lat="45.82868" lon="4.82341">
        <ele>438</ele>
        <time>2011-12-22T09:45:03Z</time>
      </trkpt>
      <trkpt lat="45.82869" lon="4.82341">
        <ele>438</ele>
        <time>2011-12-22T09:45:04Z</time>
      </trkpt>
      <trkpt lat="45.8287" lon="4.82342">
        <ele>437</ele>
        <time>2011-12-22T09:45:06Z</time>
      </trkpt>
      <trkpt lat="45.8287" lon="4.82342">
        <ele>437</ele>
        <time>2011-12-22T09:45:07Z</time>
      </trkpt>
      <trkpt lat="45.82871" lon="4.82342">
        <ele>437</ele>
        <time>2011-12-22T09:45:08Z</time>
      </trkpt>
      <trkpt lat="45.82874" lon="4.82343">
        <ele>437</ele>
        <time>2011-12-22T09:45:11Z</time>
      </trkpt>
      <trkpt lat="45.82877" lon="4.82341">
        <ele>437</ele>
        <time>2011-12-22T09:45:13Z</time>
      </trkpt>
      <trkpt lat="45.82883" lon="4.82338">
        <ele>437</ele>
        <time>2011-12-22T09:45:17Z</time>
      </trkpt>
      <trkpt lat="45.82885" lon="4.82337">
        <ele>437</ele>
        <time>2011-12-22T09:45:19Z</time>
      </trkpt>
      <trkpt lat="45.82886" lon="4.82335">
        <ele>437</ele>
        <time>2011-12-22T09:45:20Z</time>
      </trkpt>
      <trkpt lat="45.82885" lon="4.82332">
        <ele>436</ele>
        <time>2011-12-22T09:45:22Z</time>
      </trkpt>
      <trkpt lat="45.82884" lon="4.82325">
        <ele>436</ele>
        <time>2011-12-22T09:45:27Z</time>
      </trkpt>
      <trkpt lat="45.82883" lon="4.82324">
        <ele>436</ele>
        <time>2011-12-22T09:45:28Z</time>
      </trkpt>
      <trkpt lat="45.82881" lon="4.82316">
        <ele>436</ele>
        <time>2011-12-22T09:45:33Z</time>
      </trkpt>
      <trkpt lat="45.82879" lon="4.82313">
        <ele>436</ele>
        <time>2011-12-22T09:45:37Z</time>
      </trkpt>
      <trkpt lat="45.82878" lon="4.8231">
        <ele>436</ele>
        <time>2011-12-22T09:45:39Z</time>
      </trkpt>
      <trkpt lat="45.82877" lon="4.82309">
        <ele>436</ele>
        <time>2011-12-22T09:45:40Z</time>
      </trkpt>
      <trkpt lat="45.82874" lon="4.82306">
        <ele>436</ele>
        <time>2011-12-22T09:45:45Z</time>
      </trkpt>
      <trkpt lat="45.82874" lon="4.82306">
        <ele>436</ele>
        <time>2011-12-22T09:45:46Z</time>
      </trkpt>
      <trkpt lat="45.82873" lon="4.82307">
        <ele>436</ele>
        <time>2011-12-22T09:45:47Z</time>
      </trkpt>
      <trkpt lat="45.82872" lon="4.82308">
        <ele>436</ele>
        <time>2011-12-22T09:45:49Z</time>
      </trkpt>
      <trkpt lat="45.82867" lon="4.82308">
        <ele>436</ele>
        <time>2011-12-22T09:45:54Z</time>
      </trkpt>
      <trkpt lat="45.82864" lon="4.82309">
        <ele>437</ele>
        <time>2011-12-22T09:45:59Z</time>
      </trkpt>
      <trkpt lat="45.82863" lon="4.8231">
        <ele>437</ele>
        <time>2011-12-22T09:46:00Z</time>
      </trkpt>
      <trkpt lat="45.8286" lon="4.8231">
        <ele>437</ele>
        <time>2011-12-22T09:46:03Z</time>
      </trkpt>
      <trkpt lat="45.82854" lon="4.82313">
        <ele>437</ele>
        <time>2011-12-22T09:46:08Z</time>
      </trkpt>
      <trkpt lat="45.82854" lon="4.82314">
        <ele>437</ele>
        <time>2011-12-22T09:46:09Z</time>
      </trkpt>
      <trkpt lat="45.8285" lon="4.82316">
        <ele>438</ele>
        <time>2011-12-22T09:46:12Z</time>
      </trkpt>
      <trkpt lat="45.82847" lon="4.82315">
        <ele>438</ele>
        <time>2011-12-22T09:46:15Z</time>
      </trkpt>
      <trkpt lat="45.82846" lon="4.82315">
        <ele>438</ele>
        <time>2011-12-22T09:46:16Z</time>
      </trkpt>
      <trkpt lat="45.82841" lon="4.82305">
        <ele>438</ele>
        <time>2011-12-22T09:46:22Z</time>
      </trkpt>
      <trkpt lat="45.82839" lon="4.82296">
        <ele>437</ele>
        <time>2011-12-22T09:46:28Z</time>
      </trkpt>
      <trkpt lat="45.82838" lon="4.82291">
        <ele>437</ele>
        <time>2011-12-22T09:46:31Z</time>
      </trkpt>
      <trkpt lat="45.82839" lon="4.82289">
        <ele>437</ele>
        <time>2011-12-22T09:46:33Z</time>
      </trkpt>
      <trkpt lat="45.8284" lon="4.82279">
        <ele>437</ele>
        <time>2011-12-22T09:46:38Z</time>
      </trkpt>
      <trkpt lat="45.8284" lon="4.82271">
        <ele>438</ele>
        <time>2011-12-22T09:46:44Z</time>
      </trkpt>
      <trkpt lat="45.82838" lon="4.82267">
        <ele>438</ele>
        <time>2011-12-22T09:46:47Z</time>
      </trkpt>
      <trkpt lat="45.82836" lon="4.82264">
        <ele>438</ele>
        <time>2011-12-22T09:46:49Z</time>
      </trkpt>
      <trkpt lat="45.82837" lon="4.82263">
        <ele>438</ele>
        <time>2011-12-22T09:46:54Z</time>
      </trkpt>
      <trkpt lat="45.82838" lon="4.82265">
        <ele>438</ele>
        <time>2011-12-22T09:46:55Z</time>
      </trkpt>
      <trkpt lat="45.82839" lon="4.82271">
        <ele>438</ele>
        <time>2011-12-22T09:46:59Z</time>
      </trkpt>
      <trkpt lat="45.82838" lon="4.8228">
        <ele>437</ele>
        <time>2011-12-22T09:47:04Z</time>
      </trkpt>
      <trkpt lat="45.82837" lon="4.82283">
        <ele>437</ele>
        <time>2011-12-22T09:47:05Z</time>
      </trkpt>
      <trkpt lat="45.82837" lon="4.82284">
        <ele>437</ele>
        <time>2011-12-22T09:47:06Z</time>
      </trkpt>
      <trkpt lat="45.82837" lon="4.82286">
        <ele>437</ele>
        <time>2011-12-22T09:47:07Z</time>
      </trkpt>
      <trkpt lat="45.82836" lon="4.82291">
        <ele>437</ele>
        <time>2011-12-22T09:47:10Z</time>
      </trkpt>
      <trkpt lat="45.82838" lon="4.82296">
        <ele>437</ele>
        <time>2011-12-22T09:47:13Z</time>
      </trkpt>
      <trkpt lat="45.82839" lon="4.82298">
        <ele>437</ele>
        <time>2011-12-22T09:47:14Z</time>
      </trkpt>
      <trkpt lat="45.82839" lon="4.82301">
        <ele>438</ele>
        <time>2011-12-22T09:47:16Z</time>
      </trkpt>
      <trkpt lat="45.8284" lon="4.82307">
        <ele>438</ele>
        <time>2011-12-22T09:47:19Z</time>
      </trkpt>
      <trkpt lat="45.8284" lon="4.82308">
        <ele>438</ele>
        <time>2011-12-22T09:47:20Z</time>
      </trkpt>
      <trkpt lat="45.82841" lon="4.8231">
        <ele>438</ele>
        <time>2011-12-22T09:47:21Z</time>
      </trkpt>
      <trkpt lat="45.82844" lon="4.82315">
        <ele>438</ele>
        <time>2011-12-22T09:47:26Z</time>
      </trkpt>
      <trkpt lat="45.82845" lon="4.82315">
        <ele>438</ele>
        <time>2011-12-22T09:47:27Z</time>
      </trkpt>
      <trkpt lat="45.82855" lon="4.8231">
        <ele>437</ele>
        <time>2011-12-22T09:47:32Z</time>
      </trkpt>
      <trkpt lat="45.82858" lon="4.82309">
        <ele>437</ele>
        <time>2011-12-22T09:47:34Z</time>
      </trkpt>
      <trkpt lat="45.82862" lon="4.82311">
        <ele>437</ele>
        <time>2011-12-22T09:47:37Z</time>
      </trkpt>
      <trkpt lat="45.82866" lon="4.82308">
        <ele>436</ele>
        <time>2011-12-22T09:47:41Z</time>
      </trkpt>
      <trkpt lat="45.82867" lon="4.82307">
        <ele>436</ele>
        <time>2011-12-22T09:47:42Z</time>
      </trkpt>
      <trkpt lat="45.82871" lon="4.82304">
        <ele>436</ele>
        <time>2011-12-22T09:47:45Z</time>
      </trkpt>
      <trkpt lat="45.82872" lon="4.82304">
        <ele>436</ele>
        <time>2011-12-22T09:47:46Z</time>
      </trkpt>
      <trkpt lat="45.82873" lon="4.82304">
        <ele>436</ele>
        <time>2011-12-22T09:47:47Z</time>
      </trkpt>
      <trkpt lat="45.82874" lon="4.82303">
        <ele>436</ele>
        <time>2011-12-22T09:47:48Z</time>
      </trkpt>
      <trkpt lat="45.82878" lon="4.82303">
        <ele>436</ele>
        <time>2011-12-22T09:47:52Z</time>
      </trkpt>
      <trkpt lat="45.82878" lon="4.82304">
        <ele>436</ele>
        <time>2011-12-22T09:47:57Z</time>
      </trkpt>
      <trkpt lat="45.82878" lon="4.82306">
        <ele>436</ele>
        <time>2011-12-22T09:47:59Z</time>
      </trkpt>
      <trkpt lat="45.82878" lon="4.82307">
        <ele>436</ele>
        <time>2011-12-22T09:48:02Z</time>
      </trkpt>
      <trkpt lat="45.82879" lon="4.82314">
        <ele>436</ele>
        <time>2011-12-22T09:48:09Z</time>
      </trkpt>
      <trkpt lat="45.82879" lon="4.82315">
        <ele>436</ele>
        <time>2011-12-22T09:48:10Z</time>
      </trkpt>
      <trkpt lat="45.82879" lon="4.82323">
        <ele>436</ele>
        <time>2011-12-22T09:48:14Z</time>
      </trkpt>
      <trkpt lat="45.82879" lon="4.82325">
        <ele>436</ele>
        <time>2011-12-22T09:48:15Z</time>
      </trkpt>
      <trkpt lat="45.82883" lon="4.82327">
        <ele>436</ele>
        <time>2011-12-22T09:48:19Z</time>
      </trkpt>
      <trkpt lat="45.82885" lon="4.82326">
        <ele>436</ele>
        <time>2011-12-22T09:48:20Z</time>
      </trkpt>
      <trkpt lat="45.82886" lon="4.82324">
        <ele>435</ele>
        <time>2011-12-22T09:48:21Z</time>
      </trkpt>
      <trkpt lat="45.82888" lon="4.82322">
        <ele>435</ele>
        <time>2011-12-22T09:48:22Z</time>
      </trkpt>
      <trkpt lat="45.8289" lon="4.8232">
        <ele>435</ele>
        <time>2011-12-22T09:48:23Z</time>
      </trkpt>
      <trkpt lat="45.82899" lon="4.82317">
        <ele>435</ele>
        <time>2011-12-22T09:48:28Z</time>
      </trkpt>
      <trkpt lat="45.82906" lon="4.82315">
        <ele>435</ele>
        <time>2011-12-22T09:48:33Z</time>
      </trkpt>
      <trkpt lat="45.82917" lon="4.82321">
        <ele>430</ele>
        <time>2011-12-22T09:48:38Z</time>
      </trkpt>
      <trkpt lat="45.82921" lon="4.82327">
        <ele>431</ele>
        <time>2011-12-22T09:48:40Z</time>
      </trkpt>
      <trkpt lat="45.82922" lon="4.8233">
        <ele>432</ele>
        <time>2011-12-22T09:48:41Z</time>
      </trkpt>
      <trkpt lat="45.82924" lon="4.82332">
        <ele>432</ele>
        <time>2011-12-22T09:48:42Z</time>
      </trkpt>
      <trkpt lat="45.82924" lon="4.82334">
        <ele>433</ele>
        <time>2011-12-22T09:48:43Z</time>
      </trkpt>
      <trkpt lat="45.82926" lon="4.82348">
        <ele>431</ele>
        <time>2011-12-22T09:48:48Z</time>
      </trkpt>
      <trkpt lat="45.82928" lon="4.82357">
        <ele>431</ele>
        <time>2011-12-22T09:48:51Z</time>
      </trkpt>
      <trkpt lat="45.82928" lon="4.82364">
        <ele>431</ele>
        <time>2011-12-22T09:48:53Z</time>
      </trkpt>
      <trkpt lat="45.82931" lon="4.82379">
        <ele>430</ele>
        <time>2011-12-22T09:48:58Z</time>
      </trkpt>
      <trkpt lat="45.82931" lon="4.82382">
        <ele>431</ele>
        <time>2011-12-22T09:48:59Z</time>
      </trkpt>
      <trkpt lat="45.82934" lon="4.82397">
        <ele>431</ele>
        <time>2011-12-22T09:49:03Z</time>
      </trkpt>
      <trkpt lat="45.82935" lon="4.82409">
        <ele>432</ele>
        <time>2011-12-22T09:49:07Z</time>
      </trkpt>
      <trkpt lat="45.82935" lon="4.82413">
        <ele>432</ele>
        <time>2011-12-22T09:49:08Z</time>
      </trkpt>
      <trkpt lat="45.82937" lon="4.82415">
        <ele>431</ele>
        <time>2011-12-22T09:49:09Z</time>
      </trkpt>
      <trkpt lat="45.8294" lon="4.82419">
        <ele>430</ele>
        <time>2011-12-22T09:49:11Z</time>
      </trkpt>
      <trkpt lat="45.82948" lon="4.8243">
        <ele>429</ele>
        <time>2011-12-22T09:49:15Z</time>
      </trkpt>
      <trkpt lat="45.82954" lon="4.82438">
        <ele>428</ele>
        <time>2011-12-22T09:49:19Z</time>
      </trkpt>
      <trkpt lat="45.82959" lon="4.82446">
        <ele>428</ele>
        <time>2011-12-22T09:49:25Z</time>
      </trkpt>
      <trkpt lat="45.8296" lon="4.82447">
        <ele>428</ele>
        <time>2011-12-22T09:49:27Z</time>
      </trkpt>
      <trkpt lat="45.82963" lon="4.82448">
        <ele>427</ele>
        <time>2011-12-22T09:49:29Z</time>
      </trkpt>
      <trkpt lat="45.82965" lon="4.82448">
        <ele>427</ele>
        <time>2011-12-22T09:49:30Z</time>
      </trkpt>
      <trkpt lat="45.82972" lon="4.82447">
        <ele>427</ele>
        <time>2011-12-22T09:49:36Z</time>
      </trkpt>
      <trkpt lat="45.82976" lon="4.82445">
        <ele>427</ele>
        <time>2011-12-22T09:49:41Z</time>
      </trkpt>
      <trkpt lat="45.82975" lon="4.82443">
        <ele>427</ele>
        <time>2011-12-22T09:49:42Z</time>
      </trkpt>
      <trkpt lat="45.82974" lon="4.82438">
        <ele>427</ele>
        <time>2011-12-22T09:49:45Z</time>
      </trkpt>
      <trkpt lat="45.82974" lon="4.82433">
        <ele>427</ele>
        <time>2011-12-22T09:49:47Z</time>
      </trkpt>
      <trkpt lat="45.82973" lon="4.82427">
        <ele>427</ele>
        <time>2011-12-22T09:49:50Z</time>
      </trkpt>
      <trkpt lat="45.82971" lon="4.82421">
        <ele>427</ele>
        <time>2011-12-22T09:49:52Z</time>
      </trkpt>
      <trkpt lat="45.82971" lon="4.82411">
        <ele>428</ele>
        <time>2011-12-22T09:49:55Z</time>
      </trkpt>
      <trkpt lat="45.8297" lon="4.82407">
        <ele>428</ele>
        <time>2011-12-22T09:49:56Z</time>
      </trkpt>
      <trkpt lat="45.82968" lon="4.82401">
        <ele>428</ele>
        <time>2011-12-22T09:49:58Z</time>
      </trkpt>
      <trkpt lat="45.82968" lon="4.82398">
        <ele>428</ele>
        <time>2011-12-22T09:49:59Z</time>
      </trkpt>
      <trkpt lat="45.82967" lon="4.82385">
        <ele>428</ele>
        <time>2011-12-22T09:50:03Z</time>
      </trkpt>
      <trkpt lat="45.82965" lon="4.82369">
        <ele>428</ele>
        <time>2011-12-22T09:50:08Z</time>
      </trkpt>
      <trkpt lat="45.82965" lon="4.82361">
        <ele>428</ele>
        <time>2011-12-22T09:50:10Z</time>
      </trkpt>
      <trkpt lat="45.82964" lon="4.82356">
        <ele>428</ele>
        <time>2011-12-22T09:50:11Z</time>
      </trkpt>
      <trkpt lat="45.82965" lon="4.82345">
        <ele>428</ele>
        <time>2011-12-22T09:50:14Z</time>
      </trkpt>
      <trkpt lat="45.8297" lon="4.82334">
        <ele>427</ele>
        <time>2011-12-22T09:50:19Z</time>
      </trkpt>
      <trkpt lat="45.82971" lon="4.82331">
        <ele>424</ele>
        <time>2011-12-22T09:50:20Z</time>
      </trkpt>
      <trkpt lat="45.82968" lon="4.8232">
        <ele>424</ele>
        <time>2011-12-22T09:50:24Z</time>
      </trkpt>
      <trkpt lat="45.82963" lon="4.82308">
        <ele>424</ele>
        <time>2011-12-22T09:50:28Z</time>
      </trkpt>
      <trkpt lat="45.8296" lon="4.82303">
        <ele>424</ele>
        <time>2011-12-22T09:50:30Z</time>
      </trkpt>
      <trkpt lat="45.82954" lon="4.82291">
        <ele>424</ele>
        <time>2011-12-22T09:50:34Z</time>
      </trkpt>
      <trkpt lat="45.82951" lon="4.82286">
        <ele>424</ele>
        <time>2011-12-22T09:50:36Z</time>
      </trkpt>
      <trkpt lat="45.82944" lon="4.82274">
        <ele>424</ele>
        <time>2011-12-22T09:50:40Z</time>
      </trkpt>
      <trkpt lat="45.8294" lon="4.82265">
        <ele>425</ele>
        <time>2011-12-22T09:50:44Z</time>
      </trkpt>
      <trkpt lat="45.82939" lon="4.82259">
        <ele>425</ele>
        <time>2011-12-22T09:50:46Z</time>
      </trkpt>
      <trkpt lat="45.82938" lon="4.82245">
        <ele>419</ele>
        <time>2011-12-22T09:50:51Z</time>
      </trkpt>
      <trkpt lat="45.82935" lon="4.8224">
        <ele>419</ele>
        <time>2011-12-22T09:50:53Z</time>
      </trkpt>
      <trkpt lat="45.82932" lon="4.82235">
        <ele>419</ele>
        <time>2011-12-22T09:50:55Z</time>
      </trkpt>
      <trkpt lat="45.8293" lon="4.82233">
        <ele>419</ele>
        <time>2011-12-22T09:50:56Z</time>
      </trkpt>
      <trkpt lat="45.82928" lon="4.8222">
        <ele>417</ele>
        <time>2011-12-22T09:51:00Z</time>
      </trkpt>
      <trkpt lat="45.82927" lon="4.82217">
        <ele>417</ele>
        <time>2011-12-22T09:51:01Z</time>
      </trkpt>
      <trkpt lat="45.82918" lon="4.82204">
        <ele>415</ele>
        <time>2011-12-22T09:51:06Z</time>
      </trkpt>
      <trkpt lat="45.82912" lon="4.82198">
        <ele>423</ele>
        <time>2011-12-22T09:51:09Z</time>
      </trkpt>
      <trkpt lat="45.82909" lon="4.82195">
        <ele>423</ele>
        <time>2011-12-22T09:51:11Z</time>
      </trkpt>
      <trkpt lat="45.829" lon="4.82184">
        <ele>422</ele>
        <time>2011-12-22T09:51:17Z</time>
      </trkpt>
      <trkpt lat="45.82897" lon="4.82182">
        <ele>422</ele>
        <time>2011-12-22T09:51:19Z</time>
      </trkpt>
      <trkpt lat="45.82895" lon="4.82181">
        <ele>422</ele>
        <time>2011-12-22T09:51:20Z</time>
      </trkpt>
      <trkpt lat="45.82892" lon="4.82179">
        <ele>423</ele>
        <time>2011-12-22T09:51:22Z</time>
      </trkpt>
      <trkpt lat="45.82889" lon="4.82176">
        <ele>423</ele>
        <time>2011-12-22T09:51:24Z</time>
      </trkpt>
      <trkpt lat="45.82883" lon="4.82171">
        <ele>424</ele>
        <time>2011-12-22T09:51:28Z</time>
      </trkpt>
      <trkpt lat="45.82882" lon="4.8217">
        <ele>424</ele>
        <time>2011-12-22T09:51:29Z</time>
      </trkpt>
      <trkpt lat="45.8288" lon="4.8217">
        <ele>424</ele>
        <time>2011-12-22T09:51:30Z</time>
      </trkpt>
      <trkpt lat="45.82875" lon="4.82167">
        <ele>425</ele>
        <time>2011-12-22T09:51:34Z</time>
      </trkpt>
      <trkpt lat="45.82868" lon="4.82165">
        <ele>418</ele>
        <time>2011-12-22T09:51:41Z</time>
      </trkpt>
      <trkpt lat="45.82866" lon="4.82166">
        <ele>419</ele>
        <time>2011-12-22T09:51:44Z</time>
      </trkpt>
      <trkpt lat="45.82864" lon="4.82168">
        <ele>426</ele>
        <time>2011-12-22T09:51:46Z</time>
      </trkpt>
      <trkpt lat="45.82863" lon="4.8217">
        <ele>426</ele>
        <time>2011-12-22T09:51:47Z</time>
      </trkpt>
      <trkpt lat="45.82856" lon="4.82173">
        <ele>427</ele>
        <time>2011-12-22T09:51:53Z</time>
      </trkpt>
      <trkpt lat="45.82852" lon="4.82174">
        <ele>428</ele>
        <time>2011-12-22T09:51:58Z</time>
      </trkpt>
      <trkpt lat="45.82849" lon="4.82175">
        <ele>428</ele>
        <time>2011-12-22T09:52:01Z</time>
      </trkpt>
      <trkpt lat="45.82847" lon="4.82177">
        <ele>428</ele>
        <time>2011-12-22T09:52:04Z</time>
      </trkpt>
      <trkpt lat="45.82845" lon="4.82178">
        <ele>428</ele>
        <time>2011-12-22T09:52:06Z</time>
      </trkpt>
      <trkpt lat="45.82845" lon="4.82178">
        <ele>428</ele>
        <time>2011-12-22T09:52:07Z</time>
      </trkpt>
      <trkpt lat="45.82844" lon="4.82179">
        <ele>428</ele>
        <time>2011-12-22T09:52:08Z</time>
      </trkpt>
      <trkpt lat="45.8284" lon="4.82184">
        <ele>428</ele>
        <time>2011-12-22T09:52:13Z</time>
      </trkpt>
      <trkpt lat="45.82839" lon="4.82185">
        <ele>428</ele>
        <time>2011-12-22T09:52:15Z</time>
      </trkpt>
      <trkpt lat="45.82837" lon="4.82188">
        <ele>429</ele>
        <time>2011-12-22T09:52:19Z</time>
      </trkpt>
      <trkpt lat="45.82833" lon="4.82191">
        <ele>436</ele>
        <time>2011-12-22T09:52:26Z</time>
      </trkpt>
      <trkpt lat="45.82829" lon="4.82191">
        <ele>436</ele>
        <time>2011-12-22T09:52:29Z</time>
      </trkpt>
      <trkpt lat="45.82827" lon="4.82191">
        <ele>436</ele>
        <time>2011-12-22T09:52:32Z</time>
      </trkpt>
      <trkpt lat="45.82825" lon="4.82189">
        <ele>436</ele>
        <time>2011-12-22T09:52:36Z</time>
      </trkpt>
      <trkpt lat="45.82822" lon="4.82189">
        <ele>436</ele>
        <time>2011-12-22T09:52:39Z</time>
      </trkpt>
      <trkpt lat="45.82819" lon="4.82191">
        <ele>437</ele>
        <time>2011-12-22T09:52:42Z</time>
      </trkpt>
      <trkpt lat="45.82817" lon="4.82192">
        <ele>437</ele>
        <time>2011-12-22T09:52:45Z</time>
      </trkpt>
      <trkpt lat="45.82816" lon="4.82191">
        <ele>437</ele>
        <time>2011-12-22T09:52:46Z</time>
      </trkpt>
      <trkpt lat="45.82814" lon="4.82189">
        <ele>437</ele>
        <time>2011-12-22T09:52:48Z</time>
      </trkpt>
      <trkpt lat="45.82813" lon="4.82189">
        <ele>437</ele>
        <time>2011-12-22T09:52:49Z</time>
      </trkpt>
      <trkpt lat="45.8281" lon="4.82186">
        <ele>437</ele>
        <time>2011-12-22T09:52:52Z</time>
      </trkpt>
      <trkpt lat="45.82808" lon="4.82187">
        <ele>437</ele>
        <time>2011-12-22T09:52:54Z</time>
      </trkpt>
      <trkpt lat="45.828" lon="4.82189">
        <ele>438</ele>
        <time>2011-12-22T09:53:02Z</time>
      </trkpt>
      <trkpt lat="45.82794" lon="4.82187">
        <ele>439</ele>
        <time>2011-12-22T09:53:08Z</time>
      </trkpt>
      <trkpt lat="45.82793" lon="4.82187">
        <ele>439</ele>
        <time>2011-12-22T09:53:09Z</time>
      </trkpt>
      <trkpt lat="45.82787" lon="4.82187">
        <ele>439</ele>
        <time>2011-12-22T09:53:14Z</time>
      </trkpt>
      <trkpt lat="45.82784" lon="4.82187">
        <ele>440</ele>
        <time>2011-12-22T09:53:16Z</time>
      </trkpt>
      <trkpt lat="45.82779" lon="4.82191">
        <ele>440</ele>
        <time>2011-12-22T09:53:20Z</time>
      </trkpt>
      <trkpt lat="45.82776" lon="4.82194">
        <ele>441</ele>
        <time>2011-12-22T09:53:23Z</time>
      </trkpt>
      <trkpt lat="45.82773" lon="4.82201">
        <ele>441</ele>
        <time>2011-12-22T09:53:29Z</time>
      </trkpt>
      <trkpt lat="45.8277" lon="4.82206">
        <ele>441</ele>
        <time>2011-12-22T09:53:33Z</time>
      </trkpt>
      <trkpt lat="45.82766" lon="4.82208">
        <ele>441</ele>
        <time>2011-12-22T09:53:36Z</time>
      </trkpt>
      <trkpt lat="45.82764" lon="4.82211">
        <ele>442</ele>
        <time>2011-12-22T09:53:39Z</time>
      </trkpt>
      <trkpt lat="45.8276" lon="4.82213">
        <ele>442</ele>
        <time>2011-12-22T09:53:42Z</time>
      </trkpt>
      <trkpt lat="45.82759" lon="4.82213">
        <ele>442</ele>
        <time>2011-12-22T09:53:43Z</time>
      </trkpt>
      <trkpt lat="45.82747" lon="4.82214">
        <ele>448</ele>
        <time>2011-12-22T09:53:50Z</time>
      </trkpt>
      <trkpt lat="45.82746" lon="4.82216">
        <ele>448</ele>
        <time>2011-12-22T09:53:51Z</time>
      </trkpt>
      <trkpt lat="45.82738" lon="4.82219">
        <ele>449</ele>
        <time>2011-12-22T09:53:55Z</time>
      </trkpt>
      <trkpt lat="45.82729" lon="4.82227">
        <ele>449</ele>
        <time>2011-12-22T09:54:00Z</time>
      </trkpt>
      <trkpt lat="45.82728" lon="4.82228">
        <ele>449</ele>
        <time>2011-12-22T09:54:01Z</time>
      </trkpt>
      <trkpt lat="45.82721" lon="4.82236">
        <ele>450</ele>
        <time>2011-12-22T09:54:06Z</time>
      </trkpt>
      <trkpt lat="45.82714" lon="4.82242">
        <ele>450</ele>
        <time>2011-12-22T09:54:10Z</time>
      </trkpt>
      <trkpt lat="45.82711" lon="4.82245">
        <ele>450</ele>
        <time>2011-12-22T09:54:12Z</time>
      </trkpt>
      <trkpt lat="45.82704" lon="4.82257">
        <ele>451</ele>
        <time>2011-12-22T09:54:18Z</time>
      </trkpt>
      <trkpt lat="45.82703" lon="4.8226">
        <ele>451</ele>
        <time>2011-12-22T09:54:20Z</time>
      </trkpt>
      <trkpt lat="45.82702" lon="4.8226">
        <ele>451</ele>
        <time>2011-12-22T09:54:23Z</time>
      </trkpt>
      <trkpt lat="45.82701" lon="4.82261">
        <ele>451</ele>
        <time>2011-12-22T09:54:29Z</time>
      </trkpt>
      <trkpt lat="45.82698" lon="4.82257">
        <ele>451</ele>
        <time>2011-12-22T09:54:35Z</time>
      </trkpt>
      <trkpt lat="45.82694" lon="4.82253">
        <ele>451</ele>
        <time>2011-12-22T09:54:40Z</time>
      </trkpt>
      <trkpt lat="45.82689" lon="4.82243">
        <ele>452</ele>
        <time>2011-12-22T09:54:48Z</time>
      </trkpt>
      <trkpt lat="45.82689" lon="4.82242">
        <ele>452</ele>
        <time>2011-12-22T09:54:49Z</time>
      </trkpt>
      <trkpt lat="45.82688" lon="4.82238">
        <ele>452</ele>
        <time>2011-12-22T09:54:52Z</time>
      </trkpt>
      <trkpt lat="45.82683" lon="4.82231">
        <ele>452</ele>
        <time>2011-12-22T09:54:58Z</time>
      </trkpt>
      <trkpt lat="45.8268" lon="4.82226">
        <ele>452</ele>
        <time>2011-12-22T09:55:01Z</time>
      </trkpt>
      <trkpt lat="45.82677" lon="4.82221">
        <ele>452</ele>
        <time>2011-12-22T09:55:03Z</time>
      </trkpt>
      <trkpt lat="45.82671" lon="4.8221">
        <ele>451</ele>
        <time>2011-12-22T09:55:07Z</time>
      </trkpt>
      <trkpt lat="45.82669" lon="4.82207">
        <ele>451</ele>
        <time>2011-12-22T09:55:08Z</time>
      </trkpt>
      <trkpt lat="45.82665" lon="4.82198">
        <ele>456</ele>
        <time>2011-12-22T09:55:11Z</time>
      </trkpt>
      <trkpt lat="45.82664" lon="4.82195">
        <ele>456</ele>
        <time>2011-12-22T09:55:12Z</time>
      </trkpt>
      <trkpt lat="45.82659" lon="4.82179">
        <ele>455</ele>
        <time>2011-12-22T09:55:17Z</time>
      </trkpt>
      <trkpt lat="45.82656" lon="4.82173">
        <ele>455</ele>
        <time>2011-12-22T09:55:19Z</time>
      </trkpt>
      <trkpt lat="45.82652" lon="4.82165">
        <ele>454</ele>
        <time>2011-12-22T09:55:22Z</time>
      </trkpt>
      <trkpt lat="45.82645" lon="4.82148">
        <ele>454</ele>
        <time>2011-12-22T09:55:28Z</time>
      </trkpt>
      <trkpt lat="45.82641" lon="4.82135">
        <ele>454</ele>
        <time>2011-12-22T09:55:34Z</time>
      </trkpt>
      <trkpt lat="45.82638" lon="4.82125">
        <ele>454</ele>
        <time>2011-12-22T09:55:37Z</time>
      </trkpt>
      <trkpt lat="45.82636" lon="4.82119">
        <ele>454</ele>
        <time>2011-12-22T09:55:39Z</time>
      </trkpt>
      <trkpt lat="45.82631" lon="4.82104">
        <ele>454</ele>
        <time>2011-12-22T09:55:45Z</time>
      </trkpt>
      <trkpt lat="45.82631" lon="4.82102">
        <ele>454</ele>
        <time>2011-12-22T09:55:46Z</time>
      </trkpt>
      <trkpt lat="45.82632" lon="4.82102">
        <ele>454</ele>
        <time>2011-12-22T09:55:48Z</time>
      </trkpt>
      <trkpt lat="45.82633" lon="4.82102">
        <ele>454</ele>
        <time>2011-12-22T09:55:49Z</time>
      </trkpt>
      <trkpt lat="45.82635" lon="4.82101">
        <ele>454</ele>
        <time>2011-12-22T09:55:51Z</time>
      </trkpt>
      <trkpt lat="45.8264" lon="4.821">
        <ele>453</ele>
        <time>2011-12-22T09:55:53Z</time>
      </trkpt>
      <trkpt lat="45.82651" lon="4.82096">
        <ele>451</ele>
        <time>2011-12-22T09:55:58Z</time>
      </trkpt>
      <trkpt lat="45.82662" lon="4.82094">
        <ele>450</ele>
        <time>2011-12-22T09:56:03Z</time>
      </trkpt>
      <trkpt lat="45.82669" lon="4.82093">
        <ele>445</ele>
        <time>2011-12-22T09:56:06Z</time>
      </trkpt>
      <trkpt lat="45.82676" lon="4.82094">
        <ele>445</ele>
        <time>2011-12-22T09:56:09Z</time>
      </trkpt>
      <trkpt lat="45.82687" lon="4.82095">
        <ele>444</ele>
        <time>2011-12-22T09:56:14Z</time>
      </trkpt>
      <trkpt lat="45.82692" lon="4.82094">
        <ele>443</ele>
        <time>2011-12-22T09:56:16Z</time>
      </trkpt>
      <trkpt lat="45.82703" lon="4.82093">
        <ele>442</ele>
        <time>2011-12-22T09:56:22Z</time>
      </trkpt>
      <trkpt lat="45.82705" lon="4.82092">
        <ele>441</ele>
        <time>2011-12-22T09:56:24Z</time>
      </trkpt>
      <trkpt lat="45.82706" lon="4.82091">
        <ele>441</ele>
        <time>2011-12-22T09:56:25Z</time>
      </trkpt>
      <trkpt lat="45.82707" lon="4.82089">
        <ele>441</ele>
        <time>2011-12-22T09:56:26Z</time>
      </trkpt>
      <trkpt lat="45.82703" lon="4.82077">
        <ele>440</ele>
        <time>2011-12-22T09:56:31Z</time>
      </trkpt>
      <trkpt lat="45.82699" lon="4.82066">
        <ele>440</ele>
        <time>2011-12-22T09:56:35Z</time>
      </trkpt>
      <trkpt lat="45.82697" lon="4.82063">
        <ele>441</ele>
        <time>2011-12-22T09:56:37Z</time>
      </trkpt>
      <trkpt lat="45.82696" lon="4.82062">
        <ele>441</ele>
        <time>2011-12-22T09:56:39Z</time>
      </trkpt>
      <trkpt lat="45.82695" lon="4.8206">
        <ele>441</ele>
        <time>2011-12-22T09:56:43Z</time>
      </trkpt>
      <trkpt lat="45.82695" lon="4.82054">
        <ele>441</ele>
        <time>2011-12-22T09:56:47Z</time>
      </trkpt>
      <trkpt lat="45.82695" lon="4.82051">
        <ele>441</ele>
        <time>2011-12-22T09:56:48Z</time>
      </trkpt>
      <trkpt lat="45.82695" lon="4.82047">
        <ele>441</ele>
        <time>2011-12-22T09:56:51Z</time>
      </trkpt>
      <trkpt lat="45.82694" lon="4.82045">
        <ele>441</ele>
        <time>2011-12-22T09:56:53Z</time>
      </trkpt>
      <trkpt lat="45.82695" lon="4.82043">
        <ele>441</ele>
        <time>2011-12-22T09:56:55Z</time>
      </trkpt>
      <trkpt lat="45.82695" lon="4.82041">
        <ele>441</ele>
        <time>2011-12-22T09:56:56Z</time>
      </trkpt>
      <trkpt lat="45.82697" lon="4.82038">
        <ele>441</ele>
        <time>2011-12-22T09:56:59Z</time>
      </trkpt>
      <trkpt lat="45.82697" lon="4.82038">
        <ele>441</ele>
        <time>2011-12-22T09:57:00Z</time>
      </trkpt>
      <trkpt lat="45.82697" lon="4.82037">
        <ele>441</ele>
        <time>2011-12-22T09:57:01Z</time>
      </trkpt>
      <trkpt lat="45.82695" lon="4.82037">
        <ele>441</ele>
        <time>2011-12-22T09:57:04Z</time>
      </trkpt>
      <trkpt lat="45.82694" lon="4.82033">
        <ele>442</ele>
        <time>2011-12-22T09:57:12Z</time>
      </trkpt>
      <trkpt lat="45.82699" lon="4.82031">
        <ele>441</ele>
        <time>2011-12-22T09:57:19Z</time>
      </trkpt>
      <trkpt lat="45.82702" lon="4.82032">
        <ele>441</ele>
        <time>2011-12-22T09:57:21Z</time>
      </trkpt>
      <trkpt lat="45.8271" lon="4.82032">
        <ele>440</ele>
        <time>2011-12-22T09:57:26Z</time>
      </trkpt>
      <trkpt lat="45.82716" lon="4.82029">
        <ele>439</ele>
        <time>2011-12-22T09:57:30Z</time>
      </trkpt>
      <trkpt lat="45.82719" lon="4.82029">
        <ele>439</ele>
        <time>2011-12-22T09:57:32Z</time>
      </trkpt>
      <trkpt lat="45.82722" lon="4.82028">
        <ele>438</ele>
        <time>2011-12-22T09:57:33Z</time>
      </trkpt>
      <trkpt lat="45.8273" lon="4.82023">
        <ele>437</ele>
        <time>2011-12-22T09:57:38Z</time>
      </trkpt>
      <trkpt lat="45.82733" lon="4.8202">
        <ele>437</ele>
        <time>2011-12-22T09:57:40Z</time>
      </trkpt>
      <trkpt lat="45.82735" lon="4.82015">
        <ele>436</ele>
        <time>2011-12-22T09:57:43Z</time>
      </trkpt>
      <trkpt lat="45.82736" lon="4.82014">
        <ele>436</ele>
        <time>2011-12-22T09:57:44Z</time>
      </trkpt>
      <trkpt lat="45.82741" lon="4.82016">
        <ele>436</ele>
        <time>2011-12-22T09:57:48Z</time>
      </trkpt>
      <trkpt lat="45.82743" lon="4.82016">
        <ele>436</ele>
        <time>2011-12-22T09:57:49Z</time>
      </trkpt>
      <trkpt lat="45.82745" lon="4.82017">
        <ele>436</ele>
        <time>2011-12-22T09:57:50Z</time>
      </trkpt>
      <trkpt lat="45.82749" lon="4.82018">
        <ele>436</ele>
        <time>2011-12-22T09:57:52Z</time>
      </trkpt>
      <trkpt lat="45.82756" lon="4.82019">
        <ele>428</ele>
        <time>2011-12-22T09:57:55Z</time>
      </trkpt>
      <trkpt lat="45.82757" lon="4.82021">
        <ele>427</ele>
        <time>2011-12-22T09:57:56Z</time>
      </trkpt>
      <trkpt lat="45.82765" lon="4.8203">
        <ele>426</ele>
        <time>2011-12-22T09:58:01Z</time>
      </trkpt>
      <trkpt lat="45.82771" lon="4.82031">
        <ele>425</ele>
        <time>2011-12-22T09:58:04Z</time>
      </trkpt>
      <trkpt lat="45.82776" lon="4.82032">
        <ele>425</ele>
        <time>2011-12-22T09:58:06Z</time>
      </trkpt>
      <trkpt lat="45.82777" lon="4.82032">
        <ele>425</ele>
        <time>2011-12-22T09:58:07Z</time>
      </trkpt>
      <trkpt lat="45.82782" lon="4.82033">
        <ele>424</ele>
        <time>2011-12-22T09:58:10Z</time>
      </trkpt>
      <trkpt lat="45.82785" lon="4.82031">
        <ele>424</ele>
        <time>2011-12-22T09:58:12Z</time>
      </trkpt>
      <trkpt lat="45.82789" lon="4.82031">
        <ele>424</ele>
        <time>2011-12-22T09:58:15Z</time>
      </trkpt>
      <trkpt lat="45.82791" lon="4.82031">
        <ele>424</ele>
        <time>2011-12-22T09:58:16Z</time>
      </trkpt>
      <trkpt lat="45.82792" lon="4.8203">
        <ele>424</ele>
        <time>2011-12-22T09:58:17Z</time>
      </trkpt>
      <trkpt lat="45.82794" lon="4.82031">
        <ele>423</ele>
        <time>2011-12-22T09:58:18Z</time>
      </trkpt>
      <trkpt lat="45.828" lon="4.82035">
        <ele>423</ele>
        <time>2011-12-22T09:58:24Z</time>
      </trkpt>
      <trkpt lat="45.82808" lon="4.82032">
        <ele>422</ele>
        <time>2011-12-22T09:58:29Z</time>
      </trkpt>
      <trkpt lat="45.82816" lon="4.82029">
        <ele>421</ele>
        <time>2011-12-22T09:58:32Z</time>
      </trkpt>
      <trkpt lat="45.8282" lon="4.82029">
        <ele>421</ele>
        <time>2011-12-22T09:58:34Z</time>
      </trkpt>
      <trkpt lat="45.82822" lon="4.8203">
        <ele>421</ele>
        <time>2011-12-22T09:58:35Z</time>
      </trkpt>
      <trkpt lat="45.82823" lon="4.8203">
        <ele>421</ele>
        <time>2011-12-22T09:58:36Z</time>
      </trkpt>
      <trkpt lat="45.82827" lon="4.8203">
        <ele>421</ele>
        <time>2011-12-22T09:58:38Z</time>
      </trkpt>
      <trkpt lat="45.82832" lon="4.82033">
        <ele>421</ele>
        <time>2011-12-22T09:58:40Z</time>
      </trkpt>
      <trkpt lat="45.82842" lon="4.82036">
        <ele>411</ele>
        <time>2011-12-22T09:58:44Z</time>
      </trkpt>
      <trkpt lat="45.82846" lon="4.82038">
        <ele>411</ele>
        <time>2011-12-22T09:58:45Z</time>
      </trkpt>
      <trkpt lat="45.8285" lon="4.82038">
        <ele>411</ele>
        <time>2011-12-22T09:58:47Z</time>
      </trkpt>
      <trkpt lat="45.82851" lon="4.82037">
        <ele>411</ele>
        <time>2011-12-22T09:58:48Z</time>
      </trkpt>
      <trkpt lat="45.8286" lon="4.82041">
        <ele>410</ele>
        <time>2011-12-22T09:58:52Z</time>
      </trkpt>
      <trkpt lat="45.82861" lon="4.8204">
        <ele>410</ele>
        <time>2011-12-22T09:58:54Z</time>
      </trkpt>
      <trkpt lat="45.82858" lon="4.82041">
        <ele>410</ele>
        <time>2011-12-22T09:58:57Z</time>
      </trkpt>
      <trkpt lat="45.82856" lon="4.82041">
        <ele>410</ele>
        <time>2011-12-22T09:58:58Z</time>
      </trkpt>
      <trkpt lat="45.82849" lon="4.82035">
        <ele>411</ele>
        <time>2011-12-22T09:59:02Z</time>
      </trkpt>
      <trkpt lat="45.82844" lon="4.8203">
        <ele>411</ele>
        <time>2011-12-22T09:59:05Z</time>
      </trkpt>
      <trkpt lat="45.82841" lon="4.82025">
        <ele>412</ele>
        <time>2011-12-22T09:59:08Z</time>
      </trkpt>
      <trkpt lat="45.8284" lon="4.82023">
        <ele>412</ele>
        <time>2011-12-22T09:59:09Z</time>
      </trkpt>
      <trkpt lat="45.82841" lon="4.82023">
        <ele>412</ele>
        <time>2011-12-22T09:59:11Z</time>
      </trkpt>
      <trkpt lat="45.82843" lon="4.82022">
        <ele>412</ele>
        <time>2011-12-22T09:59:13Z</time>
      </trkpt>
      <trkpt lat="45.82847" lon="4.82021">
        <ele>411</ele>
        <time>2011-12-22T09:59:15Z</time>
      </trkpt>
      <trkpt lat="45.82852" lon="4.8202">
        <ele>411</ele>
        <time>2011-12-22T09:59:17Z</time>
      </trkpt>
      <trkpt lat="45.82857" lon="4.82021">
        <ele>410</ele>
        <time>2011-12-22T09:59:19Z</time>
      </trkpt>
      <trkpt lat="45.82863" lon="4.82023">
        <ele>410</ele>
        <time>2011-12-22T09:59:21Z</time>
      </trkpt>
      <trkpt lat="45.82865" lon="4.82024">
        <ele>409</ele>
        <time>2011-12-22T09:59:22Z</time>
      </trkpt>
      <trkpt lat="45.82869" lon="4.82025">
        <ele>409</ele>
        <time>2011-12-22T09:59:24Z</time>
      </trkpt>
      <trkpt lat="45.82873" lon="4.82024">
        <ele>409</ele>
        <time>2011-12-22T09:59:26Z</time>
      </trkpt>
      <trkpt lat="45.82876" lon="4.82023">
        <ele>408</ele>
        <time>2011-12-22T09:59:27Z</time>
      </trkpt>
      <trkpt lat="45.82885" lon="4.82022">
        <ele>407</ele>
        <time>2011-12-22T09:59:30Z</time>
      </trkpt>
      <trkpt lat="45.82895" lon="4.82017">
        <ele>406</ele>
        <time>2011-12-22T09:59:34Z</time>
      </trkpt>
      <trkpt lat="45.829" lon="4.82019">
        <ele>405</ele>
        <time>2011-12-22T09:59:36Z</time>
      </trkpt>
      <trkpt lat="45.82909" lon="4.82017">
        <ele>404</ele>
        <time>2011-12-22T09:59:40Z</time>
      </trkpt>
      <trkpt lat="45.82914" lon="4.82014">
        <ele>403</ele>
        <time>2011-12-22T09:59:42Z</time>
      </trkpt>
      <trkpt lat="45.82926" lon="4.82011">
        <ele>397</ele>
        <time>2011-12-22T09:59:46Z</time>
      </trkpt>
      <trkpt lat="45.82932" lon="4.82009">
        <ele>397</ele>
        <time>2011-12-22T09:59:48Z</time>
      </trkpt>
      <trkpt lat="45.8294" lon="4.82007">
        <ele>396</ele>
        <time>2011-12-22T09:59:51Z</time>
      </trkpt>
      <trkpt lat="45.82944" lon="4.82007">
        <ele>396</ele>
        <time>2011-12-22T09:59:53Z</time>
      </trkpt>
      <trkpt lat="45.82947" lon="4.82005">
        <ele>395</ele>
        <time>2011-12-22T09:59:55Z</time>
      </trkpt>
      <trkpt lat="45.8295" lon="4.82">
        <ele>395</ele>
        <time>2011-12-22T09:59:57Z</time>
      </trkpt>
      <trkpt lat="45.82952" lon="4.81996">
        <ele>395</ele>
        <time>2011-12-22T09:59:59Z</time>
      </trkpt>
      <trkpt lat="45.82954" lon="4.81992">
        <ele>395</ele>
        <time>2011-12-22T10:00:02Z</time>
      </trkpt>
      <trkpt lat="45.82955" lon="4.8199">
        <ele>395</ele>
        <time>2011-12-22T10:00:04Z</time>
      </trkpt>
      <trkpt lat="45.82963" lon="4.81983">
        <ele>394</ele>
        <time>2011-12-22T10:00:13Z</time>
      </trkpt>
      <trkpt lat="45.82966" lon="4.81985">
        <ele>393</ele>
        <time>2011-12-22T10:00:17Z</time>
      </trkpt>
      <trkpt lat="45.8297" lon="4.81988">
        <ele>393</ele>
        <time>2011-12-22T10:00:19Z</time>
      </trkpt>
      <trkpt lat="45.82974" lon="4.81988">
        <ele>393</ele>
        <time>2011-12-22T10:00:21Z</time>
      </trkpt>
      <trkpt lat="45.82976" lon="4.81991">
        <ele>392</ele>
        <time>2011-12-22T10:00:23Z</time>
      </trkpt>
      <trkpt lat="45.8298" lon="4.81996">
        <ele>392</ele>
        <time>2011-12-22T10:00:26Z</time>
      </trkpt>
      <trkpt lat="45.82983" lon="4.81999">
        <ele>391</ele>
        <time>2011-12-22T10:00:28Z</time>
      </trkpt>
      <trkpt lat="45.82988" lon="4.82006">
        <ele>391</ele>
        <time>2011-12-22T10:00:31Z</time>
      </trkpt>
      <trkpt lat="45.82991" lon="4.82011">
        <ele>391</ele>
        <time>2011-12-22T10:00:33Z</time>
      </trkpt>
      <trkpt lat="45.82994" lon="4.82017">
        <ele>391</ele>
        <time>2011-12-22T10:00:36Z</time>
      </trkpt>
      <trkpt lat="45.82998" lon="4.8202">
        <ele>391</ele>
        <time>2011-12-22T10:00:38Z</time>
      </trkpt>
      <trkpt lat="45.82999" lon="4.82027">
        <ele>392</ele>
        <time>2011-12-22T10:00:43Z</time>
      </trkpt>
      <trkpt lat="45.82998" lon="4.82029">
        <ele>392</ele>
        <time>2011-12-22T10:00:45Z</time>
      </trkpt>
      <trkpt lat="45.82997" lon="4.82031">
        <ele>392</ele>
        <time>2011-12-22T10:00:47Z</time>
      </trkpt>
      <trkpt lat="45.82996" lon="4.82031">
        <ele>392</ele>
        <time>2011-12-22T10:00:48Z</time>
      </trkpt>
      <trkpt lat="45.82994" lon="4.82033">
        <ele>392</ele>
        <time>2011-12-22T10:00:51Z</time>
      </trkpt>
      <trkpt lat="45.82992" lon="4.82036">
        <ele>393</ele>
        <time>2011-12-22T10:00:53Z</time>
      </trkpt>
      <trkpt lat="45.82993" lon="4.82047">
        <ele>393</ele>
        <time>2011-12-22T10:01:01Z</time>
      </trkpt>
      <trkpt lat="45.82992" lon="4.82052">
        <ele>393</ele>
        <time>2011-12-22T10:01:04Z</time>
      </trkpt>
      <trkpt lat="45.82992" lon="4.82054">
        <ele>393</ele>
        <time>2011-12-22T10:01:06Z</time>
      </trkpt>
      <trkpt lat="45.82988" lon="4.82057">
        <ele>393</ele>
        <time>2011-12-22T10:01:10Z</time>
      </trkpt>
      <trkpt lat="45.82988" lon="4.82058">
        <ele>393</ele>
        <time>2011-12-22T10:01:11Z</time>
      </trkpt>
      <trkpt lat="45.82988" lon="4.8206">
        <ele>393</ele>
        <time>2011-12-22T10:01:14Z</time>
      </trkpt>
      <trkpt lat="45.82987" lon="4.82064">
        <ele>393</ele>
        <time>2011-12-22T10:01:19Z</time>
      </trkpt>
      <trkpt lat="45.82986" lon="4.8207">
        <ele>393</ele>
        <time>2011-12-22T10:01:24Z</time>
      </trkpt>
      <trkpt lat="45.82983" lon="4.82077">
        <ele>393</ele>
        <time>2011-12-22T10:01:29Z</time>
      </trkpt>
      <trkpt lat="45.82983" lon="4.8208">
        <ele>393</ele>
        <time>2011-12-22T10:01:31Z</time>
      </trkpt>
      <trkpt lat="45.82984" lon="4.82083">
        <ele>392</ele>
        <time>2011-12-22T10:01:34Z</time>
      </trkpt>
      <trkpt lat="45.82984" lon="4.82085">
        <ele>395</ele>
        <time>2011-12-22T10:01:36Z</time>
      </trkpt>
      <trkpt lat="45.8298" lon="4.82091">
        <ele>396</ele>
        <time>2011-12-22T10:01:42Z</time>
      </trkpt>
      <trkpt lat="45.82978" lon="4.82098">
        <ele>397</ele>
        <time>2011-12-22T10:01:48Z</time>
      </trkpt>
      <trkpt lat="45.82978" lon="4.82099">
        <ele>397</ele>
        <time>2011-12-22T10:01:49Z</time>
      </trkpt>
      <trkpt lat="45.82978" lon="4.82101">
        <ele>398</ele>
        <time>2011-12-22T10:01:50Z</time>
      </trkpt>
      <trkpt lat="45.82974" lon="4.82103">
        <ele>398</ele>
        <time>2011-12-22T10:01:54Z</time>
      </trkpt>
      <trkpt lat="45.82973" lon="4.82105">
        <ele>399</ele>
        <time>2011-12-22T10:01:56Z</time>
      </trkpt>
      <trkpt lat="45.82972" lon="4.82105">
        <ele>399</ele>
        <time>2011-12-22T10:01:57Z</time>
      </trkpt>
      <trkpt lat="45.82969" lon="4.82107">
        <ele>399</ele>
        <time>2011-12-22T10:02:00Z</time>
      </trkpt>
      <trkpt lat="45.82969" lon="4.82108">
        <ele>399</ele>
        <time>2011-12-22T10:02:01Z</time>
      </trkpt>
      <trkpt lat="45.82966" lon="4.82112">
        <ele>400</ele>
        <time>2011-12-22T10:02:05Z</time>
      </trkpt>
      <trkpt lat="45.82964" lon="4.82114">
        <ele>400</ele>
        <time>2011-12-22T10:02:08Z</time>
      </trkpt>
      <trkpt lat="45.82964" lon="4.82118">
        <ele>400</ele>
        <time>2011-12-22T10:02:13Z</time>
      </trkpt>
      <trkpt lat="45.82965" lon="4.82122">
        <ele>401</ele>
        <time>2011-12-22T10:02:18Z</time>
      </trkpt>
      <trkpt lat="45.82964" lon="4.82125">
        <ele>401</ele>
        <time>2011-12-22T10:02:20Z</time>
      </trkpt>
      <trkpt lat="45.82962" lon="4.82128">
        <ele>401</ele>
        <time>2011-12-22T10:02:23Z</time>
      </trkpt>
      <trkpt lat="45.82962" lon="4.8213">
        <ele>401</ele>
        <time>2011-12-22T10:02:24Z</time>
      </trkpt>
      <trkpt lat="45.82961" lon="4.82137">
        <ele>402</ele>
        <time>2011-12-22T10:02:32Z</time>
      </trkpt>
      <trkpt lat="45.82957" lon="4.82141">
        <ele>402</ele>
        <time>2011-12-22T10:02:37Z</time>
      </trkpt>
      <trkpt lat="45.82952" lon="4.82143">
        <ele>403</ele>
        <time>2011-12-22T10:02:41Z</time>
      </trkpt>
      <trkpt lat="45.8295" lon="4.82146">
        <ele>403</ele>
        <time>2011-12-22T10:02:44Z</time>
      </trkpt>
      <trkpt lat="45.82948" lon="4.82149">
        <ele>404</ele>
        <time>2011-12-22T10:02:47Z</time>
      </trkpt>
      <trkpt lat="45.82947" lon="4.82152">
        <ele>404</ele>
        <time>2011-12-22T10:02:51Z</time>
      </trkpt>
      <trkpt lat="45.82946" lon="4.82155">
        <ele>404</ele>
        <time>2011-12-22T10:02:53Z</time>
      </trkpt>
      <trkpt lat="45.82943" lon="4.82158">
        <ele>405</ele>
        <time>2011-12-22T10:02:57Z</time>
      </trkpt>
      <trkpt lat="45.82942" lon="4.82159">
        <ele>405</ele>
        <time>2011-12-22T10:02:58Z</time>
      </trkpt>
      <trkpt lat="45.8294" lon="4.82163">
        <ele>406</ele>
        <time>2011-12-22T10:03:03Z</time>
      </trkpt>
      <trkpt lat="45.82939" lon="4.82164">
        <ele>406</ele>
        <time>2011-12-22T10:03:04Z</time>
      </trkpt>
      <trkpt lat="45.82939" lon="4.82167">
        <ele>412</ele>
        <time>2011-12-22T10:03:07Z</time>
      </trkpt>
      <trkpt lat="45.82938" lon="4.8217">
        <ele>413</ele>
        <time>2011-12-22T10:03:09Z</time>
      </trkpt>
      <trkpt lat="45.82937" lon="4.82172">
        <ele>413</ele>
        <time>2011-12-22T10:03:11Z</time>
      </trkpt>
      <trkpt lat="45.82934" lon="4.82175">
        <ele>413</ele>
        <time>2011-12-22T10:03:15Z</time>
      </trkpt>
      <trkpt lat="45.82929" lon="4.82181">
        <ele>413</ele>
        <time>2011-12-22T10:03:21Z</time>
      </trkpt>
      <trkpt lat="45.82929" lon="4.82184">
        <ele>413</ele>
        <time>2011-12-22T10:03:23Z</time>
      </trkpt>
      <trkpt lat="45.82929" lon="4.82185">
        <ele>413</ele>
        <time>2011-12-22T10:03:24Z</time>
      </trkpt>
      <trkpt lat="45.82928" lon="4.82186">
        <ele>413</ele>
        <time>2011-12-22T10:03:27Z</time>
      </trkpt>
      <trkpt lat="45.82929" lon="4.82188">
        <ele>414</ele>
        <time>2011-12-22T10:03:29Z</time>
      </trkpt>
      <trkpt lat="45.82929" lon="4.82189">
        <ele>414</ele>
        <time>2011-12-22T10:03:30Z</time>
      </trkpt>
      <trkpt lat="45.82927" lon="4.82196">
        <ele>414</ele>
        <time>2011-12-22T10:03:37Z</time>
      </trkpt>
      <trkpt lat="45.82925" lon="4.82198">
        <ele>414</ele>
        <time>2011-12-22T10:03:39Z</time>
      </trkpt>
      <trkpt lat="45.82922" lon="4.82202">
        <ele>415</ele>
        <time>2011-12-22T10:03:43Z</time>
      </trkpt>
      <trkpt lat="45.8292" lon="4.82204">
        <ele>415</ele>
        <time>2011-12-22T10:03:46Z</time>
      </trkpt>
      <trkpt lat="45.8292" lon="4.82203">
        <ele>415</ele>
        <time>2011-12-22T10:03:49Z</time>
      </trkpt>
      <trkpt lat="45.8292" lon="4.82205">
        <ele>415</ele>
        <time>2011-12-22T10:03:56Z</time>
      </trkpt>
      <trkpt lat="45.82917" lon="4.822">
        <ele>415</ele>
        <time>2011-12-22T10:04:05Z</time>
      </trkpt>
      <trkpt lat="45.82914" lon="4.82195">
        <ele>423</ele>
        <time>2011-12-22T10:04:11Z</time>
      </trkpt>
      <trkpt lat="45.82912" lon="4.82193">
        <ele>422</ele>
        <time>2011-12-22T10:04:13Z</time>
      </trkpt>
      <trkpt lat="45.82908" lon="4.82189">
        <ele>422</ele>
        <time>2011-12-22T10:04:17Z</time>
      </trkpt>
      <trkpt lat="45.82906" lon="4.82187">
        <ele>422</ele>
        <time>2011-12-22T10:04:19Z</time>
      </trkpt>
      <trkpt lat="45.82901" lon="4.82182">
        <ele>421</ele>
        <time>2011-12-22T10:04:25Z</time>
      </trkpt>
      <trkpt lat="45.82893" lon="4.82178">
        <ele>422</ele>
        <time>2011-12-22T10:04:32Z</time>
      </trkpt>
      <trkpt lat="45.82892" lon="4.82178">
        <ele>422</ele>
        <time>2011-12-22T10:04:33Z</time>
      </trkpt>
      <trkpt lat="45.82891" lon="4.82177">
        <ele>423</ele>
        <time>2011-12-22T10:04:35Z</time>
      </trkpt>
      <trkpt lat="45.82889" lon="4.82176">
        <ele>423</ele>
        <time>2011-12-22T10:04:37Z</time>
      </trkpt>
      <trkpt lat="45.82885" lon="4.82174">
        <ele>424</ele>
        <time>2011-12-22T10:04:41Z</time>
      </trkpt>
      <trkpt lat="45.82883" lon="4.82174">
        <ele>424</ele>
        <time>2011-12-22T10:04:43Z</time>
      </trkpt>
      <trkpt lat="45.82875" lon="4.82171">
        <ele>425</ele>
        <time>2011-12-22T10:04:49Z</time>
      </trkpt>
      <trkpt lat="45.82874" lon="4.8217">
        <ele>425</ele>
        <time>2011-12-22T10:04:50Z</time>
      </trkpt>
      <trkpt lat="45.8287" lon="4.82169">
        <ele>426</ele>
        <time>2011-12-22T10:04:53Z</time>
      </trkpt>
      <trkpt lat="45.82868" lon="4.82169">
        <ele>426</ele>
        <time>2011-12-22T10:04:56Z</time>
      </trkpt>
      <trkpt lat="45.82863" lon="4.82168">
        <ele>426</ele>
        <time>2011-12-22T10:05:04Z</time>
      </trkpt>
      <trkpt lat="45.82858" lon="4.82171">
        <ele>427</ele>
        <time>2011-12-22T10:05:16Z</time>
      </trkpt>
      <trkpt lat="45.82856" lon="4.8217">
        <ele>427</ele>
        <time>2011-12-22T10:05:18Z</time>
      </trkpt>
      <trkpt lat="45.82852" lon="4.82171">
        <ele>428</ele>
        <time>2011-12-22T10:05:23Z</time>
      </trkpt>
      <trkpt lat="45.82846" lon="4.82175">
        <ele>428</ele>
        <time>2011-12-22T10:05:31Z</time>
      </trkpt>
      <trkpt lat="45.82845" lon="4.82176">
        <ele>428</ele>
        <time>2011-12-22T10:05:33Z</time>
      </trkpt>
      <trkpt lat="45.82842" lon="4.8218">
        <ele>428</ele>
        <time>2011-12-22T10:05:37Z</time>
      </trkpt>
      <trkpt lat="45.82841" lon="4.82183">
        <ele>428</ele>
        <time>2011-12-22T10:05:40Z</time>
      </trkpt>
      <trkpt lat="45.82839" lon="4.82185">
        <ele>428</ele>
        <time>2011-12-22T10:05:42Z</time>
      </trkpt>
      <trkpt lat="45.82835" lon="4.82188">
        <ele>429</ele>
        <time>2011-12-22T10:05:46Z</time>
      </trkpt>
      <trkpt lat="45.82833" lon="4.82189">
        <ele>435</ele>
        <time>2011-12-22T10:05:48Z</time>
      </trkpt>
      <trkpt lat="45.82826" lon="4.82187">
        <ele>435</ele>
        <time>2011-12-22T10:05:53Z</time>
      </trkpt>
      <trkpt lat="45.82822" lon="4.82188">
        <ele>436</ele>
        <time>2011-12-22T10:05:57Z</time>
      </trkpt>
      <trkpt lat="45.82821" lon="4.82189">
        <ele>436</ele>
        <time>2011-12-22T10:05:58Z</time>
      </trkpt>
      <trkpt lat="45.82818" lon="4.82187">
        <ele>436</ele>
        <time>2011-12-22T10:06:00Z</time>
      </trkpt>
      <trkpt lat="45.82813" lon="4.82188">
        <ele>437</ele>
        <time>2011-12-22T10:06:05Z</time>
      </trkpt>
      <trkpt lat="45.82812" lon="4.82187">
        <ele>437</ele>
        <time>2011-12-22T10:06:06Z</time>
      </trkpt>
      <trkpt lat="45.82811" lon="4.82187">
        <ele>437</ele>
        <time>2011-12-22T10:06:07Z</time>
      </trkpt>
      <trkpt lat="45.82808" lon="4.82187">
        <ele>437</ele>
        <time>2011-12-22T10:06:11Z</time>
      </trkpt>
      <trkpt lat="45.82807" lon="4.82187">
        <ele>437</ele>
        <time>2011-12-22T10:06:12Z</time>
      </trkpt>
      <trkpt lat="45.82803" lon="4.82187">
        <ele>438</ele>
        <time>2011-12-22T10:06:15Z</time>
      </trkpt>
      <trkpt lat="45.828" lon="4.82186">
        <ele>438</ele>
        <time>2011-12-22T10:06:19Z</time>
      </trkpt>
      <trkpt lat="45.82792" lon="4.82185">
        <ele>439</ele>
        <time>2011-12-22T10:06:26Z</time>
      </trkpt>
      <trkpt lat="45.8279" lon="4.82186">
        <ele>439</ele>
        <time>2011-12-22T10:06:27Z</time>
      </trkpt>
      <trkpt lat="45.82784" lon="4.82188">
        <ele>440</ele>
        <time>2011-12-22T10:06:32Z</time>
      </trkpt>
      <trkpt lat="45.82782" lon="4.8219">
        <ele>440</ele>
        <time>2011-12-22T10:06:34Z</time>
      </trkpt>
      <trkpt lat="45.82778" lon="4.82194">
        <ele>440</ele>
        <time>2011-12-22T10:06:38Z</time>
      </trkpt>
      <trkpt lat="45.82776" lon="4.82196">
        <ele>441</ele>
        <time>2011-12-22T10:06:40Z</time>
      </trkpt>
      <trkpt lat="45.82773" lon="4.82203">
        <ele>441</ele>
        <time>2011-12-22T10:06:47Z</time>
      </trkpt>
      <trkpt lat="45.8277" lon="4.82202">
        <ele>441</ele>
        <time>2011-12-22T10:06:50Z</time>
      </trkpt>
      <trkpt lat="45.82769" lon="4.82202">
        <ele>441</ele>
        <time>2011-12-22T10:06:51Z</time>
      </trkpt>
      <trkpt lat="45.82764" lon="4.82207">
        <ele>442</ele>
        <time>2011-12-22T10:06:56Z</time>
      </trkpt>
      <trkpt lat="45.82763" lon="4.82207">
        <ele>442</ele>
        <time>2011-12-22T10:06:57Z</time>
      </trkpt>
      <trkpt lat="45.82755" lon="4.82208">
        <ele>442</ele>
        <time>2011-12-22T10:07:04Z</time>
      </trkpt>
      <trkpt lat="45.82753" lon="4.82208">
        <ele>442</ele>
        <time>2011-12-22T10:07:05Z</time>
      </trkpt>
      <trkpt lat="45.82746" lon="4.82212">
        <ele>448</ele>
        <time>2011-12-22T10:07:10Z</time>
      </trkpt>
      <trkpt lat="45.82736" lon="4.82217">
        <ele>449</ele>
        <time>2011-12-22T10:07:17Z</time>
      </trkpt>
      <trkpt lat="45.82735" lon="4.82217">
        <ele>449</ele>
        <time>2011-12-22T10:07:18Z</time>
      </trkpt>
      <trkpt lat="45.82731" lon="4.8222">
        <ele>449</ele>
        <time>2011-12-22T10:07:22Z</time>
      </trkpt>
      <trkpt lat="45.8273" lon="4.82222">
        <ele>449</ele>
        <time>2011-12-22T10:07:24Z</time>
      </trkpt>
      <trkpt lat="45.82724" lon="4.82227">
        <ele>449</ele>
        <time>2011-12-22T10:07:30Z</time>
      </trkpt>
      <trkpt lat="45.82719" lon="4.8223">
        <ele>450</ele>
        <time>2011-12-22T10:07:34Z</time>
      </trkpt>
      <trkpt lat="45.82717" lon="4.82232">
        <ele>450</ele>
        <time>2011-12-22T10:07:36Z</time>
      </trkpt>
      <trkpt lat="45.82715" lon="4.82233">
        <ele>450</ele>
        <time>2011-12-22T10:07:38Z</time>
      </trkpt>
      <trkpt lat="45.82713" lon="4.82236">
        <ele>450</ele>
        <time>2011-12-22T10:07:39Z</time>
      </trkpt>
      <trkpt lat="45.8271" lon="4.82244">
        <ele>450</ele>
        <time>2011-12-22T10:07:42Z</time>
      </trkpt>
      <trkpt lat="45.82706" lon="4.82249">
        <ele>451</ele>
        <time>2011-12-22T10:07:45Z</time>
      </trkpt>
      <trkpt lat="45.82703" lon="4.82249">
        <ele>451</ele>
        <time>2011-12-22T10:07:47Z</time>
      </trkpt>
      <trkpt lat="45.82695" lon="4.82243">
        <ele>451</ele>
        <time>2011-12-22T10:07:55Z</time>
      </trkpt>
      <trkpt lat="45.82688" lon="4.82236">
        <ele>452</ele>
        <time>2011-12-22T10:08:01Z</time>
      </trkpt>
      <trkpt lat="45.82683" lon="4.82229">
        <ele>452</ele>
        <time>2011-12-22T10:08:06Z</time>
      </trkpt>
      <trkpt lat="45.82677" lon="4.8222">
        <ele>452</ele>
        <time>2011-12-22T10:08:10Z</time>
      </trkpt>
      <trkpt lat="45.82675" lon="4.82217">
        <ele>451</ele>
        <time>2011-12-22T10:08:11Z</time>
      </trkpt>
      <trkpt lat="45.8267" lon="4.82205">
        <ele>451</ele>
        <time>2011-12-22T10:08:15Z</time>
      </trkpt>
      <trkpt lat="45.82666" lon="4.82196">
        <ele>456</ele>
        <time>2011-12-22T10:08:18Z</time>
      </trkpt>
      <trkpt lat="45.82664" lon="4.82189">
        <ele>455</ele>
        <time>2011-12-22T10:08:20Z</time>
      </trkpt>
      <trkpt lat="45.82658" lon="4.82177">
        <ele>455</ele>
        <time>2011-12-22T10:08:24Z</time>
      </trkpt>
      <trkpt lat="45.82656" lon="4.82171">
        <ele>455</ele>
        <time>2011-12-22T10:08:26Z</time>
      </trkpt>
      <trkpt lat="45.82653" lon="4.82165">
        <ele>454</ele>
        <time>2011-12-22T10:08:28Z</time>
      </trkpt>
      <trkpt lat="45.82647" lon="4.82149">
        <ele>454</ele>
        <time>2011-12-22T10:08:33Z</time>
      </trkpt>
      <trkpt lat="45.82641" lon="4.82132">
        <ele>454</ele>
        <time>2011-12-22T10:08:39Z</time>
      </trkpt>
      <trkpt lat="45.82638" lon="4.82124">
        <ele>454</ele>
        <time>2011-12-22T10:08:42Z</time>
      </trkpt>
      <trkpt lat="45.82637" lon="4.82119">
        <ele>454</ele>
        <time>2011-12-22T10:08:44Z</time>
      </trkpt>
      <trkpt lat="45.82631" lon="4.82098">
        <ele>454</ele>
        <time>2011-12-22T10:08:51Z</time>
      </trkpt>
      <trkpt lat="45.82626" lon="4.8208">
        <ele>454</ele>
        <time>2011-12-22T10:08:57Z</time>
      </trkpt>
      <trkpt lat="45.82623" lon="4.82073">
        <ele>455</ele>
        <time>2011-12-22T10:08:59Z</time>
      </trkpt>
      <trkpt lat="45.82622" lon="4.82063">
        <ele>455</ele>
        <time>2011-12-22T10:09:02Z</time>
      </trkpt>
      <trkpt lat="45.8262" lon="4.82047">
        <ele>455</ele>
        <time>2011-12-22T10:09:07Z</time>
      </trkpt>
      <trkpt lat="45.8262" lon="4.82039">
        <ele>455</ele>
        <time>2011-12-22T10:09:09Z</time>
      </trkpt>
      <trkpt lat="45.82622" lon="4.82022">
        <ele>456</ele>
        <time>2011-12-22T10:09:14Z</time>
      </trkpt>
      <trkpt lat="45.82623" lon="4.82019">
        <ele>456</ele>
        <time>2011-12-22T10:09:15Z</time>
      </trkpt>
      <trkpt lat="45.82624" lon="4.82018">
        <ele>455</ele>
        <time>2011-12-22T10:09:16Z</time>
      </trkpt>
      <trkpt lat="45.82627" lon="4.82019">
        <ele>455</ele>
        <time>2011-12-22T10:09:18Z</time>
      </trkpt>
      <trkpt lat="45.82634" lon="4.82019">
        <ele>455</ele>
        <time>2011-12-22T10:09:22Z</time>
      </trkpt>
      <trkpt lat="45.82641" lon="4.82022">
        <ele>454</ele>
        <time>2011-12-22T10:09:25Z</time>
      </trkpt>
      <trkpt lat="45.82645" lon="4.82025">
        <ele>454</ele>
        <time>2011-12-22T10:09:27Z</time>
      </trkpt>
      <trkpt lat="45.82652" lon="4.82024">
        <ele>454</ele>
        <time>2011-12-22T10:09:31Z</time>
      </trkpt>
      <trkpt lat="45.82655" lon="4.82025">
        <ele>453</ele>
        <time>2011-12-22T10:09:34Z</time>
      </trkpt>
      <trkpt lat="45.82657" lon="4.82023">
        <ele>453</ele>
        <time>2011-12-22T10:09:37Z</time>
      </trkpt>
      <trkpt lat="45.82658" lon="4.82024">
        <ele>453</ele>
        <time>2011-12-22T10:09:41Z</time>
      </trkpt>
      <trkpt lat="45.82659" lon="4.82024">
        <ele>453</ele>
        <time>2011-12-22T10:09:42Z</time>
      </trkpt>
      <trkpt lat="45.82662" lon="4.82026">
        <ele>453</ele>
        <time>2011-12-22T10:09:45Z</time>
      </trkpt>
      <trkpt lat="45.82663" lon="4.82026">
        <ele>453</ele>
        <time>2011-12-22T10:09:46Z</time>
      </trkpt>
      <trkpt lat="45.82667" lon="4.82023">
        <ele>445</ele>
        <time>2011-12-22T10:09:49Z</time>
      </trkpt>
      <trkpt lat="45.82669" lon="4.82021">
        <ele>445</ele>
        <time>2011-12-22T10:09:50Z</time>
      </trkpt>
      <trkpt lat="45.82671" lon="4.82018">
        <ele>446</ele>
        <time>2011-12-22T10:09:53Z</time>
      </trkpt>
      <trkpt lat="45.82675" lon="4.82014">
        <ele>446</ele>
        <time>2011-12-22T10:09:55Z</time>
      </trkpt>
      <trkpt lat="45.82677" lon="4.82011">
        <ele>446</ele>
        <time>2011-12-22T10:09:56Z</time>
      </trkpt>
      <trkpt lat="45.82683" lon="4.82005">
        <ele>446</ele>
        <time>2011-12-22T10:10:00Z</time>
      </trkpt>
      <trkpt lat="45.82686" lon="4.82002">
        <ele>445</ele>
        <time>2011-12-22T10:10:02Z</time>
      </trkpt>
      <trkpt lat="45.8269" lon="4.81999">
        <ele>447</ele>
        <time>2011-12-22T10:10:04Z</time>
      </trkpt>
      <trkpt lat="45.82695" lon="4.81999">
        <ele>446</ele>
        <time>2011-12-22T10:10:07Z</time>
      </trkpt>
      <trkpt lat="45.82699" lon="4.81998">
        <ele>445</ele>
        <time>2011-12-22T10:10:09Z</time>
      </trkpt>
      <trkpt lat="45.82704" lon="4.81997">
        <ele>444</ele>
        <time>2011-12-22T10:10:12Z</time>
      </trkpt>
      <trkpt lat="45.82706" lon="4.81997">
        <ele>444</ele>
        <time>2011-12-22T10:10:13Z</time>
      </trkpt>
      <trkpt lat="45.8271" lon="4.81996">
        <ele>443</ele>
        <time>2011-12-22T10:10:15Z</time>
      </trkpt>
      <trkpt lat="45.82717" lon="4.81992">
        <ele>442</ele>
        <time>2011-12-22T10:10:19Z</time>
      </trkpt>
      <trkpt lat="45.82726" lon="4.8199">
        <ele>441</ele>
        <time>2011-12-22T10:10:24Z</time>
      </trkpt>
      <trkpt lat="45.82728" lon="4.8199">
        <ele>440</ele>
        <time>2011-12-22T10:10:25Z</time>
      </trkpt>
      <trkpt lat="45.82733" lon="4.81988">
        <ele>439</ele>
        <time>2011-12-22T10:10:29Z</time>
      </trkpt>
      <trkpt lat="45.82742" lon="4.8199">
        <ele>437</ele>
        <time>2011-12-22T10:10:34Z</time>
      </trkpt>
      <trkpt lat="45.82745" lon="4.81991">
        <ele>436</ele>
        <time>2011-12-22T10:10:35Z</time>
      </trkpt>
      <trkpt lat="45.82747" lon="4.81991">
        <ele>436</ele>
        <time>2011-12-22T10:10:36Z</time>
      </trkpt>
      <trkpt lat="45.82756" lon="4.8199">
        <ele>431</ele>
        <time>2011-12-22T10:10:40Z</time>
      </trkpt>
      <trkpt lat="45.8276" lon="4.8199">
        <ele>430</ele>
        <time>2011-12-22T10:10:42Z</time>
      </trkpt>
      <trkpt lat="45.82762" lon="4.81987">
        <ele>430</ele>
        <time>2011-12-22T10:10:45Z</time>
      </trkpt>
      <trkpt lat="45.82763" lon="4.81987">
        <ele>430</ele>
        <time>2011-12-22T10:10:46Z</time>
      </trkpt>
      <trkpt lat="45.82768" lon="4.81987">
        <ele>430</ele>
        <time>2011-12-22T10:10:48Z</time>
      </trkpt>
      <trkpt lat="45.82771" lon="4.81986">
        <ele>429</ele>
        <time>2011-12-22T10:10:50Z</time>
      </trkpt>
      <trkpt lat="45.82771" lon="4.81987">
        <ele>429</ele>
        <time>2011-12-22T10:10:51Z</time>
      </trkpt>
      <trkpt lat="45.82776" lon="4.81991">
        <ele>429</ele>
        <time>2011-12-22T10:10:54Z</time>
      </trkpt>
      <trkpt lat="45.82782" lon="4.81997">
        <ele>428</ele>
        <time>2011-12-22T10:10:58Z</time>
      </trkpt>
      <trkpt lat="45.82784" lon="4.81998">
        <ele>428</ele>
        <time>2011-12-22T10:10:59Z</time>
      </trkpt>
      <trkpt lat="45.82788" lon="4.81997">
        <ele>427</ele>
        <time>2011-12-22T10:11:02Z</time>
      </trkpt>
      <trkpt lat="45.82789" lon="4.81996">
        <ele>427</ele>
        <time>2011-12-22T10:11:03Z</time>
      </trkpt>
      <trkpt lat="45.82797" lon="4.81996">
        <ele>426</ele>
        <time>2011-12-22T10:11:08Z</time>
      </trkpt>
      <trkpt lat="45.82799" lon="4.81994">
        <ele>426</ele>
        <time>2011-12-22T10:11:09Z</time>
      </trkpt>
      <trkpt lat="45.82803" lon="4.81994">
        <ele>425</ele>
        <time>2011-12-22T10:11:11Z</time>
      </trkpt>
      <trkpt lat="45.82805" lon="4.81995">
        <ele>425</ele>
        <time>2011-12-22T10:11:12Z</time>
      </trkpt>
      <trkpt lat="45.8281" lon="4.81995">
        <ele>424</ele>
        <time>2011-12-22T10:11:14Z</time>
      </trkpt>
      <trkpt lat="45.82822" lon="4.82001">
        <ele>419</ele>
        <time>2011-12-22T10:11:20Z</time>
      </trkpt>
      <trkpt lat="45.8283" lon="4.82004">
        <ele>417</ele>
        <time>2011-12-22T10:11:25Z</time>
      </trkpt>
      <trkpt lat="45.82839" lon="4.82006">
        <ele>414</ele>
        <time>2011-12-22T10:11:28Z</time>
      </trkpt>
      <trkpt lat="45.82841" lon="4.82008">
        <ele>413</ele>
        <time>2011-12-22T10:11:29Z</time>
      </trkpt>
      <trkpt lat="45.82842" lon="4.82009">
        <ele>413</ele>
        <time>2011-12-22T10:11:30Z</time>
      </trkpt>
      <trkpt lat="45.82852" lon="4.8201">
        <ele>411</ele>
        <time>2011-12-22T10:11:36Z</time>
      </trkpt>
      <trkpt lat="45.82857" lon="4.82009">
        <ele>411</ele>
        <time>2011-12-22T10:11:39Z</time>
      </trkpt>
      <trkpt lat="45.82862" lon="4.82006">
        <ele>410</ele>
        <time>2011-12-22T10:11:42Z</time>
      </trkpt>
      <trkpt lat="45.82873" lon="4.82007">
        <ele>408</ele>
        <time>2011-12-22T10:11:47Z</time>
      </trkpt>
      <trkpt lat="45.82875" lon="4.82008">
        <ele>408</ele>
        <time>2011-12-22T10:11:48Z</time>
      </trkpt>
      <trkpt lat="45.8288" lon="4.8201">
        <ele>408</ele>
        <time>2011-12-22T10:11:51Z</time>
      </trkpt>
      <trkpt lat="45.82892" lon="4.8201">
        <ele>406</ele>
        <time>2011-12-22T10:11:55Z</time>
      </trkpt>
      <trkpt lat="45.82894" lon="4.8201">
        <ele>405</ele>
        <time>2011-12-22T10:11:56Z</time>
      </trkpt>
      <trkpt lat="45.82896" lon="4.82006">
        <ele>405</ele>
        <time>2011-12-22T10:11:58Z</time>
      </trkpt>
      <trkpt lat="45.82898" lon="4.82003">
        <ele>404</ele>
        <time>2011-12-22T10:12:00Z</time>
      </trkpt>
      <trkpt lat="45.82901" lon="4.82002">
        <ele>403</ele>
        <time>2011-12-22T10:12:02Z</time>
      </trkpt>
      <trkpt lat="45.82903" lon="4.82001">
        <ele>403</ele>
        <time>2011-12-22T10:12:05Z</time>
      </trkpt>
      <trkpt lat="45.82908" lon="4.82">
        <ele>402</ele>
        <time>2011-12-22T10:12:10Z</time>
      </trkpt>
      <trkpt lat="45.82909" lon="4.81999">
        <ele>402</ele>
        <time>2011-12-22T10:12:12Z</time>
      </trkpt>
      <trkpt lat="45.82911" lon="4.82">
        <ele>401</ele>
        <time>2011-12-22T10:12:13Z</time>
      </trkpt>
      <trkpt lat="45.82914" lon="4.82001">
        <ele>400</ele>
        <time>2011-12-22T10:12:15Z</time>
      </trkpt>
      <trkpt lat="45.82923" lon="4.82001">
        <ele>398</ele>
        <time>2011-12-22T10:12:20Z</time>
      </trkpt>
      <trkpt lat="45.8293" lon="4.82">
        <ele>397</ele>
        <time>2011-12-22T10:12:22Z</time>
      </trkpt>
      <trkpt lat="45.82936" lon="4.81999">
        <ele>396</ele>
        <time>2011-12-22T10:12:25Z</time>
      </trkpt>
      <trkpt lat="45.82945" lon="4.81997">
        <ele>395</ele>
        <time>2011-12-22T10:12:30Z</time>
      </trkpt>
      <trkpt lat="45.82949" lon="4.81996">
        <ele>395</ele>
        <time>2011-12-22T10:12:33Z</time>
      </trkpt>
      <trkpt lat="45.82954" lon="4.81995">
        <ele>395</ele>
        <time>2011-12-22T10:12:35Z</time>
      </trkpt>
      <trkpt lat="45.82957" lon="4.81993">
        <ele>394</ele>
        <time>2011-12-22T10:12:40Z</time>
      </trkpt>
      <trkpt lat="45.82964" lon="4.81993">
        <ele>394</ele>
        <time>2011-12-22T10:12:44Z</time>
      </trkpt>
      <trkpt lat="45.82967" lon="4.81992">
        <ele>393</ele>
        <time>2011-12-22T10:12:45Z</time>
      </trkpt>
      <trkpt lat="45.82968" lon="4.81992">
        <ele>393</ele>
        <time>2011-12-22T10:12:46Z</time>
      </trkpt>
      <trkpt lat="45.82969" lon="4.81993">
        <ele>393</ele>
        <time>2011-12-22T10:12:47Z</time>
      </trkpt>
      <trkpt lat="45.8297" lon="4.81995">
        <ele>393</ele>
        <time>2011-12-22T10:12:48Z</time>
      </trkpt>
      <trkpt lat="45.82971" lon="4.81997">
        <ele>393</ele>
        <time>2011-12-22T10:12:51Z</time>
      </trkpt>
      <trkpt lat="45.8297" lon="4.81996">
        <ele>393</ele>
        <time>2011-12-22T10:12:52Z</time>
      </trkpt>
      <trkpt lat="45.8297" lon="4.81994">
        <ele>393</ele>
        <time>2011-12-22T10:12:53Z</time>
      </trkpt>
      <trkpt lat="45.82971" lon="4.81992">
        <ele>393</ele>
        <time>2011-12-22T10:12:57Z</time>
      </trkpt>
      <trkpt lat="45.82966" lon="4.81993">
        <ele>393</ele>
        <time>2011-12-22T10:13:07Z</time>
      </trkpt>
      <trkpt lat="45.82961" lon="4.81996">
        <ele>394</ele>
        <time>2011-12-22T10:13:10Z</time>
      </trkpt>
      <trkpt lat="45.8296" lon="4.81996">
        <ele>394</ele>
        <time>2011-12-22T10:13:11Z</time>
      </trkpt>
      <trkpt lat="45.82959" lon="4.81997">
        <ele>394</ele>
        <time>2011-12-22T10:13:14Z</time>
      </trkpt>
      <trkpt lat="45.82957" lon="4.81995">
        <ele>394</ele>
        <time>2011-12-22T10:13:16Z</time>
      </trkpt>
      <trkpt lat="45.82953" lon="4.81993">
        <ele>395</ele>
        <time>2011-12-22T10:13:19Z</time>
      </trkpt>
      <trkpt lat="45.82951" lon="4.81987">
        <ele>395</ele>
        <time>2011-12-22T10:13:23Z</time>
      </trkpt>
      <trkpt lat="45.82949" lon="4.81983">
        <ele>395</ele>
        <time>2011-12-22T10:13:26Z</time>
      </trkpt>
      <trkpt lat="45.82947" lon="4.81979">
        <ele>395</ele>
        <time>2011-12-22T10:13:28Z</time>
      </trkpt>
      <trkpt lat="45.82947" lon="4.81977">
        <ele>395</ele>
        <time>2011-12-22T10:13:29Z</time>
      </trkpt>
      <trkpt lat="45.82947" lon="4.81976">
        <ele>395</ele>
        <time>2011-12-22T10:13:30Z</time>
      </trkpt>
      <trkpt lat="45.82946" lon="4.81973">
        <ele>395</ele>
        <time>2011-12-22T10:13:33Z</time>
      </trkpt>
      <trkpt lat="45.82946" lon="4.81972">
        <ele>395</ele>
        <time>2011-12-22T10:13:34Z</time>
      </trkpt>
      <trkpt lat="45.82943" lon="4.81968">
        <ele>396</ele>
        <time>2011-12-22T10:13:37Z</time>
      </trkpt>
      <trkpt lat="45.82942" lon="4.81966">
        <ele>396</ele>
        <time>2011-12-22T10:13:39Z</time>
      </trkpt>
      <trkpt lat="45.82941" lon="4.81965">
        <ele>396</ele>
        <time>2011-12-22T10:13:40Z</time>
      </trkpt>
      <trkpt lat="45.82938" lon="4.81963">
        <ele>396</ele>
        <time>2011-12-22T10:13:43Z</time>
      </trkpt>
      <trkpt lat="45.82938" lon="4.81959">
        <ele>396</ele>
        <time>2011-12-22T10:13:45Z</time>
      </trkpt>
      <trkpt lat="45.82935" lon="4.81955">
        <ele>397</ele>
        <time>2011-12-22T10:13:52Z</time>
      </trkpt>
      <trkpt lat="45.82934" lon="4.81954">
        <ele>397</ele>
        <time>2011-12-22T10:13:53Z</time>
      </trkpt>
      <trkpt lat="45.82933" lon="4.81952">
        <ele>397</ele>
        <time>2011-12-22T10:13:56Z</time>
      </trkpt>
      <trkpt lat="45.82934" lon="4.81949">
        <ele>397</ele>
        <time>2011-12-22T10:13:59Z</time>
      </trkpt>
      <trkpt lat="45.82937" lon="4.81946">
        <ele>397</ele>
        <time>2011-12-22T10:14:01Z</time>
      </trkpt>
      <trkpt lat="45.82936" lon="4.81944">
        <ele>397</ele>
        <time>2011-12-22T10:14:02Z</time>
      </trkpt>
      <trkpt lat="45.82935" lon="4.81941">
        <ele>397</ele>
        <time>2011-12-22T10:14:04Z</time>
      </trkpt>
      <trkpt lat="45.82931" lon="4.81937">
        <ele>398</ele>
        <time>2011-12-22T10:14:07Z</time>
      </trkpt>
      <trkpt lat="45.82931" lon="4.81936">
        <ele>398</ele>
        <time>2011-12-22T10:14:08Z</time>
      </trkpt>
      <trkpt lat="45.8293" lon="4.81932">
        <ele>399</ele>
        <time>2011-12-22T10:14:13Z</time>
      </trkpt>
      <trkpt lat="45.82927" lon="4.8193">
        <ele>400</ele>
        <time>2011-12-22T10:14:17Z</time>
      </trkpt>
      <trkpt lat="45.82924" lon="4.8193">
        <ele>400</ele>
        <time>2011-12-22T10:14:20Z</time>
      </trkpt>
      <trkpt lat="45.82922" lon="4.81928">
        <ele>401</ele>
        <time>2011-12-22T10:14:22Z</time>
      </trkpt>
      <trkpt lat="45.82921" lon="4.81927">
        <ele>401</ele>
        <time>2011-12-22T10:14:24Z</time>
      </trkpt>
      <trkpt lat="45.8292" lon="4.81926">
        <ele>402</ele>
        <time>2011-12-22T10:14:26Z</time>
      </trkpt>
      <trkpt lat="45.8292" lon="4.81925">
        <ele>402</ele>
        <time>2011-12-22T10:14:27Z</time>
      </trkpt>
      <trkpt lat="45.82916" lon="4.81922">
        <ele>406</ele>
        <time>2011-12-22T10:14:31Z</time>
      </trkpt>
      <trkpt lat="45.82914" lon="4.81919">
        <ele>406</ele>
        <time>2011-12-22T10:14:33Z</time>
      </trkpt>
      <trkpt lat="45.82911" lon="4.81919">
        <ele>406</ele>
        <time>2011-12-22T10:14:37Z</time>
      </trkpt>
      <trkpt lat="45.8291" lon="4.8192">
        <ele>407</ele>
        <time>2011-12-22T10:14:39Z</time>
      </trkpt>
      <trkpt lat="45.82909" lon="4.81922">
        <ele>407</ele>
        <time>2011-12-22T10:14:41Z</time>
      </trkpt>
      <trkpt lat="45.82908" lon="4.81922">
        <ele>407</ele>
        <time>2011-12-22T10:14:44Z</time>
      </trkpt>
      <trkpt lat="45.82905" lon="4.81924">
        <ele>408</ele>
        <time>2011-12-22T10:14:48Z</time>
      </trkpt>
      <trkpt lat="45.82904" lon="4.81926">
        <ele>408</ele>
        <time>2011-12-22T10:14:49Z</time>
      </trkpt>
      <trkpt lat="45.82903" lon="4.81928">
        <ele>408</ele>
        <time>2011-12-22T10:14:51Z</time>
      </trkpt>
      <trkpt lat="45.829" lon="4.81929">
        <ele>409</ele>
        <time>2011-12-22T10:14:52Z</time>
      </trkpt>
      <trkpt lat="45.829" lon="4.81929">
        <ele>409</ele>
        <time>2011-12-22T10:14:54Z</time>
      </trkpt>
      <trkpt lat="45.82898" lon="4.81928">
        <ele>409</ele>
        <time>2011-12-22T10:14:57Z</time>
      </trkpt>
      <trkpt lat="45.82895" lon="4.81926">
        <ele>409</ele>
        <time>2011-12-22T10:15:00Z</time>
      </trkpt>
      <trkpt lat="45.82887" lon="4.81918">
        <ele>410</ele>
        <time>2011-12-22T10:15:06Z</time>
      </trkpt>
      <trkpt lat="45.82885" lon="4.81917">
        <ele>411</ele>
        <time>2011-12-22T10:15:07Z</time>
      </trkpt>
      <trkpt lat="45.82884" lon="4.81916">
        <ele>414</ele>
        <time>2011-12-22T10:15:08Z</time>
      </trkpt>
      <trkpt lat="45.82882" lon="4.81906">
        <ele>415</ele>
        <time>2011-12-22T10:15:14Z</time>
      </trkpt>
      <trkpt lat="45.82881" lon="4.81897">
        <ele>415</ele>
        <time>2011-12-22T10:15:19Z</time>
      </trkpt>
      <trkpt lat="45.82879" lon="4.81893">
        <ele>416</ele>
        <time>2011-12-22T10:15:26Z</time>
      </trkpt>
      <trkpt lat="45.82878" lon="4.81892">
        <ele>416</ele>
        <time>2011-12-22T10:15:27Z</time>
      </trkpt>
      <trkpt lat="45.82875" lon="4.81886">
        <ele>416</ele>
        <time>2011-12-22T10:15:32Z</time>
      </trkpt>
      <trkpt lat="45.82875" lon="4.81885">
        <ele>416</ele>
        <time>2011-12-22T10:15:33Z</time>
      </trkpt>
      <trkpt lat="45.82876" lon="4.8188">
        <ele>416</ele>
        <time>2011-12-22T10:15:38Z</time>
      </trkpt>
      <trkpt lat="45.82873" lon="4.81875">
        <ele>417</ele>
        <time>2011-12-22T10:15:43Z</time>
      </trkpt>
      <trkpt lat="45.82871" lon="4.81875">
        <ele>417</ele>
        <time>2011-12-22T10:15:45Z</time>
      </trkpt>
      <trkpt lat="45.82869" lon="4.81872">
        <ele>417</ele>
        <time>2011-12-22T10:15:48Z</time>
      </trkpt>
      <trkpt lat="45.82867" lon="4.81867">
        <ele>418</ele>
        <time>2011-12-22T10:15:52Z</time>
      </trkpt>
      <trkpt lat="45.82864" lon="4.81864">
        <ele>418</ele>
        <time>2011-12-22T10:15:56Z</time>
      </trkpt>
      <trkpt lat="45.82862" lon="4.81862">
        <ele>418</ele>
        <time>2011-12-22T10:15:58Z</time>
      </trkpt>
      <trkpt lat="45.82861" lon="4.8186">
        <ele>419</ele>
        <time>2011-12-22T10:16:00Z</time>
      </trkpt>
      <trkpt lat="45.82858" lon="4.81857">
        <ele>419</ele>
        <time>2011-12-22T10:16:04Z</time>
      </trkpt>
      <trkpt lat="45.82856" lon="4.81856">
        <ele>419</ele>
        <time>2011-12-22T10:16:06Z</time>
      </trkpt>
      <trkpt lat="45.82855" lon="4.81856">
        <ele>419</ele>
        <time>2011-12-22T10:16:07Z</time>
      </trkpt>
      <trkpt lat="45.82849" lon="4.81853">
        <ele>420</ele>
        <time>2011-12-22T10:16:14Z</time>
      </trkpt>
      <trkpt lat="45.82848" lon="4.81853">
        <ele>421</ele>
        <time>2011-12-22T10:16:15Z</time>
      </trkpt>
      <trkpt lat="45.82844" lon="4.81853">
        <ele>421</ele>
        <time>2011-12-22T10:16:19Z</time>
      </trkpt>
      <trkpt lat="45.82843" lon="4.81852">
        <ele>421</ele>
        <time>2011-12-22T10:16:20Z</time>
      </trkpt>
      <trkpt lat="45.82843" lon="4.81851">
        <ele>421</ele>
        <time>2011-12-22T10:16:21Z</time>
      </trkpt>
      <trkpt lat="45.82841" lon="4.81854">
        <ele>421</ele>
        <time>2011-12-22T10:16:25Z</time>
      </trkpt>
      <trkpt lat="45.8284" lon="4.81854">
        <ele>421</ele>
        <time>2011-12-22T10:16:26Z</time>
      </trkpt>
      <trkpt lat="45.82837" lon="4.81855">
        <ele>421</ele>
        <time>2011-12-22T10:16:31Z</time>
      </trkpt>
      <trkpt lat="45.82836" lon="4.81854">
        <ele>422</ele>
        <time>2011-12-22T10:16:32Z</time>
      </trkpt>
      <trkpt lat="45.82835" lon="4.81856">
        <ele>421</ele>
        <time>2011-12-22T10:16:38Z</time>
      </trkpt>
      <trkpt lat="45.82834" lon="4.81856">
        <ele>421</ele>
        <time>2011-12-22T10:16:39Z</time>
      </trkpt>
      <trkpt lat="45.82834" lon="4.81858">
        <ele>421</ele>
        <time>2011-12-22T10:16:41Z</time>
      </trkpt>
      <trkpt lat="45.82833" lon="4.8186">
        <ele>430</ele>
        <time>2011-12-22T10:16:43Z</time>
      </trkpt>
      <trkpt lat="45.8283" lon="4.81862">
        <ele>430</ele>
        <time>2011-12-22T10:16:46Z</time>
      </trkpt>
      <trkpt lat="45.82826" lon="4.81865">
        <ele>430</ele>
        <time>2011-12-22T10:16:49Z</time>
      </trkpt>
      <trkpt lat="45.82823" lon="4.81869">
        <ele>430</ele>
        <time>2011-12-22T10:16:52Z</time>
      </trkpt>
      <trkpt lat="45.82823" lon="4.8187">
        <ele>430</ele>
        <time>2011-12-22T10:16:53Z</time>
      </trkpt>
      <trkpt lat="45.82822" lon="4.81871">
        <ele>431</ele>
        <time>2011-12-22T10:16:54Z</time>
      </trkpt>
      <trkpt lat="45.82819" lon="4.81875">
        <ele>431</ele>
        <time>2011-12-22T10:17:00Z</time>
      </trkpt>
      <trkpt lat="45.82819" lon="4.81876">
        <ele>431</ele>
        <time>2011-12-22T10:17:01Z</time>
      </trkpt>
      <trkpt lat="45.82818" lon="4.81879">
        <ele>431</ele>
        <time>2011-12-22T10:17:03Z</time>
      </trkpt>
      <trkpt lat="45.82817" lon="4.81882">
        <ele>431</ele>
        <time>2011-12-22T10:17:05Z</time>
      </trkpt>
      <trkpt lat="45.82815" lon="4.81883">
        <ele>431</ele>
        <time>2011-12-22T10:17:07Z</time>
      </trkpt>
      <trkpt lat="45.82812" lon="4.81883">
        <ele>431</ele>
        <time>2011-12-22T10:17:09Z</time>
      </trkpt>
      <trkpt lat="45.82811" lon="4.81884">
        <ele>431</ele>
        <time>2011-12-22T10:17:10Z</time>
      </trkpt>
      <trkpt lat="45.82811" lon="4.81884">
        <ele>431</ele>
        <time>2011-12-22T10:17:11Z</time>
      </trkpt>
      <trkpt lat="45.8281" lon="4.81892">
        <ele>431</ele>
        <time>2011-12-22T10:17:16Z</time>
      </trkpt>
      <trkpt lat="45.82811" lon="4.81893">
        <ele>431</ele>
        <time>2011-12-22T10:17:17Z</time>
      </trkpt>
      <trkpt lat="45.82816" lon="4.81898">
        <ele>430</ele>
        <time>2011-12-22T10:17:21Z</time>
      </trkpt>
      <trkpt lat="45.82815" lon="4.81903">
        <ele>429</ele>
        <time>2011-12-22T10:17:24Z</time>
      </trkpt>
      <trkpt lat="45.82815" lon="4.81905">
        <ele>429</ele>
        <time>2011-12-22T10:17:26Z</time>
      </trkpt>
      <trkpt lat="45.82815" lon="4.81909">
        <ele>429</ele>
        <time>2011-12-22T10:17:29Z</time>
      </trkpt>
      <trkpt lat="45.82815" lon="4.81911">
        <ele>429</ele>
        <time>2011-12-22T10:17:30Z</time>
      </trkpt>
      <trkpt lat="45.82812" lon="4.81912">
        <ele>429</ele>
        <time>2011-12-22T10:17:32Z</time>
      </trkpt>
      <trkpt lat="45.82811" lon="4.81913">
        <ele>430</ele>
        <time>2011-12-22T10:17:33Z</time>
      </trkpt>
      <trkpt lat="45.82809" lon="4.81914">
        <ele>430</ele>
        <time>2011-12-22T10:17:35Z</time>
      </trkpt>
      <trkpt lat="45.82805" lon="4.81916">
        <ele>431</ele>
        <time>2011-12-22T10:17:38Z</time>
      </trkpt>
      <trkpt lat="45.82803" lon="4.81918">
        <ele>428</ele>
        <time>2011-12-22T10:17:40Z</time>
      </trkpt>
      <trkpt lat="45.82797" lon="4.81924">
        <ele>429</ele>
        <time>2011-12-22T10:17:44Z</time>
      </trkpt>
      <trkpt lat="45.82796" lon="4.81925">
        <ele>429</ele>
        <time>2011-12-22T10:17:45Z</time>
      </trkpt>
      <trkpt lat="45.82793" lon="4.81926">
        <ele>429</ele>
        <time>2011-12-22T10:17:51Z</time>
      </trkpt>
      <trkpt lat="45.8279" lon="4.81921">
        <ele>430</ele>
        <time>2011-12-22T10:17:56Z</time>
      </trkpt>
      <trkpt lat="45.82789" lon="4.81921">
        <ele>430</ele>
        <time>2011-12-22T10:17:57Z</time>
      </trkpt>
      <trkpt lat="45.82785" lon="4.81918">
        <ele>431</ele>
        <time>2011-12-22T10:18:02Z</time>
      </trkpt>
      <trkpt lat="45.82783" lon="4.81919">
        <ele>431</ele>
        <time>2011-12-22T10:18:04Z</time>
      </trkpt>
      <trkpt lat="45.82781" lon="4.81919">
        <ele>432</ele>
        <time>2011-12-22T10:18:05Z</time>
      </trkpt>
      <trkpt lat="45.82776" lon="4.81921">
        <ele>433</ele>
        <time>2011-12-22T10:18:09Z</time>
      </trkpt>
      <trkpt lat="45.82773" lon="4.8192">
        <ele>433</ele>
        <time>2011-12-22T10:18:11Z</time>
      </trkpt>
      <trkpt lat="45.82771" lon="4.81919">
        <ele>434</ele>
        <time>2011-12-22T10:18:13Z</time>
      </trkpt>
      <trkpt lat="45.8277" lon="4.81919">
        <ele>434</ele>
        <time>2011-12-22T10:18:14Z</time>
      </trkpt>
      <trkpt lat="45.82765" lon="4.81918">
        <ele>435</ele>
        <time>2011-12-22T10:18:20Z</time>
      </trkpt>
      <trkpt lat="45.82765" lon="4.81917">
        <ele>437</ele>
        <time>2011-12-22T10:18:21Z</time>
      </trkpt>
      <trkpt lat="45.82766" lon="4.81914">
        <ele>437</ele>
        <time>2011-12-22T10:18:23Z</time>
      </trkpt>
      <trkpt lat="45.82765" lon="4.81911">
        <ele>437</ele>
        <time>2011-12-22T10:18:25Z</time>
      </trkpt>
      <trkpt lat="45.82765" lon="4.8191">
        <ele>437</ele>
        <time>2011-12-22T10:18:26Z</time>
      </trkpt>
      <trkpt lat="45.82764" lon="4.81905">
        <ele>437</ele>
        <time>2011-12-22T10:18:28Z</time>
      </trkpt>
      <trkpt lat="45.82763" lon="4.81902">
        <ele>436</ele>
        <time>2011-12-22T10:18:30Z</time>
      </trkpt>
      <trkpt lat="45.82761" lon="4.81892">
        <ele>436</ele>
        <time>2011-12-22T10:18:36Z</time>
      </trkpt>
      <trkpt lat="45.82761" lon="4.81891">
        <ele>436</ele>
        <time>2011-12-22T10:18:37Z</time>
      </trkpt>
      <trkpt lat="45.8276" lon="4.8189">
        <ele>436</ele>
        <time>2011-12-22T10:18:38Z</time>
      </trkpt>
      <trkpt lat="45.82758" lon="4.81889">
        <ele>436</ele>
        <time>2011-12-22T10:18:41Z</time>
      </trkpt>
      <trkpt lat="45.82753" lon="4.81888">
        <ele>436</ele>
        <time>2011-12-22T10:18:54Z</time>
      </trkpt>
      <trkpt lat="45.82751" lon="4.81888">
        <ele>436</ele>
        <time>2011-12-22T10:18:58Z</time>
      </trkpt>
      <trkpt lat="45.8275" lon="4.81893">
        <ele>444</ele>
        <time>2011-12-22T10:19:06Z</time>
      </trkpt>
      <trkpt lat="45.82746" lon="4.81897">
        <ele>444</ele>
        <time>2011-12-22T10:19:10Z</time>
      </trkpt>
      <trkpt lat="45.82745" lon="4.81899">
        <ele>444</ele>
        <time>2011-12-22T10:19:12Z</time>
      </trkpt>
      <trkpt lat="45.82744" lon="4.81901">
        <ele>443</ele>
        <time>2011-12-22T10:19:14Z</time>
      </trkpt>
      <trkpt lat="45.8274" lon="4.81902">
        <ele>444</ele>
        <time>2011-12-22T10:19:18Z</time>
      </trkpt>
      <trkpt lat="45.82739" lon="4.81902">
        <ele>444</ele>
        <time>2011-12-22T10:19:19Z</time>
      </trkpt>
      <trkpt lat="45.82737" lon="4.81903">
        <ele>444</ele>
        <time>2011-12-22T10:19:21Z</time>
      </trkpt>
      <trkpt lat="45.82736" lon="4.81904">
        <ele>444</ele>
        <time>2011-12-22T10:19:23Z</time>
      </trkpt>
      <trkpt lat="45.82734" lon="4.81906">
        <ele>444</ele>
        <time>2011-12-22T10:19:26Z</time>
      </trkpt>
      <trkpt lat="45.82733" lon="4.81908">
        <ele>444</ele>
        <time>2011-12-22T10:19:28Z</time>
      </trkpt>
      <trkpt lat="45.82731" lon="4.81908">
        <ele>444</ele>
        <time>2011-12-22T10:19:29Z</time>
      </trkpt>
      <trkpt lat="45.82729" lon="4.8191">
        <ele>444</ele>
        <time>2011-12-22T10:19:33Z</time>
      </trkpt>
      <trkpt lat="45.82727" lon="4.81912">
        <ele>445</ele>
        <time>2011-12-22T10:19:36Z</time>
      </trkpt>
      <trkpt lat="45.82725" lon="4.81913">
        <ele>445</ele>
        <time>2011-12-22T10:19:38Z</time>
      </trkpt>
      <trkpt lat="45.82722" lon="4.81915">
        <ele>445</ele>
        <time>2011-12-22T10:19:43Z</time>
      </trkpt>
      <trkpt lat="45.82721" lon="4.81916">
        <ele>445</ele>
        <time>2011-12-22T10:19:44Z</time>
      </trkpt>
      <trkpt lat="45.8272" lon="4.81916">
        <ele>445</ele>
        <time>2011-12-22T10:19:45Z</time>
      </trkpt>
      <trkpt lat="45.82718" lon="4.81919">
        <ele>445</ele>
        <time>2011-12-22T10:19:47Z</time>
      </trkpt>
      <trkpt lat="45.82718" lon="4.81921">
        <ele>445</ele>
        <time>2011-12-22T10:19:49Z</time>
      </trkpt>
      <trkpt lat="45.82716" lon="4.81922">
        <ele>445</ele>
        <time>2011-12-22T10:19:51Z</time>
      </trkpt>
      <trkpt lat="45.82715" lon="4.81923">
        <ele>445</ele>
        <time>2011-12-22T10:19:52Z</time>
      </trkpt>
      <trkpt lat="45.82712" lon="4.81925">
        <ele>445</ele>
        <time>2011-12-22T10:19:54Z</time>
      </trkpt>
      <trkpt lat="45.82706" lon="4.81927">
        <ele>446</ele>
        <time>2011-12-22T10:19:58Z</time>
      </trkpt>
      <trkpt lat="45.82705" lon="4.81926">
        <ele>446</ele>
        <time>2011-12-22T10:20:00Z</time>
      </trkpt>
      <trkpt lat="45.82703" lon="4.81925">
        <ele>446</ele>
        <time>2011-12-22T10:20:03Z</time>
      </trkpt>
      <trkpt lat="45.82699" lon="4.81923">
        <ele>447</ele>
        <time>2011-12-22T10:20:06Z</time>
      </trkpt>
      <trkpt lat="45.82694" lon="4.81922">
        <ele>448</ele>
        <time>2011-12-22T10:20:10Z</time>
      </trkpt>
      <trkpt lat="45.82693" lon="4.81922">
        <ele>448</ele>
        <time>2011-12-22T10:20:11Z</time>
      </trkpt>
      <trkpt lat="45.82687" lon="4.81925">
        <ele>449</ele>
        <time>2011-12-22T10:20:17Z</time>
      </trkpt>
      <trkpt lat="45.82685" lon="4.81923">
        <ele>449</ele>
        <time>2011-12-22T10:20:19Z</time>
      </trkpt>
      <trkpt lat="45.82681" lon="4.81923">
        <ele>450</ele>
        <time>2011-12-22T10:20:23Z</time>
      </trkpt>
      <trkpt lat="45.82676" lon="4.81925">
        <ele>450</ele>
        <time>2011-12-22T10:20:27Z</time>
      </trkpt>
      <trkpt lat="45.82674" lon="4.81922">
        <ele>451</ele>
        <time>2011-12-22T10:20:30Z</time>
      </trkpt>
      <trkpt lat="45.82669" lon="4.81922">
        <ele>452</ele>
        <time>2011-12-22T10:20:34Z</time>
      </trkpt>
      <trkpt lat="45.82667" lon="4.81923">
        <ele>452</ele>
        <time>2011-12-22T10:20:36Z</time>
      </trkpt>
      <trkpt lat="45.82665" lon="4.8192">
        <ele>454</ele>
        <time>2011-12-22T10:20:42Z</time>
      </trkpt>
      <trkpt lat="45.82663" lon="4.81926">
        <ele>454</ele>
        <time>2011-12-22T10:20:48Z</time>
      </trkpt>
      <trkpt lat="45.82659" lon="4.81931">
        <ele>455</ele>
        <time>2011-12-22T10:20:55Z</time>
      </trkpt>
      <trkpt lat="45.82658" lon="4.81932">
        <ele>455</ele>
        <time>2011-12-22T10:20:56Z</time>
      </trkpt>
      <trkpt lat="45.82652" lon="4.81934">
        <ele>455</ele>
        <time>2011-12-22T10:21:05Z</time>
      </trkpt>
      <trkpt lat="45.82645" lon="4.81934">
        <ele>455</ele>
        <time>2011-12-22T10:21:12Z</time>
      </trkpt>
      <trkpt lat="45.82644" lon="4.81932">
        <ele>455</ele>
        <time>2011-12-22T10:21:21Z</time>
      </trkpt>
      <trkpt lat="45.82642" lon="4.81935">
        <ele>455</ele>
        <time>2011-12-22T10:21:30Z</time>
      </trkpt>
      <trkpt lat="45.8264" lon="4.81942">
        <ele>455</ele>
        <time>2011-12-22T10:21:39Z</time>
      </trkpt>
      <trkpt lat="45.8264" lon="4.81945">
        <ele>455</ele>
        <time>2011-12-22T10:21:42Z</time>
      </trkpt>
      <trkpt lat="45.8264" lon="4.81949">
        <ele>455</ele>
        <time>2011-12-22T10:21:44Z</time>
      </trkpt>
      <trkpt lat="45.82638" lon="4.81952">
        <ele>455</ele>
        <time>2011-12-22T10:21:47Z</time>
      </trkpt>
      <trkpt lat="45.82636" lon="4.81954">
        <ele>455</ele>
        <time>2011-12-22T10:21:49Z</time>
      </trkpt>
      <trkpt lat="45.82634" lon="4.81962">
        <ele>455</ele>
        <time>2011-12-22T10:21:52Z</time>
      </trkpt>
      <trkpt lat="45.82634" lon="4.81964">
        <ele>455</ele>
        <time>2011-12-22T10:21:53Z</time>
      </trkpt>
      <trkpt lat="45.82634" lon="4.81966">
        <ele>455</ele>
        <time>2011-12-22T10:21:54Z</time>
      </trkpt>
      <trkpt lat="45.82633" lon="4.81976">
        <ele>455</ele>
        <time>2011-12-22T10:21:57Z</time>
      </trkpt>
      <trkpt lat="45.82632" lon="4.81979">
        <ele>455</ele>
        <time>2011-12-22T10:21:58Z</time>
      </trkpt>
      <trkpt lat="45.82631" lon="4.81986">
        <ele>455</ele>
        <time>2011-12-22T10:22:00Z</time>
      </trkpt>
      <trkpt lat="45.82629" lon="4.81997">
        <ele>456</ele>
        <time>2011-12-22T10:22:03Z</time>
      </trkpt>
      <trkpt lat="45.82628" lon="4.82004">
        <ele>455</ele>
        <time>2011-12-22T10:22:05Z</time>
      </trkpt>
      <trkpt lat="45.82626" lon="4.82015">
        <ele>455</ele>
        <time>2011-12-22T10:22:08Z</time>
      </trkpt>
      <trkpt lat="45.82624" lon="4.82029">
        <ele>455</ele>
        <time>2011-12-22T10:22:12Z</time>
      </trkpt>
      <trkpt lat="45.82623" lon="4.82043">
        <ele>455</ele>
        <time>2011-12-22T10:22:17Z</time>
      </trkpt>
      <trkpt lat="45.82625" lon="4.82058">
        <ele>455</ele>
        <time>2011-12-22T10:22:21Z</time>
      </trkpt>
      <trkpt lat="45.82625" lon="4.82065">
        <ele>455</ele>
        <time>2011-12-22T10:22:23Z</time>
      </trkpt>
      <trkpt lat="45.82628" lon="4.82085">
        <ele>454</ele>
        <time>2011-12-22T10:22:28Z</time>
      </trkpt>
      <trkpt lat="45.82629" lon="4.82089">
        <ele>454</ele>
        <time>2011-12-22T10:22:29Z</time>
      </trkpt>
      <trkpt lat="45.82632" lon="4.82103">
        <ele>454</ele>
        <time>2011-12-22T10:22:33Z</time>
      </trkpt>
      <trkpt lat="45.82633" lon="4.82106">
        <ele>454</ele>
        <time>2011-12-22T10:22:34Z</time>
      </trkpt>
      <trkpt lat="45.82635" lon="4.82112">
        <ele>454</ele>
        <time>2011-12-22T10:22:36Z</time>
      </trkpt>
      <trkpt lat="45.82637" lon="4.82118">
        <ele>454</ele>
        <time>2011-12-22T10:22:38Z</time>
      </trkpt>
      <trkpt lat="45.82642" lon="4.82137">
        <ele>454</ele>
        <time>2011-12-22T10:22:44Z</time>
      </trkpt>
      <trkpt lat="45.82643" lon="4.8214">
        <ele>454</ele>
        <time>2011-12-22T10:22:45Z</time>
      </trkpt>
      <trkpt lat="45.82651" lon="4.82162">
        <ele>454</ele>
        <time>2011-12-22T10:22:52Z</time>
      </trkpt>
      <trkpt lat="45.82658" lon="4.82179">
        <ele>455</ele>
        <time>2011-12-22T10:22:58Z</time>
      </trkpt>
      <trkpt lat="45.8266" lon="4.82184">
        <ele>455</ele>
        <time>2011-12-22T10:23:00Z</time>
      </trkpt>
      <trkpt lat="45.82661" lon="4.82188">
        <ele>455</ele>
        <time>2011-12-22T10:23:01Z</time>
      </trkpt>
      <trkpt lat="45.82661" lon="4.82194">
        <ele>456</ele>
        <time>2011-12-22T10:23:03Z</time>
      </trkpt>
      <trkpt lat="45.82654" lon="4.82198">
        <ele>456</ele>
        <time>2011-12-22T10:23:07Z</time>
      </trkpt>
      <trkpt lat="45.82647" lon="4.822">
        <ele>456</ele>
        <time>2011-12-22T10:23:11Z</time>
      </trkpt>
      <trkpt lat="45.82643" lon="4.82201">
        <ele>456</ele>
        <time>2011-12-22T10:23:13Z</time>
      </trkpt>
      <trkpt lat="45.82635" lon="4.82202">
        <ele>457</ele>
        <time>2011-12-22T10:23:18Z</time>
      </trkpt>
      <trkpt lat="45.82632" lon="4.82203">
        <ele>457</ele>
        <time>2011-12-22T10:23:20Z</time>
      </trkpt>
      <trkpt lat="45.82629" lon="4.82205">
        <ele>457</ele>
        <time>2011-12-22T10:23:22Z</time>
      </trkpt>
      <trkpt lat="45.82627" lon="4.82205">
        <ele>457</ele>
        <time>2011-12-22T10:23:23Z</time>
      </trkpt>
      <trkpt lat="45.82623" lon="4.82206">
        <ele>457</ele>
        <time>2011-12-22T10:23:25Z</time>
      </trkpt>
      <trkpt lat="45.82616" lon="4.82209">
        <ele>458</ele>
        <time>2011-12-22T10:23:29Z</time>
      </trkpt>
      <trkpt lat="45.82611" lon="4.82211">
        <ele>458</ele>
        <time>2011-12-22T10:23:32Z</time>
      </trkpt>
      <trkpt lat="45.82603" lon="4.82213">
        <ele>458</ele>
        <time>2011-12-22T10:23:36Z</time>
      </trkpt>
      <trkpt lat="45.82592" lon="4.82216">
        <ele>458</ele>
        <time>2011-12-22T10:23:42Z</time>
      </trkpt>
      <trkpt lat="45.82583" lon="4.82229">
        <ele>461</ele>
        <time>2011-12-22T10:23:48Z</time>
      </trkpt>
      <trkpt lat="45.82578" lon="4.82231">
        <ele>461</ele>
        <time>2011-12-22T10:23:50Z</time>
      </trkpt>
      <trkpt lat="45.82572" lon="4.82233">
        <ele>461</ele>
        <time>2011-12-22T10:23:53Z</time>
      </trkpt>
      <trkpt lat="45.8256" lon="4.82233">
        <ele>462</ele>
        <time>2011-12-22T10:23:58Z</time>
      </trkpt>
      <trkpt lat="45.82556" lon="4.82233">
        <ele>462</ele>
        <time>2011-12-22T10:24:00Z</time>
      </trkpt>
      <trkpt lat="45.82543" lon="4.82233">
        <ele>462</ele>
        <time>2011-12-22T10:24:06Z</time>
      </trkpt>
      <trkpt lat="45.82541" lon="4.82233">
        <ele>462</ele>
        <time>2011-12-22T10:24:07Z</time>
      </trkpt>
      <trkpt lat="45.82531" lon="4.82233">
        <ele>463</ele>
        <time>2011-12-22T10:24:11Z</time>
      </trkpt>
      <trkpt lat="45.82521" lon="4.82231">
        <ele>463</ele>
        <time>2011-12-22T10:24:16Z</time>
      </trkpt>
      <trkpt lat="45.8252" lon="4.8223">
        <ele>463</ele>
        <time>2011-12-22T10:24:17Z</time>
      </trkpt>
      <trkpt lat="45.82516" lon="4.82226">
        <ele>463</ele>
        <time>2011-12-22T10:24:19Z</time>
      </trkpt>
      <trkpt lat="45.82515" lon="4.82221">
        <ele>463</ele>
        <time>2011-12-22T10:24:21Z</time>
      </trkpt>
      <trkpt lat="45.82516" lon="4.82213">
        <ele>463</ele>
        <time>2011-12-22T10:24:24Z</time>
      </trkpt>
      <trkpt lat="45.82517" lon="4.82208">
        <ele>463</ele>
        <time>2011-12-22T10:24:26Z</time>
      </trkpt>
      <trkpt lat="45.82515" lon="4.82201">
        <ele>464</ele>
        <time>2011-12-22T10:24:29Z</time>
      </trkpt>
      <trkpt lat="45.82514" lon="4.822">
        <ele>464</ele>
        <time>2011-12-22T10:24:30Z</time>
      </trkpt>
      <trkpt lat="45.82509" lon="4.82193">
        <ele>464</ele>
        <time>2011-12-22T10:24:35Z</time>
      </trkpt>
      <trkpt lat="45.82509" lon="4.82188">
        <ele>464</ele>
        <time>2011-12-22T10:24:37Z</time>
      </trkpt>
      <trkpt lat="45.8251" lon="4.8218">
        <ele>465</ele>
        <time>2011-12-22T10:24:40Z</time>
      </trkpt>
      <trkpt lat="45.8251" lon="4.82177">
        <ele>465</ele>
        <time>2011-12-22T10:24:41Z</time>
      </trkpt>
      <trkpt lat="45.8251" lon="4.82174">
        <ele>465</ele>
        <time>2011-12-22T10:24:42Z</time>
      </trkpt>
      <trkpt lat="45.82509" lon="4.82166">
        <ele>466</ele>
        <time>2011-12-22T10:24:45Z</time>
      </trkpt>
      <trkpt lat="45.82508" lon="4.82165">
        <ele>466</ele>
        <time>2011-12-22T10:24:46Z</time>
      </trkpt>
      <trkpt lat="45.82507" lon="4.82163">
        <ele>466</ele>
        <time>2011-12-22T10:24:47Z</time>
      </trkpt>
      <trkpt lat="45.82502" lon="4.82162">
        <ele>467</ele>
        <time>2011-12-22T10:24:50Z</time>
      </trkpt>
      <trkpt lat="45.82498" lon="4.82162">
        <ele>467</ele>
        <time>2011-12-22T10:24:52Z</time>
      </trkpt>
      <trkpt lat="45.82492" lon="4.8216">
        <ele>467</ele>
        <time>2011-12-22T10:24:55Z</time>
      </trkpt>
      <trkpt lat="45.82488" lon="4.8216">
        <ele>467</ele>
        <time>2011-12-22T10:24:57Z</time>
      </trkpt>
      <trkpt lat="45.8248" lon="4.8216">
        <ele>467</ele>
        <time>2011-12-22T10:25:01Z</time>
      </trkpt>
      <trkpt lat="45.82474" lon="4.8216">
        <ele>467</ele>
        <time>2011-12-22T10:25:03Z</time>
      </trkpt>
      <trkpt lat="45.82471" lon="4.82158">
        <ele>467</ele>
        <time>2011-12-22T10:25:04Z</time>
      </trkpt>
      <trkpt lat="45.82465" lon="4.82155">
        <ele>467</ele>
        <time>2011-12-22T10:25:06Z</time>
      </trkpt>
      <trkpt lat="45.82452" lon="4.8215">
        <ele>467</ele>
        <time>2011-12-22T10:25:12Z</time>
      </trkpt>
      <trkpt lat="45.82447" lon="4.82149">
        <ele>467</ele>
        <time>2011-12-22T10:25:15Z</time>
      </trkpt>
      <trkpt lat="45.82443" lon="4.8215">
        <ele>467</ele>
        <time>2011-12-22T10:25:17Z</time>
      </trkpt>
      <trkpt lat="45.82434" lon="4.82144">
        <ele>467</ele>
        <time>2011-12-22T10:25:20Z</time>
      </trkpt>
      <trkpt lat="45.82429" lon="4.82144">
        <ele>467</ele>
        <time>2011-12-22T10:25:22Z</time>
      </trkpt>
      <trkpt lat="45.82418" lon="4.82144">
        <ele>467</ele>
        <time>2011-12-22T10:25:27Z</time>
      </trkpt>
      <trkpt lat="45.82414" lon="4.82144">
        <ele>467</ele>
        <time>2011-12-22T10:25:28Z</time>
      </trkpt>
      <trkpt lat="45.82412" lon="4.82144">
        <ele>467</ele>
        <time>2011-12-22T10:25:29Z</time>
      </trkpt>
      <trkpt lat="45.82402" lon="4.82139">
        <ele>467</ele>
        <time>2011-12-22T10:25:32Z</time>
      </trkpt>
      <trkpt lat="45.82396" lon="4.82137">
        <ele>467</ele>
        <time>2011-12-22T10:25:34Z</time>
      </trkpt>
      <trkpt lat="45.82383" lon="4.82133">
        <ele>467</ele>
        <time>2011-12-22T10:25:39Z</time>
      </trkpt>
      <trkpt lat="45.82378" lon="4.82131">
        <ele>467</ele>
        <time>2011-12-22T10:25:41Z</time>
      </trkpt>
      <trkpt lat="45.82369" lon="4.82131">
        <ele>467</ele>
        <time>2011-12-22T10:25:45Z</time>
      </trkpt>
      <trkpt lat="45.82359" lon="4.8213">
        <ele>467</ele>
        <time>2011-12-22T10:25:49Z</time>
      </trkpt>
      <trkpt lat="45.82357" lon="4.82129">
        <ele>467</ele>
        <time>2011-12-22T10:25:50Z</time>
      </trkpt>
      <trkpt lat="45.82345" lon="4.82126">
        <ele>467</ele>
        <time>2011-12-22T10:25:55Z</time>
      </trkpt>
      <trkpt lat="45.82342" lon="4.82125">
        <ele>467</ele>
        <time>2011-12-22T10:25:56Z</time>
      </trkpt>
      <trkpt lat="45.82328" lon="4.82122">
        <ele>465</ele>
        <time>2011-12-22T10:26:01Z</time>
      </trkpt>
      <trkpt lat="45.82323" lon="4.8212">
        <ele>465</ele>
        <time>2011-12-22T10:26:03Z</time>
      </trkpt>
      <trkpt lat="45.82314" lon="4.82113">
        <ele>465</ele>
        <time>2011-12-22T10:26:07Z</time>
      </trkpt>
      <trkpt lat="45.82306" lon="4.82108">
        <ele>465</ele>
        <time>2011-12-22T10:26:10Z</time>
      </trkpt>
      <trkpt lat="45.82299" lon="4.82104">
        <ele>465</ele>
        <time>2011-12-22T10:26:13Z</time>
      </trkpt>
      <trkpt lat="45.82288" lon="4.82097">
        <ele>465</ele>
        <time>2011-12-22T10:26:18Z</time>
      </trkpt>
      <trkpt lat="45.82286" lon="4.82095">
        <ele>465</ele>
        <time>2011-12-22T10:26:19Z</time>
      </trkpt>
      <trkpt lat="45.82273" lon="4.82086">
        <ele>465</ele>
        <time>2011-12-22T10:26:25Z</time>
      </trkpt>
      <trkpt lat="45.82272" lon="4.82084">
        <ele>466</ele>
        <time>2011-12-22T10:26:26Z</time>
      </trkpt>
      <trkpt lat="45.82262" lon="4.82076">
        <ele>468</ele>
        <time>2011-12-22T10:26:31Z</time>
      </trkpt>
      <trkpt lat="45.82258" lon="4.82066">
        <ele>468</ele>
        <time>2011-12-22T10:26:35Z</time>
      </trkpt>
      <trkpt lat="45.82258" lon="4.82063">
        <ele>468</ele>
        <time>2011-12-22T10:26:36Z</time>
      </trkpt>
      <trkpt lat="45.8226" lon="4.82064">
        <ele>468</ele>
        <time>2011-12-22T10:26:39Z</time>
      </trkpt>
      <trkpt lat="45.8226" lon="4.8207">
        <ele>468</ele>
        <time>2011-12-22T10:26:41Z</time>
      </trkpt>
      <trkpt lat="45.82259" lon="4.82082">
        <ele>468</ele>
        <time>2011-12-22T10:26:44Z</time>
      </trkpt>
      <trkpt lat="45.82258" lon="4.82085">
        <ele>466</ele>
        <time>2011-12-22T10:26:45Z</time>
      </trkpt>
      <trkpt lat="45.82252" lon="4.82104">
        <ele>465</ele>
        <time>2011-12-22T10:26:51Z</time>
      </trkpt>
      <trkpt lat="45.82252" lon="4.82107">
        <ele>465</ele>
        <time>2011-12-22T10:26:52Z</time>
      </trkpt>
      <trkpt lat="45.8225" lon="4.82109">
        <ele>464</ele>
        <time>2011-12-22T10:26:53Z</time>
      </trkpt>
      <trkpt lat="45.82244" lon="4.82113">
        <ele>457</ele>
        <time>2011-12-22T10:26:56Z</time>
      </trkpt>
      <trkpt lat="45.82234" lon="4.82109">
        <ele>457</ele>
        <time>2011-12-22T10:27:00Z</time>
      </trkpt>
      <trkpt lat="45.8223" lon="4.82103">
        <ele>457</ele>
        <time>2011-12-22T10:27:02Z</time>
      </trkpt>
      <trkpt lat="45.82221" lon="4.8209">
        <ele>457</ele>
        <time>2011-12-22T10:27:07Z</time>
      </trkpt>
      <trkpt lat="45.82213" lon="4.82073">
        <ele>460</ele>
        <time>2011-12-22T10:27:13Z</time>
      </trkpt>
      <trkpt lat="45.8221" lon="4.82069">
        <ele>460</ele>
        <time>2011-12-22T10:27:15Z</time>
      </trkpt>
      <trkpt lat="45.82205" lon="4.82058">
        <ele>460</ele>
        <time>2011-12-22T10:27:19Z</time>
      </trkpt>
      <trkpt lat="45.82197" lon="4.82048">
        <ele>459</ele>
        <time>2011-12-22T10:27:24Z</time>
      </trkpt>
      <trkpt lat="45.82196" lon="4.82046">
        <ele>459</ele>
        <time>2011-12-22T10:27:25Z</time>
      </trkpt>
      <trkpt lat="45.82188" lon="4.82032">
        <ele>458</ele>
        <time>2011-12-22T10:27:30Z</time>
      </trkpt>
      <trkpt lat="45.82183" lon="4.82025">
        <ele>458</ele>
        <time>2011-12-22T10:27:32Z</time>
      </trkpt>
      <trkpt lat="45.82176" lon="4.82011">
        <ele>456</ele>
        <time>2011-12-22T10:27:36Z</time>
      </trkpt>
      <trkpt lat="45.82173" lon="4.82002">
        <ele>455</ele>
        <time>2011-12-22T10:27:39Z</time>
      </trkpt>
      <trkpt lat="45.82172" lon="4.81996">
        <ele>453</ele>
        <time>2011-12-22T10:27:41Z</time>
      </trkpt>
      <trkpt lat="45.82171" lon="4.81981">
        <ele>453</ele>
        <time>2011-12-22T10:27:46Z</time>
      </trkpt>
      <trkpt lat="45.82169" lon="4.81975">
        <ele>453</ele>
        <time>2011-12-22T10:27:48Z</time>
      </trkpt>
      <trkpt lat="45.82168" lon="4.81969">
        <ele>453</ele>
        <time>2011-12-22T10:27:50Z</time>
      </trkpt>
      <trkpt lat="45.82165" lon="4.81964">
        <ele>439</ele>
        <time>2011-12-22T10:27:53Z</time>
      </trkpt>
      <trkpt lat="45.82164" lon="4.81965">
        <ele>439</ele>
        <time>2011-12-22T10:28:04Z</time>
      </trkpt>
      <trkpt lat="45.82167" lon="4.81966">
        <ele>452</ele>
        <time>2011-12-22T10:28:13Z</time>
      </trkpt>
      <trkpt lat="45.82168" lon="4.81968">
        <ele>453</ele>
        <time>2011-12-22T10:28:14Z</time>
      </trkpt>
      <trkpt lat="45.82169" lon="4.81971">
        <ele>453</ele>
        <time>2011-12-22T10:28:15Z</time>
      </trkpt>
      <trkpt lat="45.82175" lon="4.81976">
        <ele>453</ele>
        <time>2011-12-22T10:28:18Z</time>
      </trkpt>
      <trkpt lat="45.82177" lon="4.81975">
        <ele>453</ele>
        <time>2011-12-22T10:28:19Z</time>
      </trkpt>
      <trkpt lat="45.82186" lon="4.8197">
        <ele>454</ele>
        <time>2011-12-22T10:28:22Z</time>
      </trkpt>
      <trkpt lat="45.82191" lon="4.81968">
        <ele>454</ele>
        <time>2011-12-22T10:28:24Z</time>
      </trkpt>
      <trkpt lat="45.82206" lon="4.81964">
        <ele>455</ele>
        <time>2011-12-22T10:28:29Z</time>
      </trkpt>
      <trkpt lat="45.82218" lon="4.81961">
        <ele>456</ele>
        <time>2011-12-22T10:28:33Z</time>
      </trkpt>
      <trkpt lat="45.82224" lon="4.8196">
        <ele>456</ele>
        <time>2011-12-22T10:28:36Z</time>
      </trkpt>
      <trkpt lat="45.82226" lon="4.81959">
        <ele>456</ele>
        <time>2011-12-22T10:28:37Z</time>
      </trkpt>
      <trkpt lat="45.82235" lon="4.8196">
        <ele>457</ele>
        <time>2011-12-22T10:28:42Z</time>
      </trkpt>
      <trkpt lat="45.82243" lon="4.81959">
        <ele>457</ele>
        <time>2011-12-22T10:28:46Z</time>
      </trkpt>
      <trkpt lat="45.82244" lon="4.81958">
        <ele>457</ele>
        <time>2011-12-22T10:28:47Z</time>
      </trkpt>
      <trkpt lat="45.82246" lon="4.81956">
        <ele>457</ele>
        <time>2011-12-22T10:28:48Z</time>
      </trkpt>
      <trkpt lat="45.82251" lon="4.81948">
        <ele>462</ele>
        <time>2011-12-22T10:28:51Z</time>
      </trkpt>
      <trkpt lat="45.82257" lon="4.81942">
        <ele>461</ele>
        <time>2011-12-22T10:28:54Z</time>
      </trkpt>
      <trkpt lat="45.82268" lon="4.81936">
        <ele>461</ele>
        <time>2011-12-22T10:28:59Z</time>
      </trkpt>
      <trkpt lat="45.82273" lon="4.81928">
        <ele>461</ele>
        <time>2011-12-22T10:29:02Z</time>
      </trkpt>
      <trkpt lat="45.82275" lon="4.81926">
        <ele>461</ele>
        <time>2011-12-22T10:29:03Z</time>
      </trkpt>
      <trkpt lat="45.82287" lon="4.81916">
        <ele>451</ele>
        <time>2011-12-22T10:29:08Z</time>
      </trkpt>
      <trkpt lat="45.82289" lon="4.81915">
        <ele>451</ele>
        <time>2011-12-22T10:29:09Z</time>
      </trkpt>
      <trkpt lat="45.82298" lon="4.81911">
        <ele>451</ele>
        <time>2011-12-22T10:29:13Z</time>
      </trkpt>
      <trkpt lat="45.82307" lon="4.81907">
        <ele>451</ele>
        <time>2011-12-22T10:29:17Z</time>
      </trkpt>
      <trkpt lat="45.82309" lon="4.81906">
        <ele>452</ele>
        <time>2011-12-22T10:29:18Z</time>
      </trkpt>
      <trkpt lat="45.82319" lon="4.81903">
        <ele>453</ele>
        <time>2011-12-22T10:29:23Z</time>
      </trkpt>
      <trkpt lat="45.82326" lon="4.819">
        <ele>453</ele>
        <time>2011-12-22T10:29:26Z</time>
      </trkpt>
      <trkpt lat="45.82333" lon="4.81896">
        <ele>452</ele>
        <time>2011-12-22T10:29:29Z</time>
      </trkpt>
      <trkpt lat="45.82345" lon="4.81891">
        <ele>454</ele>
        <time>2011-12-22T10:29:33Z</time>
      </trkpt>
      <trkpt lat="45.82354" lon="4.81886">
        <ele>453</ele>
        <time>2011-12-22T10:29:36Z</time>
      </trkpt>
      <trkpt lat="45.82363" lon="4.81881">
        <ele>453</ele>
        <time>2011-12-22T10:29:39Z</time>
      </trkpt>
      <trkpt lat="45.82369" lon="4.81877">
        <ele>453</ele>
        <time>2011-12-22T10:29:42Z</time>
      </trkpt>
      <trkpt lat="45.82382" lon="4.81871">
        <ele>452</ele>
        <time>2011-12-22T10:29:47Z</time>
      </trkpt>
      <trkpt lat="45.82384" lon="4.8187">
        <ele>452</ele>
        <time>2011-12-22T10:29:48Z</time>
      </trkpt>
      <trkpt lat="45.82394" lon="4.81866">
        <ele>452</ele>
        <time>2011-12-22T10:29:52Z</time>
      </trkpt>
      <trkpt lat="45.82399" lon="4.81862">
        <ele>452</ele>
        <time>2011-12-22T10:29:54Z</time>
      </trkpt>
      <trkpt lat="45.82406" lon="4.81858">
        <ele>451</ele>
        <time>2011-12-22T10:29:57Z</time>
      </trkpt>
      <trkpt lat="45.82416" lon="4.81853">
        <ele>451</ele>
        <time>2011-12-22T10:30:01Z</time>
      </trkpt>
      <trkpt lat="45.82419" lon="4.81851">
        <ele>453</ele>
        <time>2011-12-22T10:30:02Z</time>
      </trkpt>
      <trkpt lat="45.82431" lon="4.81845">
        <ele>453</ele>
        <time>2011-12-22T10:30:07Z</time>
      </trkpt>
      <trkpt lat="45.82435" lon="4.81842">
        <ele>453</ele>
        <time>2011-12-22T10:30:09Z</time>
      </trkpt>
      <trkpt lat="45.82437" lon="4.81839">
        <ele>453</ele>
        <time>2011-12-22T10:30:11Z</time>
      </trkpt>
      <trkpt lat="45.82437" lon="4.81838">
        <ele>453</ele>
        <time>2011-12-22T10:30:12Z</time>
      </trkpt>
      <trkpt lat="45.82434" lon="4.81833">
        <ele>447</ele>
        <time>2011-12-22T10:30:16Z</time>
      </trkpt>
      <trkpt lat="45.82431" lon="4.81827">
        <ele>447</ele>
        <time>2011-12-22T10:30:19Z</time>
      </trkpt>
      <trkpt lat="45.8243" lon="4.81822">
        <ele>447</ele>
        <time>2011-12-22T10:30:21Z</time>
      </trkpt>
      <trkpt lat="45.82429" lon="4.8182">
        <ele>447</ele>
        <time>2011-12-22T10:30:22Z</time>
      </trkpt>
      <trkpt lat="45.82428" lon="4.81812">
        <ele>446</ele>
        <time>2011-12-22T10:30:25Z</time>
      </trkpt>
      <trkpt lat="45.82427" lon="4.81804">
        <ele>446</ele>
        <time>2011-12-22T10:30:28Z</time>
      </trkpt>
      <trkpt lat="45.82427" lon="4.81797">
        <ele>445</ele>
        <time>2011-12-22T10:30:30Z</time>
      </trkpt>
      <trkpt lat="45.82426" lon="4.81787">
        <ele>444</ele>
        <time>2011-12-22T10:30:34Z</time>
      </trkpt>
      <trkpt lat="45.82426" lon="4.81772">
        <ele>442</ele>
        <time>2011-12-22T10:30:40Z</time>
      </trkpt>
      <trkpt lat="45.82425" lon="4.8177">
        <ele>442</ele>
        <time>2011-12-22T10:30:41Z</time>
      </trkpt>
      <trkpt lat="45.82422" lon="4.81759">
        <ele>440</ele>
        <time>2011-12-22T10:30:47Z</time>
      </trkpt>
      <trkpt lat="45.82422" lon="4.81757">
        <ele>439</ele>
        <time>2011-12-22T10:30:48Z</time>
      </trkpt>
      <trkpt lat="45.82421" lon="4.81749">
        <ele>437</ele>
        <time>2011-12-22T10:30:51Z</time>
      </trkpt>
      <trkpt lat="45.82422" lon="4.81746">
        <ele>437</ele>
        <time>2011-12-22T10:30:53Z</time>
      </trkpt>
      <trkpt lat="45.82423" lon="4.81742">
        <ele>437</ele>
        <time>2011-12-22T10:30:55Z</time>
      </trkpt>
      <trkpt lat="45.82423" lon="4.81741">
        <ele>437</ele>
        <time>2011-12-22T10:30:56Z</time>
      </trkpt>
      <trkpt lat="45.82421" lon="4.81738">
        <ele>438</ele>
        <time>2011-12-22T10:30:57Z</time>
      </trkpt>
      <trkpt lat="45.82421" lon="4.81735">
        <ele>438</ele>
        <time>2011-12-22T10:30:59Z</time>
      </trkpt>
      <trkpt lat="45.82424" lon="4.81727">
        <ele>438</ele>
        <time>2011-12-22T10:31:03Z</time>
      </trkpt>
      <trkpt lat="45.82425" lon="4.81723">
        <ele>438</ele>
        <time>2011-12-22T10:31:05Z</time>
      </trkpt>
      <trkpt lat="45.82426" lon="4.81718">
        <ele>438</ele>
        <time>2011-12-22T10:31:07Z</time>
      </trkpt>
      <trkpt lat="45.82419" lon="4.8171">
        <ele>438</ele>
        <time>2011-12-22T10:31:12Z</time>
      </trkpt>
      <trkpt lat="45.82414" lon="4.81704">
        <ele>428</ele>
        <time>2011-12-22T10:31:15Z</time>
      </trkpt>
      <trkpt lat="45.82411" lon="4.817">
        <ele>428</ele>
        <time>2011-12-22T10:31:17Z</time>
      </trkpt>
      <trkpt lat="45.82407" lon="4.81697">
        <ele>428</ele>
        <time>2011-12-22T10:31:19Z</time>
      </trkpt>
      <trkpt lat="45.82401" lon="4.81693">
        <ele>428</ele>
        <time>2011-12-22T10:31:22Z</time>
      </trkpt>
      <trkpt lat="45.82396" lon="4.81691">
        <ele>427</ele>
        <time>2011-12-22T10:31:24Z</time>
      </trkpt>
      <trkpt lat="45.8239" lon="4.81686">
        <ele>426</ele>
        <time>2011-12-22T10:31:27Z</time>
      </trkpt>
      <trkpt lat="45.82381" lon="4.8168">
        <ele>425</ele>
        <time>2011-12-22T10:31:31Z</time>
      </trkpt>
      <trkpt lat="45.8238" lon="4.81678">
        <ele>425</ele>
        <time>2011-12-22T10:31:32Z</time>
      </trkpt>
      <trkpt lat="45.82378" lon="4.81675">
        <ele>425</ele>
        <time>2011-12-22T10:31:33Z</time>
      </trkpt>
      <trkpt lat="45.82377" lon="4.81665">
        <ele>419</ele>
        <time>2011-12-22T10:31:37Z</time>
      </trkpt>
      <trkpt lat="45.82378" lon="4.81663">
        <ele>419</ele>
        <time>2011-12-22T10:31:38Z</time>
      </trkpt>
      <trkpt lat="45.82379" lon="4.8166">
        <ele>419</ele>
        <time>2011-12-22T10:31:40Z</time>
      </trkpt>
      <trkpt lat="45.82381" lon="4.81653">
        <ele>419</ele>
        <time>2011-12-22T10:31:43Z</time>
      </trkpt>
      <trkpt lat="45.82382" lon="4.81651">
        <ele>419</ele>
        <time>2011-12-22T10:31:44Z</time>
      </trkpt>
      <trkpt lat="45.82382" lon="4.81649">
        <ele>419</ele>
        <time>2011-12-22T10:31:45Z</time>
      </trkpt>
      <trkpt lat="45.82383" lon="4.81643">
        <ele>419</ele>
        <time>2011-12-22T10:31:48Z</time>
      </trkpt>
      <trkpt lat="45.82382" lon="4.8164">
        <ele>418</ele>
        <time>2011-12-22T10:31:50Z</time>
      </trkpt>
      <trkpt lat="45.82384" lon="4.8164">
        <ele>419</ele>
        <time>2011-12-22T10:31:53Z</time>
      </trkpt>
      <trkpt lat="45.82385" lon="4.81638">
        <ele>419</ele>
        <time>2011-12-22T10:31:55Z</time>
      </trkpt>
      <trkpt lat="45.82387" lon="4.81636">
        <ele>419</ele>
        <time>2011-12-22T10:31:58Z</time>
      </trkpt>
      <trkpt lat="45.82388" lon="4.81631">
        <ele>419</ele>
        <time>2011-12-22T10:32:01Z</time>
      </trkpt>
      <trkpt lat="45.82389" lon="4.8163">
        <ele>419</ele>
        <time>2011-12-22T10:32:04Z</time>
      </trkpt>
      <trkpt lat="45.82393" lon="4.81627">
        <ele>419</ele>
        <time>2011-12-22T10:32:11Z</time>
      </trkpt>
      <trkpt lat="45.82399" lon="4.81621">
        <ele>419</ele>
        <time>2011-12-22T10:32:18Z</time>
      </trkpt>
      <trkpt lat="45.82401" lon="4.8162">
        <ele>419</ele>
        <time>2011-12-22T10:32:24Z</time>
      </trkpt>
      <trkpt lat="45.82403" lon="4.81624">
        <ele>420</ele>
        <time>2011-12-22T10:32:26Z</time>
      </trkpt>
      <trkpt lat="45.82405" lon="4.81629">
        <ele>420</ele>
        <time>2011-12-22T10:32:29Z</time>
      </trkpt>
      <trkpt lat="45.82407" lon="4.81629">
        <ele>420</ele>
        <time>2011-12-22T10:32:31Z</time>
      </trkpt>
      <trkpt lat="45.82408" lon="4.81629">
        <ele>420</ele>
        <time>2011-12-22T10:32:32Z</time>
      </trkpt>
      <trkpt lat="45.82413" lon="4.81628">
        <ele>421</ele>
        <time>2011-12-22T10:32:39Z</time>
      </trkpt>
      <trkpt lat="45.82415" lon="4.81628">
        <ele>421</ele>
        <time>2011-12-22T10:32:41Z</time>
      </trkpt>
      <trkpt lat="45.82418" lon="4.81628">
        <ele>433</ele>
        <time>2011-12-22T10:32:46Z</time>
      </trkpt>
      <trkpt lat="45.8242" lon="4.81627">
        <ele>433</ele>
        <time>2011-12-22T10:32:48Z</time>
      </trkpt>
      <trkpt lat="45.82422" lon="4.81626">
        <ele>433</ele>
        <time>2011-12-22T10:32:50Z</time>
      </trkpt>
      <trkpt lat="45.82423" lon="4.81625">
        <ele>432</ele>
        <time>2011-12-22T10:32:52Z</time>
      </trkpt>
      <trkpt lat="45.82425" lon="4.81622">
        <ele>432</ele>
        <time>2011-12-22T10:32:54Z</time>
      </trkpt>
      <trkpt lat="45.82428" lon="4.81622">
        <ele>433</ele>
        <time>2011-12-22T10:32:59Z</time>
      </trkpt>
      <trkpt lat="45.82435" lon="4.81626">
        <ele>433</ele>
        <time>2011-12-22T10:33:06Z</time>
      </trkpt>
      <trkpt lat="45.82437" lon="4.81625">
        <ele>433</ele>
        <time>2011-12-22T10:33:08Z</time>
      </trkpt>
      <trkpt lat="45.82439" lon="4.81619">
        <ele>433</ele>
        <time>2011-12-22T10:33:11Z</time>
      </trkpt>
      <trkpt lat="45.8244" lon="4.81618">
        <ele>433</ele>
        <time>2011-12-22T10:33:12Z</time>
      </trkpt>
      <trkpt lat="45.82444" lon="4.81611">
        <ele>433</ele>
        <time>2011-12-22T10:33:16Z</time>
      </trkpt>
      <trkpt lat="45.82444" lon="4.81609">
        <ele>433</ele>
        <time>2011-12-22T10:33:17Z</time>
      </trkpt>
      <trkpt lat="45.82445" lon="4.81603">
        <ele>433</ele>
        <time>2011-12-22T10:33:20Z</time>
      </trkpt>
      <trkpt lat="45.82446" lon="4.816">
        <ele>433</ele>
        <time>2011-12-22T10:33:22Z</time>
      </trkpt>
      <trkpt lat="45.82448" lon="4.81595">
        <ele>433</ele>
        <time>2011-12-22T10:33:26Z</time>
      </trkpt>
      <trkpt lat="45.82453" lon="4.81591">
        <ele>433</ele>
        <time>2011-12-22T10:33:30Z</time>
      </trkpt>
      <trkpt lat="45.82455" lon="4.81588">
        <ele>434</ele>
        <time>2011-12-22T10:33:32Z</time>
      </trkpt>
      <trkpt lat="45.82456" lon="4.81587">
        <ele>434</ele>
        <time>2011-12-22T10:33:33Z</time>
      </trkpt>
      <trkpt lat="45.82457" lon="4.81585">
        <ele>434</ele>
        <time>2011-12-22T10:33:34Z</time>
      </trkpt>
      <trkpt lat="45.82459" lon="4.81582">
        <ele>430</ele>
        <time>2011-12-22T10:33:36Z</time>
      </trkpt>
      <trkpt lat="45.82461" lon="4.81579">
        <ele>430</ele>
        <time>2011-12-22T10:33:38Z</time>
      </trkpt>
      <trkpt lat="45.82462" lon="4.81577">
        <ele>430</ele>
        <time>2011-12-22T10:33:40Z</time>
      </trkpt>
      <trkpt lat="45.82462" lon="4.81576">
        <ele>430</ele>
        <time>2011-12-22T10:33:41Z</time>
      </trkpt>
      <trkpt lat="45.8246" lon="4.81568">
        <ele>429</ele>
        <time>2011-12-22T10:33:46Z</time>
      </trkpt>
      <trkpt lat="45.8246" lon="4.81566">
        <ele>429</ele>
        <time>2011-12-22T10:33:47Z</time>
      </trkpt>
      <trkpt lat="45.82458" lon="4.81562">
        <ele>429</ele>
        <time>2011-12-22T10:33:51Z</time>
      </trkpt>
      <trkpt lat="45.82458" lon="4.81561">
        <ele>429</ele>
        <time>2011-12-22T10:33:52Z</time>
      </trkpt>
      <trkpt lat="45.82453" lon="4.81557">
        <ele>428</ele>
        <time>2011-12-22T10:33:56Z</time>
      </trkpt>
      <trkpt lat="45.82449" lon="4.8155">
        <ele>427</ele>
        <time>2011-12-22T10:34:01Z</time>
      </trkpt>
      <trkpt lat="45.82448" lon="4.81549">
        <ele>427</ele>
        <time>2011-12-22T10:34:03Z</time>
      </trkpt>
      <trkpt lat="45.82443" lon="4.81545">
        <ele>427</ele>
        <time>2011-12-22T10:34:06Z</time>
      </trkpt>
      <trkpt lat="45.82438" lon="4.81538">
        <ele>426</ele>
        <time>2011-12-22T10:34:10Z</time>
      </trkpt>
      <trkpt lat="45.82433" lon="4.81531">
        <ele>425</ele>
        <time>2011-12-22T10:34:16Z</time>
      </trkpt>
      <trkpt lat="45.82431" lon="4.81529">
        <ele>424</ele>
        <time>2011-12-22T10:34:18Z</time>
      </trkpt>
      <trkpt lat="45.8243" lon="4.81527">
        <ele>424</ele>
        <time>2011-12-22T10:34:19Z</time>
      </trkpt>
      <trkpt lat="45.82429" lon="4.81526">
        <ele>424</ele>
        <time>2011-12-22T10:34:20Z</time>
      </trkpt>
      <trkpt lat="45.82429" lon="4.81524">
        <ele>423</ele>
        <time>2011-12-22T10:34:21Z</time>
      </trkpt>
      <trkpt lat="45.82424" lon="4.81521">
        <ele>422</ele>
        <time>2011-12-22T10:34:25Z</time>
      </trkpt>
      <trkpt lat="45.82422" lon="4.81519">
        <ele>422</ele>
        <time>2011-12-22T10:34:26Z</time>
      </trkpt>
      <trkpt lat="45.82418" lon="4.81515">
        <ele>420</ele>
        <time>2011-12-22T10:34:29Z</time>
      </trkpt>
      <trkpt lat="45.82415" lon="4.81512">
        <ele>412</ele>
        <time>2011-12-22T10:34:31Z</time>
      </trkpt>
      <trkpt lat="45.82415" lon="4.81509">
        <ele>413</ele>
        <time>2011-12-22T10:34:33Z</time>
      </trkpt>
      <trkpt lat="45.82417" lon="4.81507">
        <ele>413</ele>
        <time>2011-12-22T10:34:35Z</time>
      </trkpt>
      <trkpt lat="45.82419" lon="4.81499">
        <ele>416</ele>
        <time>2011-12-22T10:34:41Z</time>
      </trkpt>
      <trkpt lat="45.8242" lon="4.81493">
        <ele>416</ele>
        <time>2011-12-22T10:34:47Z</time>
      </trkpt>
      <trkpt lat="45.82422" lon="4.81488">
        <ele>417</ele>
        <time>2011-12-22T10:34:57Z</time>
      </trkpt>
      <trkpt lat="45.82423" lon="4.81487">
        <ele>417</ele>
        <time>2011-12-22T10:34:58Z</time>
      </trkpt>
      <trkpt lat="45.82425" lon="4.81486">
        <ele>417</ele>
        <time>2011-12-22T10:35:00Z</time>
      </trkpt>
      <trkpt lat="45.82426" lon="4.81482">
        <ele>417</ele>
        <time>2011-12-22T10:35:03Z</time>
      </trkpt>
      <trkpt lat="45.82428" lon="4.81476">
        <ele>418</ele>
        <time>2011-12-22T10:35:06Z</time>
      </trkpt>
      <trkpt lat="45.82429" lon="4.81473">
        <ele>418</ele>
        <time>2011-12-22T10:35:08Z</time>
      </trkpt>
      <trkpt lat="45.82431" lon="4.81468">
        <ele>418</ele>
        <time>2011-12-22T10:35:11Z</time>
      </trkpt>
      <trkpt lat="45.82433" lon="4.81466">
        <ele>418</ele>
        <time>2011-12-22T10:35:12Z</time>
      </trkpt>
      <trkpt lat="45.82435" lon="4.81465">
        <ele>418</ele>
        <time>2011-12-22T10:35:13Z</time>
      </trkpt>
      <trkpt lat="45.82438" lon="4.81462">
        <ele>418</ele>
        <time>2011-12-22T10:35:15Z</time>
      </trkpt>
      <trkpt lat="45.82439" lon="4.8146">
        <ele>418</ele>
        <time>2011-12-22T10:35:16Z</time>
      </trkpt>
      <trkpt lat="45.8244" lon="4.81458">
        <ele>418</ele>
        <time>2011-12-22T10:35:17Z</time>
      </trkpt>
      <trkpt lat="45.82444" lon="4.81451">
        <ele>418</ele>
        <time>2011-12-22T10:35:21Z</time>
      </trkpt>
      <trkpt lat="45.82446" lon="4.81451">
        <ele>418</ele>
        <time>2011-12-22T10:35:22Z</time>
      </trkpt>
      <trkpt lat="45.82451" lon="4.81446">
        <ele>418</ele>
        <time>2011-12-22T10:35:26Z</time>
      </trkpt>
      <trkpt lat="45.82452" lon="4.81446">
        <ele>419</ele>
        <time>2011-12-22T10:35:27Z</time>
      </trkpt>
      <trkpt lat="45.82454" lon="4.81445">
        <ele>419</ele>
        <time>2011-12-22T10:35:28Z</time>
      </trkpt>
      <trkpt lat="45.82456" lon="4.81442">
        <ele>419</ele>
        <time>2011-12-22T10:35:31Z</time>
      </trkpt>
      <trkpt lat="45.82456" lon="4.81441">
        <ele>419</ele>
        <time>2011-12-22T10:35:32Z</time>
      </trkpt>
      <trkpt lat="45.82457" lon="4.81438">
        <ele>419</ele>
        <time>2011-12-22T10:35:34Z</time>
      </trkpt>
      <trkpt lat="45.82457" lon="4.81436">
        <ele>419</ele>
        <time>2011-12-22T10:35:37Z</time>
      </trkpt>
      <trkpt lat="45.8246" lon="4.81436">
        <ele>419</ele>
        <time>2011-12-22T10:35:41Z</time>
      </trkpt>
      <trkpt lat="45.82461" lon="4.81438">
        <ele>419</ele>
        <time>2011-12-22T10:35:43Z</time>
      </trkpt>
      <trkpt lat="45.82463" lon="4.81441">
        <ele>420</ele>
        <time>2011-12-22T10:35:46Z</time>
      </trkpt>
      <trkpt lat="45.82465" lon="4.81443">
        <ele>420</ele>
        <time>2011-12-22T10:35:49Z</time>
      </trkpt>
      <trkpt lat="45.82465" lon="4.81444">
        <ele>420</ele>
        <time>2011-12-22T10:35:50Z</time>
      </trkpt>
      <trkpt lat="45.82466" lon="4.81444">
        <ele>420</ele>
        <time>2011-12-22T10:35:51Z</time>
      </trkpt>
      <trkpt lat="45.8247" lon="4.81443">
        <ele>421</ele>
        <time>2011-12-22T10:35:54Z</time>
      </trkpt>
      <trkpt lat="45.82471" lon="4.81443">
        <ele>421</ele>
        <time>2011-12-22T10:35:55Z</time>
      </trkpt>
      <trkpt lat="45.82476" lon="4.81444">
        <ele>421</ele>
        <time>2011-12-22T10:35:58Z</time>
      </trkpt>
      <trkpt lat="45.82479" lon="4.81443">
        <ele>422</ele>
        <time>2011-12-22T10:36:00Z</time>
      </trkpt>
      <trkpt lat="45.82483" lon="4.81441">
        <ele>422</ele>
        <time>2011-12-22T10:36:04Z</time>
      </trkpt>
      <trkpt lat="45.82484" lon="4.81441">
        <ele>422</ele>
        <time>2011-12-22T10:36:05Z</time>
      </trkpt>
      <trkpt lat="45.8249" lon="4.81439">
        <ele>423</ele>
        <time>2011-12-22T10:36:08Z</time>
      </trkpt>
      <trkpt lat="45.82493" lon="4.81439">
        <ele>423</ele>
        <time>2011-12-22T10:36:09Z</time>
      </trkpt>
      <trkpt lat="45.82495" lon="4.81438">
        <ele>423</ele>
        <time>2011-12-22T10:36:10Z</time>
      </trkpt>
      <trkpt lat="45.82507" lon="4.81435">
        <ele>429</ele>
        <time>2011-12-22T10:36:15Z</time>
      </trkpt>
      <trkpt lat="45.82509" lon="4.81436">
        <ele>430</ele>
        <time>2011-12-22T10:36:16Z</time>
      </trkpt>
      <trkpt lat="45.82511" lon="4.81437">
        <ele>430</ele>
        <time>2011-12-22T10:36:19Z</time>
      </trkpt>
      <trkpt lat="45.82515" lon="4.81436">
        <ele>430</ele>
        <time>2011-12-22T10:36:22Z</time>
      </trkpt>
      <trkpt lat="45.82516" lon="4.81435">
        <ele>430</ele>
        <time>2011-12-22T10:36:23Z</time>
      </trkpt>
      <trkpt lat="45.82521" lon="4.81434">
        <ele>430</ele>
        <time>2011-12-22T10:36:25Z</time>
      </trkpt>
      <trkpt lat="45.82533" lon="4.8143">
        <ele>431</ele>
        <time>2011-12-22T10:36:31Z</time>
      </trkpt>
      <trkpt lat="45.82535" lon="4.81429">
        <ele>431</ele>
        <time>2011-12-22T10:36:32Z</time>
      </trkpt>
      <trkpt lat="45.82545" lon="4.81424">
        <ele>432</ele>
        <time>2011-12-22T10:36:37Z</time>
      </trkpt>
      <trkpt lat="45.82547" lon="4.81424">
        <ele>432</ele>
        <time>2011-12-22T10:36:38Z</time>
      </trkpt>
      <trkpt lat="45.82551" lon="4.81423">
        <ele>432</ele>
        <time>2011-12-22T10:36:40Z</time>
      </trkpt>
      <trkpt lat="45.82558" lon="4.81422">
        <ele>432</ele>
        <time>2011-12-22T10:36:43Z</time>
      </trkpt>
      <trkpt lat="45.82569" lon="4.81423">
        <ele>433</ele>
        <time>2011-12-22T10:36:48Z</time>
      </trkpt>
      <trkpt lat="45.82572" lon="4.81423">
        <ele>433</ele>
        <time>2011-12-22T10:36:49Z</time>
      </trkpt>
      <trkpt lat="45.82582" lon="4.81427">
        <ele>433</ele>
        <time>2011-12-22T10:36:54Z</time>
      </trkpt>
      <trkpt lat="45.82585" lon="4.81431">
        <ele>434</ele>
        <time>2011-12-22T10:36:56Z</time>
      </trkpt>
      <trkpt lat="45.82586" lon="4.81433">
        <ele>434</ele>
        <time>2011-12-22T10:36:57Z</time>
      </trkpt>
      <trkpt lat="45.82587" lon="4.81435">
        <ele>434</ele>
        <time>2011-12-22T10:36:58Z</time>
      </trkpt>
      <trkpt lat="45.82589" lon="4.81434">
        <ele>434</ele>
        <time>2011-12-22T10:37:00Z</time>
      </trkpt>
      <trkpt lat="45.82592" lon="4.81433">
        <ele>434</ele>
        <time>2011-12-22T10:37:03Z</time>
      </trkpt>
      <trkpt lat="45.826" lon="4.81433">
        <ele>434</ele>
        <time>2011-12-22T10:37:10Z</time>
      </trkpt>
      <trkpt lat="45.82604" lon="4.81432">
        <ele>434</ele>
        <time>2011-12-22T10:37:14Z</time>
      </trkpt>
      <trkpt lat="45.82605" lon="4.81433">
        <ele>434</ele>
        <time>2011-12-22T10:37:15Z</time>
      </trkpt>
      <trkpt lat="45.82607" lon="4.81433">
        <ele>434</ele>
        <time>2011-12-22T10:37:16Z</time>
      </trkpt>
      <trkpt lat="45.82609" lon="4.81433">
        <ele>434</ele>
        <time>2011-12-22T10:37:18Z</time>
      </trkpt>
      <trkpt lat="45.8261" lon="4.81432">
        <ele>434</ele>
        <time>2011-12-22T10:37:19Z</time>
      </trkpt>
      <trkpt lat="45.82612" lon="4.81432">
        <ele>434</ele>
        <time>2011-12-22T10:37:21Z</time>
      </trkpt>
      <trkpt lat="45.82618" lon="4.81427">
        <ele>433</ele>
        <time>2011-12-22T10:37:25Z</time>
      </trkpt>
      <trkpt lat="45.82619" lon="4.81427">
        <ele>433</ele>
        <time>2011-12-22T10:37:26Z</time>
      </trkpt>
      <trkpt lat="45.82623" lon="4.81424">
        <ele>433</ele>
        <time>2011-12-22T10:37:31Z</time>
      </trkpt>
      <trkpt lat="45.82624" lon="4.81423">
        <ele>433</ele>
        <time>2011-12-22T10:37:32Z</time>
      </trkpt>
      <trkpt lat="45.82626" lon="4.81421">
        <ele>433</ele>
        <time>2011-12-22T10:37:34Z</time>
      </trkpt>
      <trkpt lat="45.82629" lon="4.81421">
        <ele>433</ele>
        <time>2011-12-22T10:37:36Z</time>
      </trkpt>
      <trkpt lat="45.82635" lon="4.8142">
        <ele>433</ele>
        <time>2011-12-22T10:37:41Z</time>
      </trkpt>
      <trkpt lat="45.82641" lon="4.81417">
        <ele>428</ele>
        <time>2011-12-22T10:37:47Z</time>
      </trkpt>
      <trkpt lat="45.82642" lon="4.81415">
        <ele>428</ele>
        <time>2011-12-22T10:37:48Z</time>
      </trkpt>
      <trkpt lat="45.82649" lon="4.81419">
        <ele>432</ele>
        <time>2011-12-22T10:37:52Z</time>
      </trkpt>
      <trkpt lat="45.82651" lon="4.81419">
        <ele>431</ele>
        <time>2011-12-22T10:37:53Z</time>
      </trkpt>
      <trkpt lat="45.82657" lon="4.81417">
        <ele>431</ele>
        <time>2011-12-22T10:37:58Z</time>
      </trkpt>
      <trkpt lat="45.82658" lon="4.81416">
        <ele>428</ele>
        <time>2011-12-22T10:37:59Z</time>
      </trkpt>
      <trkpt lat="45.82659" lon="4.81416">
        <ele>428</ele>
        <time>2011-12-22T10:38:00Z</time>
      </trkpt>
      <trkpt lat="45.8266" lon="4.81416">
        <ele>428</ele>
        <time>2011-12-22T10:38:01Z</time>
      </trkpt>
      <trkpt lat="45.82662" lon="4.81416">
        <ele>428</ele>
        <time>2011-12-22T10:38:02Z</time>
      </trkpt>
      <trkpt lat="45.82667" lon="4.81414">
        <ele>428</ele>
        <time>2011-12-22T10:38:06Z</time>
      </trkpt>
      <trkpt lat="45.82669" lon="4.81412">
        <ele>428</ele>
        <time>2011-12-22T10:38:07Z</time>
      </trkpt>
      <trkpt lat="45.82673" lon="4.81411">
        <ele>427</ele>
        <time>2011-12-22T10:38:10Z</time>
      </trkpt>
      <trkpt lat="45.82676" lon="4.81412">
        <ele>427</ele>
        <time>2011-12-22T10:38:12Z</time>
      </trkpt>
      <trkpt lat="45.82677" lon="4.81413">
        <ele>426</ele>
        <time>2011-12-22T10:38:13Z</time>
      </trkpt>
      <trkpt lat="45.82688" lon="4.81413">
        <ele>425</ele>
        <time>2011-12-22T10:38:18Z</time>
      </trkpt>
      <trkpt lat="45.82695" lon="4.81412">
        <ele>424</ele>
        <time>2011-12-22T10:38:21Z</time>
      </trkpt>
      <trkpt lat="45.82699" lon="4.81414">
        <ele>424</ele>
        <time>2011-12-22T10:38:23Z</time>
      </trkpt>
      <trkpt lat="45.82708" lon="4.81418">
        <ele>429</ele>
        <time>2011-12-22T10:38:28Z</time>
      </trkpt>
      <trkpt lat="45.8271" lon="4.8142">
        <ele>429</ele>
        <time>2011-12-22T10:38:30Z</time>
      </trkpt>
      <trkpt lat="45.82712" lon="4.81419">
        <ele>429</ele>
        <time>2011-12-22T10:38:31Z</time>
      </trkpt>
      <trkpt lat="45.82713" lon="4.81419">
        <ele>429</ele>
        <time>2011-12-22T10:38:32Z</time>
      </trkpt>
      <trkpt lat="45.82714" lon="4.81418">
        <ele>429</ele>
        <time>2011-12-22T10:38:33Z</time>
      </trkpt>
      <trkpt lat="45.82717" lon="4.81418">
        <ele>428</ele>
        <time>2011-12-22T10:38:35Z</time>
      </trkpt>
      <trkpt lat="45.82719" lon="4.81418">
        <ele>428</ele>
        <time>2011-12-22T10:38:37Z</time>
      </trkpt>
      <trkpt lat="45.8272" lon="4.81418">
        <ele>428</ele>
        <time>2011-12-22T10:38:38Z</time>
      </trkpt>
      <trkpt lat="45.82725" lon="4.81417">
        <ele>428</ele>
        <time>2011-12-22T10:38:43Z</time>
      </trkpt>
      <trkpt lat="45.82727" lon="4.81418">
        <ele>428</ele>
        <time>2011-12-22T10:38:44Z</time>
      </trkpt>
      <trkpt lat="45.8273" lon="4.81421">
        <ele>427</ele>
        <time>2011-12-22T10:38:49Z</time>
      </trkpt>
      <trkpt lat="45.82731" lon="4.81421">
        <ele>427</ele>
        <time>2011-12-22T10:38:50Z</time>
      </trkpt>
      <trkpt lat="45.82732" lon="4.81422">
        <ele>427</ele>
        <time>2011-12-22T10:38:52Z</time>
      </trkpt>
      <trkpt lat="45.82735" lon="4.81422">
        <ele>427</ele>
        <time>2011-12-22T10:38:55Z</time>
      </trkpt>
      <trkpt lat="45.82736" lon="4.81424">
        <ele>427</ele>
        <time>2011-12-22T10:38:57Z</time>
      </trkpt>
      <trkpt lat="45.82739" lon="4.81426">
        <ele>427</ele>
        <time>2011-12-22T10:39:00Z</time>
      </trkpt>
      <trkpt lat="45.82741" lon="4.81428">
        <ele>427</ele>
        <time>2011-12-22T10:39:02Z</time>
      </trkpt>
      <trkpt lat="45.82747" lon="4.81434">
        <ele>427</ele>
        <time>2011-12-22T10:39:13Z</time>
      </trkpt>
      <trkpt lat="45.82748" lon="4.81434">
        <ele>427</ele>
        <time>2011-12-22T10:39:14Z</time>
      </trkpt>
      <trkpt lat="45.82754" lon="4.81428">
        <ele>421</ele>
        <time>2011-12-22T10:39:18Z</time>
      </trkpt>
      <trkpt lat="45.82756" lon="4.81427">
        <ele>421</ele>
        <time>2011-12-22T10:39:19Z</time>
      </trkpt>
      <trkpt lat="45.82763" lon="4.81417">
        <ele>420</ele>
        <time>2011-12-22T10:39:23Z</time>
      </trkpt>
      <trkpt lat="45.82765" lon="4.81415">
        <ele>419</ele>
        <time>2011-12-22T10:39:24Z</time>
      </trkpt>
      <trkpt lat="45.82772" lon="4.81403">
        <ele>417</ele>
        <time>2011-12-22T10:39:28Z</time>
      </trkpt>
      <trkpt lat="45.82774" lon="4.81401">
        <ele>417</ele>
        <time>2011-12-22T10:39:29Z</time>
      </trkpt>
      <trkpt lat="45.82776" lon="4.81403">
        <ele>416</ele>
        <time>2011-12-22T10:39:31Z</time>
      </trkpt>
      <trkpt lat="45.82774" lon="4.81418">
        <ele>418</ele>
        <time>2011-12-22T10:39:36Z</time>
      </trkpt>
      <trkpt lat="45.82772" lon="4.81431">
        <ele>418</ele>
        <time>2011-12-22T10:39:41Z</time>
      </trkpt>
      <trkpt lat="45.82771" lon="4.81433">
        <ele>418</ele>
        <time>2011-12-22T10:39:42Z</time>
      </trkpt>
      <trkpt lat="45.8277" lon="4.81444">
        <ele>417</ele>
        <time>2011-12-22T10:39:46Z</time>
      </trkpt>
      <trkpt lat="45.8277" lon="4.81445">
        <ele>417</ele>
        <time>2011-12-22T10:39:47Z</time>
      </trkpt>
      <trkpt lat="45.82766" lon="4.81456">
        <ele>418</ele>
        <time>2011-12-22T10:39:52Z</time>
      </trkpt>
      <trkpt lat="45.82764" lon="4.81463">
        <ele>418</ele>
        <time>2011-12-22T10:39:56Z</time>
      </trkpt>
      <trkpt lat="45.82763" lon="4.81466">
        <ele>419</ele>
        <time>2011-12-22T10:39:57Z</time>
      </trkpt>
      <trkpt lat="45.82761" lon="4.81472">
        <ele>420</ele>
        <time>2011-12-22T10:40:00Z</time>
      </trkpt>
      <trkpt lat="45.82759" lon="4.8148">
        <ele>421</ele>
        <time>2011-12-22T10:40:02Z</time>
      </trkpt>
      <trkpt lat="45.82758" lon="4.81484">
        <ele>422</ele>
        <time>2011-12-22T10:40:03Z</time>
      </trkpt>
      <trkpt lat="45.82756" lon="4.81495">
        <ele>426</ele>
        <time>2011-12-22T10:40:08Z</time>
      </trkpt>
      <trkpt lat="45.82756" lon="4.81497">
        <ele>427</ele>
        <time>2011-12-22T10:40:09Z</time>
      </trkpt>
      <trkpt lat="45.82754" lon="4.81505">
        <ele>428</ele>
        <time>2011-12-22T10:40:14Z</time>
      </trkpt>
      <trkpt lat="45.82753" lon="4.81508">
        <ele>427</ele>
        <time>2011-12-22T10:40:15Z</time>
      </trkpt>
      <trkpt lat="45.82748" lon="4.81513">
        <ele>433</ele>
        <time>2011-12-22T10:40:19Z</time>
      </trkpt>
      <trkpt lat="45.82743" lon="4.81518">
        <ele>434</ele>
        <time>2011-12-22T10:40:22Z</time>
      </trkpt>
      <trkpt lat="45.8274" lon="4.81519">
        <ele>434</ele>
        <time>2011-12-22T10:40:24Z</time>
      </trkpt>
      <trkpt lat="45.82737" lon="4.81521">
        <ele>434</ele>
        <time>2011-12-22T10:40:26Z</time>
      </trkpt>
      <trkpt lat="45.8273" lon="4.81525">
        <ele>435</ele>
        <time>2011-12-22T10:40:30Z</time>
      </trkpt>
      <trkpt lat="45.82724" lon="4.81532">
        <ele>435</ele>
        <time>2011-12-22T10:40:35Z</time>
      </trkpt>
      <trkpt lat="45.82723" lon="4.81535">
        <ele>436</ele>
        <time>2011-12-22T10:40:36Z</time>
      </trkpt>
      <trkpt lat="45.82722" lon="4.81539">
        <ele>436</ele>
        <time>2011-12-22T10:40:37Z</time>
      </trkpt>
      <trkpt lat="45.82721" lon="4.81548">
        <ele>436</ele>
        <time>2011-12-22T10:40:41Z</time>
      </trkpt>
      <trkpt lat="45.8272" lon="4.81559">
        <ele>436</ele>
        <time>2011-12-22T10:40:46Z</time>
      </trkpt>
      <trkpt lat="45.82719" lon="4.81563">
        <ele>436</ele>
        <time>2011-12-22T10:40:48Z</time>
      </trkpt>
      <trkpt lat="45.82719" lon="4.81566">
        <ele>436</ele>
        <time>2011-12-22T10:40:49Z</time>
      </trkpt>
      <trkpt lat="45.82717" lon="4.81573">
        <ele>437</ele>
        <time>2011-12-22T10:40:52Z</time>
      </trkpt>
      <trkpt lat="45.82715" lon="4.8158">
        <ele>437</ele>
        <time>2011-12-22T10:40:56Z</time>
      </trkpt>
      <trkpt lat="45.82713" lon="4.81584">
        <ele>439</ele>
        <time>2011-12-22T10:40:59Z</time>
      </trkpt>
      <trkpt lat="45.82711" lon="4.81591">
        <ele>439</ele>
        <time>2011-12-22T10:41:02Z</time>
      </trkpt>
      <trkpt lat="45.8271" lon="4.81597">
        <ele>439</ele>
        <time>2011-12-22T10:41:05Z</time>
      </trkpt>
      <trkpt lat="45.82708" lon="4.81612">
        <ele>439</ele>
        <time>2011-12-22T10:41:13Z</time>
      </trkpt>
      <trkpt lat="45.82706" lon="4.81617">
        <ele>439</ele>
        <time>2011-12-22T10:41:15Z</time>
      </trkpt>
      <trkpt lat="45.82704" lon="4.81628">
        <ele>439</ele>
        <time>2011-12-22T10:41:20Z</time>
      </trkpt>
      <trkpt lat="45.82702" lon="4.8164">
        <ele>439</ele>
        <time>2011-12-22T10:41:25Z</time>
      </trkpt>
      <trkpt lat="45.82702" lon="4.81643">
        <ele>439</ele>
        <time>2011-12-22T10:41:26Z</time>
      </trkpt>
      <trkpt lat="45.82702" lon="4.81646">
        <ele>439</ele>
        <time>2011-12-22T10:41:27Z</time>
      </trkpt>
      <trkpt lat="45.82701" lon="4.8165">
        <ele>439</ele>
        <time>2011-12-22T10:41:29Z</time>
      </trkpt>
      <trkpt lat="45.82701" lon="4.81658">
        <ele>440</ele>
        <time>2011-12-22T10:41:31Z</time>
      </trkpt>
      <trkpt lat="45.82698" lon="4.8167">
        <ele>441</ele>
        <time>2011-12-22T10:41:34Z</time>
      </trkpt>
      <trkpt lat="45.82697" lon="4.81673">
        <ele>441</ele>
        <time>2011-12-22T10:41:35Z</time>
      </trkpt>
      <trkpt lat="45.82694" lon="4.81691">
        <ele>441</ele>
        <time>2011-12-22T10:41:41Z</time>
      </trkpt>
      <trkpt lat="45.82693" lon="4.81694">
        <ele>441</ele>
        <time>2011-12-22T10:41:42Z</time>
      </trkpt>
      <trkpt lat="45.82692" lon="4.81708">
        <ele>442</ele>
        <time>2011-12-22T10:41:47Z</time>
      </trkpt>
      <trkpt lat="45.82691" lon="4.81721">
        <ele>442</ele>
        <time>2011-12-22T10:41:53Z</time>
      </trkpt>
      <trkpt lat="45.8269" lon="4.81737">
        <ele>443</ele>
        <time>2011-12-22T10:42:00Z</time>
      </trkpt>
      <trkpt lat="45.82689" lon="4.81746">
        <ele>443</ele>
        <time>2011-12-22T10:42:03Z</time>
      </trkpt>
      <trkpt lat="45.82688" lon="4.8175">
        <ele>443</ele>
        <time>2011-12-22T10:42:04Z</time>
      </trkpt>
      <trkpt lat="45.82688" lon="4.81753">
        <ele>445</ele>
        <time>2011-12-22T10:42:05Z</time>
      </trkpt>
      <trkpt lat="45.82685" lon="4.8177">
        <ele>445</ele>
        <time>2011-12-22T10:42:11Z</time>
      </trkpt>
      <trkpt lat="45.82684" lon="4.81776">
        <ele>445</ele>
        <time>2011-12-22T10:42:14Z</time>
      </trkpt>
      <trkpt lat="45.82683" lon="4.81784">
        <ele>445</ele>
        <time>2011-12-22T10:42:16Z</time>
      </trkpt>
      <trkpt lat="45.82681" lon="4.81797">
        <ele>445</ele>
        <time>2011-12-22T10:42:21Z</time>
      </trkpt>
      <trkpt lat="45.8268" lon="4.81803">
        <ele>446</ele>
        <time>2011-12-22T10:42:23Z</time>
      </trkpt>
      <trkpt lat="45.82679" lon="4.81812">
        <ele>446</ele>
        <time>2011-12-22T10:42:26Z</time>
      </trkpt>
      <trkpt lat="45.82676" lon="4.8183">
        <ele>449</ele>
        <time>2011-12-22T10:42:32Z</time>
      </trkpt>
      <trkpt lat="45.8267" lon="4.81848">
        <ele>449</ele>
        <time>2011-12-22T10:42:38Z</time>
      </trkpt>
      <trkpt lat="45.82668" lon="4.81855">
        <ele>449</ele>
        <time>2011-12-22T10:42:40Z</time>
      </trkpt>
      <trkpt lat="45.82664" lon="4.81865">
        <ele>453</ele>
        <time>2011-12-22T10:42:43Z</time>
      </trkpt>
      <trkpt lat="45.82659" lon="4.81879">
        <ele>453</ele>
        <time>2011-12-22T10:42:48Z</time>
      </trkpt>
      <trkpt lat="45.82654" lon="4.81898">
        <ele>454</ele>
        <time>2011-12-22T10:42:55Z</time>
      </trkpt>
      <trkpt lat="45.82652" lon="4.81906">
        <ele>454</ele>
        <time>2011-12-22T10:42:57Z</time>
      </trkpt>
      <trkpt lat="45.82649" lon="4.81917">
        <ele>455</ele>
        <time>2011-12-22T10:43:01Z</time>
      </trkpt>
      <trkpt lat="45.82648" lon="4.81919">
        <ele>455</ele>
        <time>2011-12-22T10:43:02Z</time>
      </trkpt>
      <trkpt lat="45.82646" lon="4.81925">
        <ele>455</ele>
        <time>2011-12-22T10:43:06Z</time>
      </trkpt>
      <trkpt lat="45.82645" lon="4.81931">
        <ele>455</ele>
        <time>2011-12-22T10:43:08Z</time>
      </trkpt>
      <trkpt lat="45.82643" lon="4.81938">
        <ele>455</ele>
        <time>2011-12-22T10:43:10Z</time>
      </trkpt>
      <trkpt lat="45.8264" lon="4.8195">
        <ele>455</ele>
        <time>2011-12-22T10:43:15Z</time>
      </trkpt>
      <trkpt lat="45.82639" lon="4.81957">
        <ele>455</ele>
        <time>2011-12-22T10:43:18Z</time>
      </trkpt>
      <trkpt lat="45.82637" lon="4.81967">
        <ele>455</ele>
        <time>2011-12-22T10:43:21Z</time>
      </trkpt>
      <trkpt lat="45.82634" lon="4.81985">
        <ele>455</ele>
        <time>2011-12-22T10:43:27Z</time>
      </trkpt>
      <trkpt lat="45.8263" lon="4.81998">
        <ele>456</ele>
        <time>2011-12-22T10:43:31Z</time>
      </trkpt>
      <trkpt lat="45.8263" lon="4.82001">
        <ele>455</ele>
        <time>2011-12-22T10:43:32Z</time>
      </trkpt>
      <trkpt lat="45.82628" lon="4.82011">
        <ele>455</ele>
        <time>2011-12-22T10:43:35Z</time>
      </trkpt>
      <trkpt lat="45.82627" lon="4.82014">
        <ele>455</ele>
        <time>2011-12-22T10:43:36Z</time>
      </trkpt>
      <trkpt lat="45.82626" lon="4.82018">
        <ele>455</ele>
        <time>2011-12-22T10:43:37Z</time>
      </trkpt>
      <trkpt lat="45.82626" lon="4.82025">
        <ele>455</ele>
        <time>2011-12-22T10:43:39Z</time>
      </trkpt>
      <trkpt lat="45.82625" lon="4.82037">
        <ele>455</ele>
        <time>2011-12-22T10:43:42Z</time>
      </trkpt>
      <trkpt lat="45.82625" lon="4.82046">
        <ele>455</ele>
        <time>2011-12-22T10:43:44Z</time>
      </trkpt>
      <trkpt lat="45.82624" lon="4.82064">
        <ele>455</ele>
        <time>2011-12-22T10:43:48Z</time>
      </trkpt>
      <trkpt lat="45.82624" lon="4.82069">
        <ele>455</ele>
        <time>2011-12-22T10:43:49Z</time>
      </trkpt>
      <trkpt lat="45.82627" lon="4.82089">
        <ele>454</ele>
        <time>2011-12-22T10:43:54Z</time>
      </trkpt>
      <trkpt lat="45.82628" lon="4.82092">
        <ele>454</ele>
        <time>2011-12-22T10:43:55Z</time>
      </trkpt>
      <trkpt lat="45.82632" lon="4.82102">
        <ele>454</ele>
        <time>2011-12-22T10:43:58Z</time>
      </trkpt>
      <trkpt lat="45.82635" lon="4.82111">
        <ele>454</ele>
        <time>2011-12-22T10:44:01Z</time>
      </trkpt>
      <trkpt lat="45.82636" lon="4.82114">
        <ele>454</ele>
        <time>2011-12-22T10:44:02Z</time>
      </trkpt>
      <trkpt lat="45.82637" lon="4.82117">
        <ele>454</ele>
        <time>2011-12-22T10:44:03Z</time>
      </trkpt>
      <trkpt lat="45.82641" lon="4.82134">
        <ele>454</ele>
        <time>2011-12-22T10:44:08Z</time>
      </trkpt>
      <trkpt lat="45.82642" lon="4.8214">
        <ele>455</ele>
        <time>2011-12-22T10:44:10Z</time>
      </trkpt>
      <trkpt lat="45.82645" lon="4.8215">
        <ele>454</ele>
        <time>2011-12-22T10:44:13Z</time>
      </trkpt>
      <trkpt lat="45.82649" lon="4.82158">
        <ele>454</ele>
        <time>2011-12-22T10:44:16Z</time>
      </trkpt>
      <trkpt lat="45.82652" lon="4.82162">
        <ele>454</ele>
        <time>2011-12-22T10:44:18Z</time>
      </trkpt>
      <trkpt lat="45.82653" lon="4.82165">
        <ele>454</ele>
        <time>2011-12-22T10:44:19Z</time>
      </trkpt>
      <trkpt lat="45.82654" lon="4.82167">
        <ele>455</ele>
        <time>2011-12-22T10:44:20Z</time>
      </trkpt>
      <trkpt lat="45.82655" lon="4.8217">
        <ele>455</ele>
        <time>2011-12-22T10:44:21Z</time>
      </trkpt>
      <trkpt lat="45.82657" lon="4.82176">
        <ele>455</ele>
        <time>2011-12-22T10:44:23Z</time>
      </trkpt>
      <trkpt lat="45.82661" lon="4.82188">
        <ele>455</ele>
        <time>2011-12-22T10:44:27Z</time>
      </trkpt>
      <trkpt lat="45.82661" lon="4.8219">
        <ele>456</ele>
        <time>2011-12-22T10:44:28Z</time>
      </trkpt>
      <trkpt lat="45.8266" lon="4.82192">
        <ele>456</ele>
        <time>2011-12-22T10:44:29Z</time>
      </trkpt>
      <trkpt lat="45.82655" lon="4.82195">
        <ele>456</ele>
        <time>2011-12-22T10:44:32Z</time>
      </trkpt>
      <trkpt lat="45.82652" lon="4.82196">
        <ele>456</ele>
        <time>2011-12-22T10:44:34Z</time>
      </trkpt>
      <trkpt lat="45.82645" lon="4.82199">
        <ele>456</ele>
        <time>2011-12-22T10:44:38Z</time>
      </trkpt>
      <trkpt lat="45.82642" lon="4.82199">
        <ele>457</ele>
        <time>2011-12-22T10:44:40Z</time>
      </trkpt>
      <trkpt lat="45.82633" lon="4.82201">
        <ele>457</ele>
        <time>2011-12-22T10:44:45Z</time>
      </trkpt>
      <trkpt lat="45.82631" lon="4.82203">
        <ele>457</ele>
        <time>2011-12-22T10:44:46Z</time>
      </trkpt>
      <trkpt lat="45.82627" lon="4.82203">
        <ele>457</ele>
        <time>2011-12-22T10:44:48Z</time>
      </trkpt>
      <trkpt lat="45.82623" lon="4.82204">
        <ele>457</ele>
        <time>2011-12-22T10:44:51Z</time>
      </trkpt>
      <trkpt lat="45.82609" lon="4.82208">
        <ele>458</ele>
        <time>2011-12-22T10:44:57Z</time>
      </trkpt>
      <trkpt lat="45.82596" lon="4.82211">
        <ele>458</ele>
        <time>2011-12-22T10:45:03Z</time>
      </trkpt>
      <trkpt lat="45.82595" lon="4.82212">
        <ele>458</ele>
        <time>2011-12-22T10:45:04Z</time>
      </trkpt>
      <trkpt lat="45.82593" lon="4.82216">
        <ele>458</ele>
        <time>2011-12-22T10:45:05Z</time>
      </trkpt>
      <trkpt lat="45.82589" lon="4.82222">
        <ele>458</ele>
        <time>2011-12-22T10:45:07Z</time>
      </trkpt>
      <trkpt lat="45.82578" lon="4.82227">
        <ele>462</ele>
        <time>2011-12-22T10:45:12Z</time>
      </trkpt>
      <trkpt lat="45.82576" lon="4.82227">
        <ele>462</ele>
        <time>2011-12-22T10:45:13Z</time>
      </trkpt>
      <trkpt lat="45.82564" lon="4.8223">
        <ele>462</ele>
        <time>2011-12-22T10:45:18Z</time>
      </trkpt>
      <trkpt lat="45.82557" lon="4.82229">
        <ele>462</ele>
        <time>2011-12-22T10:45:21Z</time>
      </trkpt>
      <trkpt lat="45.82548" lon="4.82229">
        <ele>462</ele>
        <time>2011-12-22T10:45:25Z</time>
      </trkpt>
      <trkpt lat="45.82539" lon="4.82229">
        <ele>463</ele>
        <time>2011-12-22T10:45:29Z</time>
      </trkpt>
      <trkpt lat="45.8253" lon="4.82227">
        <ele>463</ele>
        <time>2011-12-22T10:45:33Z</time>
      </trkpt>
      <trkpt lat="45.82522" lon="4.82228">
        <ele>463</ele>
        <time>2011-12-22T10:45:37Z</time>
      </trkpt>
      <trkpt lat="45.82521" lon="4.82229">
        <ele>463</ele>
        <time>2011-12-22T10:45:38Z</time>
      </trkpt>
      <trkpt lat="45.8252" lon="4.82232">
        <ele>463</ele>
        <time>2011-12-22T10:45:39Z</time>
      </trkpt>
      <trkpt lat="45.82515" lon="4.82251">
        <ele>460</ele>
        <time>2011-12-22T10:45:45Z</time>
      </trkpt>
      <trkpt lat="45.82514" lon="4.82254">
        <ele>460</ele>
        <time>2011-12-22T10:45:46Z</time>
      </trkpt>
      <trkpt lat="45.82512" lon="4.82259">
        <ele>460</ele>
        <time>2011-12-22T10:45:48Z</time>
      </trkpt>
      <trkpt lat="45.82509" lon="4.82264">
        <ele>460</ele>
        <time>2011-12-22T10:45:50Z</time>
      </trkpt>
      <trkpt lat="45.82504" lon="4.82268">
        <ele>459</ele>
        <time>2011-12-22T10:45:54Z</time>
      </trkpt>
      <trkpt lat="45.825" lon="4.82272">
        <ele>457</ele>
        <time>2011-12-22T10:45:57Z</time>
      </trkpt>
      <trkpt lat="45.82495" lon="4.82275">
        <ele>457</ele>
        <time>2011-12-22T10:45:59Z</time>
      </trkpt>
      <trkpt lat="45.82488" lon="4.82282">
        <ele>455</ele>
        <time>2011-12-22T10:46:03Z</time>
      </trkpt>
      <trkpt lat="45.82486" lon="4.8229">
        <ele>454</ele>
        <time>2011-12-22T10:46:06Z</time>
      </trkpt>
      <trkpt lat="45.82485" lon="4.82294">
        <ele>454</ele>
        <time>2011-12-22T10:46:07Z</time>
      </trkpt>
      <trkpt lat="45.8249" lon="4.82307">
        <ele>453</ele>
        <time>2011-12-22T10:46:11Z</time>
      </trkpt>
      <trkpt lat="45.82493" lon="4.82312">
        <ele>452</ele>
        <time>2011-12-22T10:46:13Z</time>
      </trkpt>
      <trkpt lat="45.82499" lon="4.8232">
        <ele>451</ele>
        <time>2011-12-22T10:46:16Z</time>
      </trkpt>
      <trkpt lat="45.82508" lon="4.82332">
        <ele>452</ele>
        <time>2011-12-22T10:46:21Z</time>
      </trkpt>
      <trkpt lat="45.82506" lon="4.82336">
        <ele>449</ele>
        <time>2011-12-22T10:46:24Z</time>
      </trkpt>
      <trkpt lat="45.82498" lon="4.82332">
        <ele>450</ele>
        <time>2011-12-22T10:46:28Z</time>
      </trkpt>
      <trkpt lat="45.82493" lon="4.82331">
        <ele>451</ele>
        <time>2011-12-22T10:46:30Z</time>
      </trkpt>
      <trkpt lat="45.82486" lon="4.82327">
        <ele>451</ele>
        <time>2011-12-22T10:46:33Z</time>
      </trkpt>
      <trkpt lat="45.82474" lon="4.82322">
        <ele>451</ele>
        <time>2011-12-22T10:46:38Z</time>
      </trkpt>
      <trkpt lat="45.82469" lon="4.82319">
        <ele>451</ele>
        <time>2011-12-22T10:46:40Z</time>
      </trkpt>
      <trkpt lat="45.82455" lon="4.82313">
        <ele>451</ele>
        <time>2011-12-22T10:46:45Z</time>
      </trkpt>
      <trkpt lat="45.82449" lon="4.82312">
        <ele>451</ele>
        <time>2011-12-22T10:46:47Z</time>
      </trkpt>
      <trkpt lat="45.82435" lon="4.82316">
        <ele>449</ele>
        <time>2011-12-22T10:46:52Z</time>
      </trkpt>
      <trkpt lat="45.82421" lon="4.82318">
        <ele>447</ele>
        <time>2011-12-22T10:46:57Z</time>
      </trkpt>
      <trkpt lat="45.82415" lon="4.82317">
        <ele>443</ele>
        <time>2011-12-22T10:46:59Z</time>
      </trkpt>
      <trkpt lat="45.82406" lon="4.82315">
        <ele>443</ele>
        <time>2011-12-22T10:47:02Z</time>
      </trkpt>
      <trkpt lat="45.82395" lon="4.82318">
        <ele>443</ele>
        <time>2011-12-22T10:47:06Z</time>
      </trkpt>
      <trkpt lat="45.82393" lon="4.82318">
        <ele>443</ele>
        <time>2011-12-22T10:47:07Z</time>
      </trkpt>
      <trkpt lat="45.82382" lon="4.82319">
        <ele>442</ele>
        <time>2011-12-22T10:47:11Z</time>
      </trkpt>
      <trkpt lat="45.82379" lon="4.8232">
        <ele>442</ele>
        <time>2011-12-22T10:47:12Z</time>
      </trkpt>
      <trkpt lat="45.82377" lon="4.82323">
        <ele>442</ele>
        <time>2011-12-22T10:47:13Z</time>
      </trkpt>
      <trkpt lat="45.82369" lon="4.82326">
        <ele>441</ele>
        <time>2011-12-22T10:47:16Z</time>
      </trkpt>
      <trkpt lat="45.82358" lon="4.82325">
        <ele>439</ele>
        <time>2011-12-22T10:47:20Z</time>
      </trkpt>
      <trkpt lat="45.82355" lon="4.82325">
        <ele>438</ele>
        <time>2011-12-22T10:47:21Z</time>
      </trkpt>
      <trkpt lat="45.82341" lon="4.82326">
        <ele>435</ele>
        <time>2011-12-22T10:47:25Z</time>
      </trkpt>
      <trkpt lat="45.82338" lon="4.82325">
        <ele>435</ele>
        <time>2011-12-22T10:47:26Z</time>
      </trkpt>
      <trkpt lat="45.82325" lon="4.82321">
        <ele>430</ele>
        <time>2011-12-22T10:47:30Z</time>
      </trkpt>
      <trkpt lat="45.82318" lon="4.82318">
        <ele>430</ele>
        <time>2011-12-22T10:47:33Z</time>
      </trkpt>
      <trkpt lat="45.82313" lon="4.82318">
        <ele>430</ele>
        <time>2011-12-22T10:47:35Z</time>
      </trkpt>
      <trkpt lat="45.82303" lon="4.82316">
        <ele>429</ele>
        <time>2011-12-22T10:47:39Z</time>
      </trkpt>
      <trkpt lat="45.82299" lon="4.82314">
        <ele>429</ele>
        <time>2011-12-22T10:47:41Z</time>
      </trkpt>
      <trkpt lat="45.82295" lon="4.82312">
        <ele>429</ele>
        <time>2011-12-22T10:47:44Z</time>
      </trkpt>
      <trkpt lat="45.82284" lon="4.82304">
        <ele>428</ele>
        <time>2011-12-22T10:47:49Z</time>
      </trkpt>
      <trkpt lat="45.82281" lon="4.82303">
        <ele>428</ele>
        <time>2011-12-22T10:47:50Z</time>
      </trkpt>
      <trkpt lat="45.82278" lon="4.82303">
        <ele>428</ele>
        <time>2011-12-22T10:47:51Z</time>
      </trkpt>
      <trkpt lat="45.82275" lon="4.82306">
        <ele>427</ele>
        <time>2011-12-22T10:47:53Z</time>
      </trkpt>
      <trkpt lat="45.82268" lon="4.82319">
        <ele>423</ele>
        <time>2011-12-22T10:47:56Z</time>
      </trkpt>
      <trkpt lat="45.82265" lon="4.82319">
        <ele>422</ele>
        <time>2011-12-22T10:47:57Z</time>
      </trkpt>
      <trkpt lat="45.82252" lon="4.82315">
        <ele>421</ele>
        <time>2011-12-22T10:48:01Z</time>
      </trkpt>
      <trkpt lat="45.82248" lon="4.82313">
        <ele>414</ele>
        <time>2011-12-22T10:48:02Z</time>
      </trkpt>
      <trkpt lat="45.8224" lon="4.82309">
        <ele>414</ele>
        <time>2011-12-22T10:48:05Z</time>
      </trkpt>
      <trkpt lat="45.82229" lon="4.82303">
        <ele>414</ele>
        <time>2011-12-22T10:48:10Z</time>
      </trkpt>
      <trkpt lat="45.82227" lon="4.82303">
        <ele>414</ele>
        <time>2011-12-22T10:48:11Z</time>
      </trkpt>
      <trkpt lat="45.82213" lon="4.82307">
        <ele>412</ele>
        <time>2011-12-22T10:48:16Z</time>
      </trkpt>
      <trkpt lat="45.82209" lon="4.82309">
        <ele>412</ele>
        <time>2011-12-22T10:48:17Z</time>
      </trkpt>
      <trkpt lat="45.82198" lon="4.82314">
        <ele>410</ele>
        <time>2011-12-22T10:48:21Z</time>
      </trkpt>
      <trkpt lat="45.82188" lon="4.82318">
        <ele>408</ele>
        <time>2011-12-22T10:48:24Z</time>
      </trkpt>
      <trkpt lat="45.82183" lon="4.82319">
        <ele>406</ele>
        <time>2011-12-22T10:48:26Z</time>
      </trkpt>
      <trkpt lat="45.82171" lon="4.82325">
        <ele>402</ele>
        <time>2011-12-22T10:48:30Z</time>
      </trkpt>
      <trkpt lat="45.82168" lon="4.82326">
        <ele>401</ele>
        <time>2011-12-22T10:48:31Z</time>
      </trkpt>
      <trkpt lat="45.82151" lon="4.82332">
        <ele>396</ele>
        <time>2011-12-22T10:48:37Z</time>
      </trkpt>
      <trkpt lat="45.82138" lon="4.82335">
        <ele>389</ele>
        <time>2011-12-22T10:48:42Z</time>
      </trkpt>
      <trkpt lat="45.82135" lon="4.82335">
        <ele>389</ele>
        <time>2011-12-22T10:48:43Z</time>
      </trkpt>
      <trkpt lat="45.82132" lon="4.82334">
        <ele>388</ele>
        <time>2011-12-22T10:48:44Z</time>
      </trkpt>
      <trkpt lat="45.82125" lon="4.82332">
        <ele>394</ele>
        <time>2011-12-22T10:48:46Z</time>
      </trkpt>
      <trkpt lat="45.8212" lon="4.82329">
        <ele>394</ele>
        <time>2011-12-22T10:48:48Z</time>
      </trkpt>
      <trkpt lat="45.82114" lon="4.82324">
        <ele>393</ele>
        <time>2011-12-22T10:48:51Z</time>
      </trkpt>
      <trkpt lat="45.82112" lon="4.82321">
        <ele>393</ele>
        <time>2011-12-22T10:48:52Z</time>
      </trkpt>
      <trkpt lat="45.821" lon="4.82308">
        <ele>393</ele>
        <time>2011-12-22T10:48:59Z</time>
      </trkpt>
      <trkpt lat="45.82097" lon="4.82307">
        <ele>393</ele>
        <time>2011-12-22T10:49:00Z</time>
      </trkpt>
      <trkpt lat="45.82095" lon="4.82306">
        <ele>393</ele>
        <time>2011-12-22T10:49:01Z</time>
      </trkpt>
      <trkpt lat="45.82087" lon="4.82306">
        <ele>392</ele>
        <time>2011-12-22T10:49:04Z</time>
      </trkpt>
      <trkpt lat="45.8208" lon="4.82299">
        <ele>383</ele>
        <time>2011-12-22T10:49:08Z</time>
      </trkpt>
      <trkpt lat="45.82079" lon="4.82296">
        <ele>383</ele>
        <time>2011-12-22T10:49:09Z</time>
      </trkpt>
      <trkpt lat="45.8207" lon="4.82283">
        <ele>384</ele>
        <time>2011-12-22T10:49:14Z</time>
      </trkpt>
      <trkpt lat="45.82068" lon="4.82281">
        <ele>384</ele>
        <time>2011-12-22T10:49:15Z</time>
      </trkpt>
      <trkpt lat="45.82055" lon="4.82271">
        <ele>383</ele>
        <time>2011-12-22T10:49:20Z</time>
      </trkpt>
      <trkpt lat="45.82052" lon="4.8227">
        <ele>383</ele>
        <time>2011-12-22T10:49:21Z</time>
      </trkpt>
      <trkpt lat="45.82049" lon="4.82269">
        <ele>383</ele>
        <time>2011-12-22T10:49:22Z</time>
      </trkpt>
      <trkpt lat="45.82044" lon="4.82269">
        <ele>382</ele>
        <time>2011-12-22T10:49:24Z</time>
      </trkpt>
      <trkpt lat="45.82042" lon="4.82272">
        <ele>382</ele>
        <time>2011-12-22T10:49:25Z</time>
      </trkpt>
      <trkpt lat="45.82036" lon="4.82281">
        <ele>381</ele>
        <time>2011-12-22T10:49:28Z</time>
      </trkpt>
      <trkpt lat="45.82029" lon="4.82287">
        <ele>380</ele>
        <time>2011-12-22T10:49:31Z</time>
      </trkpt>
      <trkpt lat="45.8202" lon="4.82294">
        <ele>379</ele>
        <time>2011-12-22T10:49:34Z</time>
      </trkpt>
      <trkpt lat="45.82015" lon="4.82299">
        <ele>378</ele>
        <time>2011-12-22T10:49:36Z</time>
      </trkpt>
      <trkpt lat="45.82004" lon="4.8231">
        <ele>376</ele>
        <time>2011-12-22T10:49:40Z</time>
      </trkpt>
      <trkpt lat="45.81991" lon="4.82319">
        <ele>367</ele>
        <time>2011-12-22T10:49:45Z</time>
      </trkpt>
      <trkpt lat="45.81988" lon="4.82325">
        <ele>367</ele>
        <time>2011-12-22T10:49:47Z</time>
      </trkpt>
      <trkpt lat="45.81984" lon="4.82328">
        <ele>367</ele>
        <time>2011-12-22T10:49:49Z</time>
      </trkpt>
      <trkpt lat="45.81972" lon="4.82337">
        <ele>362</ele>
        <time>2011-12-22T10:49:53Z</time>
      </trkpt>
      <trkpt lat="45.81959" lon="4.82351">
        <ele>359</ele>
        <time>2011-12-22T10:49:58Z</time>
      </trkpt>
      <trkpt lat="45.81956" lon="4.82355">
        <ele>359</ele>
        <time>2011-12-22T10:49:59Z</time>
      </trkpt>
      <trkpt lat="45.81946" lon="4.82366">
        <ele>358</ele>
        <time>2011-12-22T10:50:02Z</time>
      </trkpt>
      <trkpt lat="45.81941" lon="4.82373">
        <ele>357</ele>
        <time>2011-12-22T10:50:05Z</time>
      </trkpt>
      <trkpt lat="45.81941" lon="4.82374">
        <ele>357</ele>
        <time>2011-12-22T10:50:06Z</time>
      </trkpt>
      <trkpt lat="45.81943" lon="4.82383">
        <ele>357</ele>
        <time>2011-12-22T10:50:09Z</time>
      </trkpt>
      <trkpt lat="45.81945" lon="4.82384">
        <ele>357</ele>
        <time>2011-12-22T10:50:10Z</time>
      </trkpt>
      <trkpt lat="45.81949" lon="4.82393">
        <ele>357</ele>
        <time>2011-12-22T10:50:13Z</time>
      </trkpt>
      <trkpt lat="45.81951" lon="4.82402">
        <ele>357</ele>
        <time>2011-12-22T10:50:15Z</time>
      </trkpt>
      <trkpt lat="45.81955" lon="4.82416">
        <ele>357</ele>
        <time>2011-12-22T10:50:18Z</time>
      </trkpt>
      <trkpt lat="45.81957" lon="4.82421">
        <ele>354</ele>
        <time>2011-12-22T10:50:19Z</time>
      </trkpt>
      <trkpt lat="45.81959" lon="4.82424">
        <ele>354</ele>
        <time>2011-12-22T10:50:20Z</time>
      </trkpt>
      <trkpt lat="45.81967" lon="4.82437">
        <ele>354</ele>
        <time>2011-12-22T10:50:24Z</time>
      </trkpt>
      <trkpt lat="45.8197" lon="4.82439">
        <ele>354</ele>
        <time>2011-12-22T10:50:25Z</time>
      </trkpt>
      <trkpt lat="45.81979" lon="4.82449">
        <ele>355</ele>
        <time>2011-12-22T10:50:29Z</time>
      </trkpt>
      <trkpt lat="45.81983" lon="4.82455">
        <ele>355</ele>
        <time>2011-12-22T10:50:31Z</time>
      </trkpt>
      <trkpt lat="45.81988" lon="4.82463">
        <ele>355</ele>
        <time>2011-12-22T10:50:34Z</time>
      </trkpt>
      <trkpt lat="45.81996" lon="4.82475">
        <ele>355</ele>
        <time>2011-12-22T10:50:39Z</time>
      </trkpt>
      <trkpt lat="45.82005" lon="4.82486">
        <ele>360</ele>
        <time>2011-12-22T10:50:44Z</time>
      </trkpt>
      <trkpt lat="45.82004" lon="4.82493">
        <ele>359</ele>
        <time>2011-12-22T10:50:48Z</time>
      </trkpt>
      <trkpt lat="45.82003" lon="4.82494">
        <ele>358</ele>
        <time>2011-12-22T10:50:49Z</time>
      </trkpt>
      <trkpt lat="45.81997" lon="4.82502">
        <ele>355</ele>
        <time>2011-12-22T10:50:53Z</time>
      </trkpt>
      <trkpt lat="45.81991" lon="4.8251">
        <ele>352</ele>
        <time>2011-12-22T10:50:57Z</time>
      </trkpt>
      <trkpt lat="45.81988" lon="4.82515">
        <ele>350</ele>
        <time>2011-12-22T10:50:59Z</time>
      </trkpt>
      <trkpt lat="45.81978" lon="4.82529">
        <ele>348</ele>
        <time>2011-12-22T10:51:05Z</time>
      </trkpt>
      <trkpt lat="45.81976" lon="4.82531">
        <ele>348</ele>
        <time>2011-12-22T10:51:06Z</time>
      </trkpt>
      <trkpt lat="45.81965" lon="4.82548">
        <ele>346</ele>
        <time>2011-12-22T10:51:13Z</time>
      </trkpt>
      <trkpt lat="45.81958" lon="4.82558">
        <ele>344</ele>
        <time>2011-12-22T10:51:17Z</time>
      </trkpt>
      <trkpt lat="45.81956" lon="4.82565">
        <ele>344</ele>
        <time>2011-12-22T10:51:20Z</time>
      </trkpt>
      <trkpt lat="45.81957" lon="4.82566">
        <ele>344</ele>
        <time>2011-12-22T10:51:21Z</time>
      </trkpt>
      <trkpt lat="45.81958" lon="4.82568">
        <ele>344</ele>
        <time>2011-12-22T10:51:22Z</time>
      </trkpt>
      <trkpt lat="45.81961" lon="4.82572">
        <ele>344</ele>
        <time>2011-12-22T10:51:25Z</time>
      </trkpt>
      <trkpt lat="45.81967" lon="4.82588">
        <ele>336</ele>
        <time>2011-12-22T10:51:29Z</time>
      </trkpt>
      <trkpt lat="45.81973" lon="4.82595">
        <ele>336</ele>
        <time>2011-12-22T10:51:33Z</time>
      </trkpt>
      <trkpt lat="45.81969" lon="4.82595">
        <ele>335</ele>
        <time>2011-12-22T10:51:36Z</time>
      </trkpt>
      <trkpt lat="45.81963" lon="4.82592">
        <ele>335</ele>
        <time>2011-12-22T10:51:39Z</time>
      </trkpt>
      <trkpt lat="45.81962" lon="4.82592">
        <ele>335</ele>
        <time>2011-12-22T10:51:41Z</time>
      </trkpt>
      <trkpt lat="45.81961" lon="4.82592">
        <ele>334</ele>
        <time>2011-12-22T10:51:42Z</time>
      </trkpt>
      <trkpt lat="45.81962" lon="4.82595">
        <ele>334</ele>
        <time>2011-12-22T10:51:45Z</time>
      </trkpt>
      <trkpt lat="45.81963" lon="4.82598">
        <ele>334</ele>
        <time>2011-12-22T10:51:47Z</time>
      </trkpt>
      <trkpt lat="45.81965" lon="4.82614">
        <ele>333</ele>
        <time>2011-12-22T10:51:53Z</time>
      </trkpt>
      <trkpt lat="45.81966" lon="4.82617">
        <ele>333</ele>
        <time>2011-12-22T10:51:54Z</time>
      </trkpt>
      <trkpt lat="45.81967" lon="4.82625">
        <ele>332</ele>
        <time>2011-12-22T10:51:57Z</time>
      </trkpt>
      <trkpt lat="45.81968" lon="4.82627">
        <ele>332</ele>
        <time>2011-12-22T10:51:58Z</time>
      </trkpt>
      <trkpt lat="45.81965" lon="4.82638">
        <ele>331</ele>
        <time>2011-12-22T10:52:03Z</time>
      </trkpt>
      <trkpt lat="45.81964" lon="4.82644">
        <ele>330</ele>
        <time>2011-12-22T10:52:04Z</time>
      </trkpt>
      <trkpt lat="45.81962" lon="4.82649">
        <ele>329</ele>
        <time>2011-12-22T10:52:05Z</time>
      </trkpt>
      <trkpt lat="45.81959" lon="4.8266">
        <ele>328</ele>
        <time>2011-12-22T10:52:08Z</time>
      </trkpt>
      <trkpt lat="45.81957" lon="4.8267">
        <ele>318</ele>
        <time>2011-12-22T10:52:11Z</time>
      </trkpt>
      <trkpt lat="45.81952" lon="4.82683">
        <ele>317</ele>
        <time>2011-12-22T10:52:16Z</time>
      </trkpt>
      <trkpt lat="45.81948" lon="4.82694">
        <ele>315</ele>
        <time>2011-12-22T10:52:20Z</time>
      </trkpt>
      <trkpt lat="45.81946" lon="4.82702">
        <ele>315</ele>
        <time>2011-12-22T10:52:22Z</time>
      </trkpt>
      <trkpt lat="45.81939" lon="4.8272">
        <ele>313</ele>
        <time>2011-12-22T10:52:27Z</time>
      </trkpt>
      <trkpt lat="45.81934" lon="4.82736">
        <ele>310</ele>
        <time>2011-12-22T10:52:32Z</time>
      </trkpt>
      <trkpt lat="45.81932" lon="4.82742">
        <ele>309</ele>
        <time>2011-12-22T10:52:34Z</time>
      </trkpt>
      <trkpt lat="45.8193" lon="4.82745">
        <ele>308</ele>
        <time>2011-12-22T10:52:35Z</time>
      </trkpt>
      <trkpt lat="45.81928" lon="4.82749">
        <ele>307</ele>
        <time>2011-12-22T10:52:36Z</time>
      </trkpt>
      <trkpt lat="45.8192" lon="4.82769">
        <ele>302</ele>
        <time>2011-12-22T10:52:41Z</time>
      </trkpt>
      <trkpt lat="45.81911" lon="4.82793">
        <ele>296</ele>
        <time>2011-12-22T10:52:47Z</time>
      </trkpt>
      <trkpt lat="45.81899" lon="4.82817">
        <ele>293</ele>
        <time>2011-12-22T10:52:53Z</time>
      </trkpt>
      <trkpt lat="45.81893" lon="4.82835">
        <ele>288</ele>
        <time>2011-12-22T10:52:57Z</time>
      </trkpt>
      <trkpt lat="45.81889" lon="4.82843">
        <ele>288</ele>
        <time>2011-12-22T10:52:59Z</time>
      </trkpt>
      <trkpt lat="45.81882" lon="4.82859">
        <ele>288</ele>
        <time>2011-12-22T10:53:03Z</time>
      </trkpt>
      <trkpt lat="45.81877" lon="4.82866">
        <ele>287</ele>
        <time>2011-12-22T10:53:05Z</time>
      </trkpt>
      <trkpt lat="45.8187" lon="4.82882">
        <ele>287</ele>
        <time>2011-12-22T10:53:08Z</time>
      </trkpt>
      <trkpt lat="45.81867" lon="4.8289">
        <ele>286</ele>
        <time>2011-12-22T10:53:10Z</time>
      </trkpt>
      <trkpt lat="45.81864" lon="4.82896">
        <ele>286</ele>
        <time>2011-12-22T10:53:12Z</time>
      </trkpt>
      <trkpt lat="45.81856" lon="4.82912">
        <ele>285</ele>
        <time>2011-12-22T10:53:17Z</time>
      </trkpt>
      <trkpt lat="45.81846" lon="4.82935">
        <ele>281</ele>
        <time>2011-12-22T10:53:23Z</time>
      </trkpt>
      <trkpt lat="45.81839" lon="4.8295">
        <ele>280</ele>
        <time>2011-12-22T10:53:28Z</time>
      </trkpt>
      <trkpt lat="45.81834" lon="4.82957">
        <ele>280</ele>
        <time>2011-12-22T10:53:31Z</time>
      </trkpt>
      <trkpt lat="45.81829" lon="4.82968">
        <ele>277</ele>
        <time>2011-12-22T10:53:34Z</time>
      </trkpt>
      <trkpt lat="45.8182" lon="4.82971">
        <ele>277</ele>
        <time>2011-12-22T10:53:37Z</time>
      </trkpt>
      <trkpt lat="45.81816" lon="4.8297">
        <ele>277</ele>
        <time>2011-12-22T10:53:38Z</time>
      </trkpt>
      <trkpt lat="45.81801" lon="4.82964">
        <ele>277</ele>
        <time>2011-12-22T10:53:43Z</time>
      </trkpt>
      <trkpt lat="45.81798" lon="4.82963">
        <ele>277</ele>
        <time>2011-12-22T10:53:44Z</time>
      </trkpt>
      <trkpt lat="45.81783" lon="4.82964">
        <ele>276</ele>
        <time>2011-12-22T10:53:49Z</time>
      </trkpt>
      <trkpt lat="45.8177" lon="4.82964">
        <ele>276</ele>
        <time>2011-12-22T10:53:53Z</time>
      </trkpt>
      <trkpt lat="45.81764" lon="4.82964">
        <ele>276</ele>
        <time>2011-12-22T10:53:55Z</time>
      </trkpt>
      <trkpt lat="45.81751" lon="4.82964">
        <ele>276</ele>
        <time>2011-12-22T10:53:59Z</time>
      </trkpt>
      <trkpt lat="45.81745" lon="4.82965">
        <ele>274</ele>
        <time>2011-12-22T10:54:01Z</time>
      </trkpt>
      <trkpt lat="45.81734" lon="4.82968">
        <ele>274</ele>
        <time>2011-12-22T10:54:05Z</time>
      </trkpt>
      <trkpt lat="45.81726" lon="4.82968">
        <ele>274</ele>
        <time>2011-12-22T10:54:08Z</time>
      </trkpt>
      <trkpt lat="45.81718" lon="4.82967">
        <ele>274</ele>
        <time>2011-12-22T10:54:11Z</time>
      </trkpt>
      <trkpt lat="45.81707" lon="4.82965">
        <ele>274</ele>
        <time>2011-12-22T10:54:15Z</time>
      </trkpt>
      <trkpt lat="45.81701" lon="4.82964">
        <ele>274</ele>
        <time>2011-12-22T10:54:17Z</time>
      </trkpt>
      <trkpt lat="45.81687" lon="4.82961">
        <ele>274</ele>
        <time>2011-12-22T10:54:22Z</time>
      </trkpt>
      <trkpt lat="45.81674" lon="4.82959">
        <ele>274</ele>
        <time>2011-12-22T10:54:27Z</time>
      </trkpt>
      <trkpt lat="45.81672" lon="4.82958">
        <ele>274</ele>
        <time>2011-12-22T10:54:28Z</time>
      </trkpt>
      <trkpt lat="45.81669" lon="4.82956">
        <ele>274</ele>
        <time>2011-12-22T10:54:29Z</time>
      </trkpt>
      <trkpt lat="45.81658" lon="4.82946">
        <ele>273</ele>
        <time>2011-12-22T10:54:33Z</time>
      </trkpt>
      <trkpt lat="45.81654" lon="4.82941">
        <ele>273</ele>
        <time>2011-12-22T10:54:35Z</time>
      </trkpt>
      <trkpt lat="45.8165" lon="4.82934">
        <ele>273</ele>
        <time>2011-12-22T10:54:38Z</time>
      </trkpt>
      <trkpt lat="45.8164" lon="4.8292">
        <ele>273</ele>
        <time>2011-12-22T10:54:44Z</time>
      </trkpt>
      <trkpt lat="45.81639" lon="4.82918">
        <ele>273</ele>
        <time>2011-12-22T10:54:45Z</time>
      </trkpt>
      <trkpt lat="45.81635" lon="4.82914">
        <ele>274</ele>
        <time>2011-12-22T10:54:48Z</time>
      </trkpt>
      <trkpt lat="45.81632" lon="4.82915">
        <ele>274</ele>
        <time>2011-12-22T10:54:49Z</time>
      </trkpt>
      <trkpt lat="45.81621" lon="4.82919">
        <ele>272</ele>
        <time>2011-12-22T10:54:53Z</time>
      </trkpt>
      <trkpt lat="45.81615" lon="4.82922">
        <ele>272</ele>
        <time>2011-12-22T10:54:55Z</time>
      </trkpt>
      <trkpt lat="45.81601" lon="4.82928">
        <ele>272</ele>
        <time>2011-12-22T10:55:00Z</time>
      </trkpt>
      <trkpt lat="45.81599" lon="4.82929">
        <ele>272</ele>
        <time>2011-12-22T10:55:01Z</time>
      </trkpt>
      <trkpt lat="45.81582" lon="4.82934">
        <ele>270</ele>
        <time>2011-12-22T10:55:07Z</time>
      </trkpt>
      <trkpt lat="45.81577" lon="4.82935">
        <ele>269</ele>
        <time>2011-12-22T10:55:09Z</time>
      </trkpt>
      <trkpt lat="45.81564" lon="4.82942">
        <ele>269</ele>
        <time>2011-12-22T10:55:14Z</time>
      </trkpt>
      <trkpt lat="45.81549" lon="4.82951">
        <ele>268</ele>
        <time>2011-12-22T10:55:20Z</time>
      </trkpt>
      <trkpt lat="45.81545" lon="4.82953">
        <ele>268</ele>
        <time>2011-12-22T10:55:22Z</time>
      </trkpt>
      <trkpt lat="45.81534" lon="4.82959">
        <ele>267</ele>
        <time>2011-12-22T10:55:26Z</time>
      </trkpt>
      <trkpt lat="45.81527" lon="4.82961">
        <ele>267</ele>
        <time>2011-12-22T10:55:28Z</time>
      </trkpt>
      <trkpt lat="45.81518" lon="4.82964">
        <ele>267</ele>
        <time>2011-12-22T10:55:31Z</time>
      </trkpt>
      <trkpt lat="45.81509" lon="4.82965">
        <ele>267</ele>
        <time>2011-12-22T10:55:34Z</time>
      </trkpt>
      <trkpt lat="45.815" lon="4.82966">
        <ele>267</ele>
        <time>2011-12-22T10:55:37Z</time>
      </trkpt>
      <trkpt lat="45.81491" lon="4.82966">
        <ele>265</ele>
        <time>2011-12-22T10:55:40Z</time>
      </trkpt>
      <trkpt lat="45.81484" lon="4.82968">
        <ele>265</ele>
        <time>2011-12-22T10:55:42Z</time>
      </trkpt>
      <trkpt lat="45.81472" lon="4.82968">
        <ele>264</ele>
        <time>2011-12-22T10:55:46Z</time>
      </trkpt>
      <trkpt lat="45.81469" lon="4.82968">
        <ele>264</ele>
        <time>2011-12-22T10:55:47Z</time>
      </trkpt>
      <trkpt lat="45.81456" lon="4.82971">
        <ele>264</ele>
        <time>2011-12-22T10:55:52Z</time>
      </trkpt>
      <trkpt lat="45.81454" lon="4.82972">
        <ele>264</ele>
        <time>2011-12-22T10:55:53Z</time>
      </trkpt>
      <trkpt lat="45.81435" lon="4.82978">
        <ele>264</ele>
        <time>2011-12-22T10:55:59Z</time>
      </trkpt>
      <trkpt lat="45.81423" lon="4.82979">
        <ele>264</ele>
        <time>2011-12-22T10:56:03Z</time>
      </trkpt>
      <trkpt lat="45.81414" lon="4.82979">
        <ele>263</ele>
        <time>2011-12-22T10:56:06Z</time>
      </trkpt>
      <trkpt lat="45.81407" lon="4.8298">
        <ele>263</ele>
        <time>2011-12-22T10:56:09Z</time>
      </trkpt>
      <trkpt lat="45.81396" lon="4.82983">
        <ele>263</ele>
        <time>2011-12-22T10:56:13Z</time>
      </trkpt>
      <trkpt lat="45.81393" lon="4.82985">
        <ele>263</ele>
        <time>2011-12-22T10:56:14Z</time>
      </trkpt>
      <trkpt lat="45.81391" lon="4.82986">
        <ele>263</ele>
        <time>2011-12-22T10:56:15Z</time>
      </trkpt>
      <trkpt lat="45.81383" lon="4.82989">
        <ele>263</ele>
        <time>2011-12-22T10:56:18Z</time>
      </trkpt>
      <trkpt lat="45.81376" lon="4.82991">
        <ele>263</ele>
        <time>2011-12-22T10:56:21Z</time>
      </trkpt>
      <trkpt lat="45.81373" lon="4.82992">
        <ele>263</ele>
        <time>2011-12-22T10:56:22Z</time>
      </trkpt>
      <trkpt lat="45.81359" lon="4.82993">
        <ele>263</ele>
        <time>2011-12-22T10:56:27Z</time>
      </trkpt>
      <trkpt lat="45.81355" lon="4.82992">
        <ele>263</ele>
        <time>2011-12-22T10:56:28Z</time>
      </trkpt>
      <trkpt lat="45.8134" lon="4.82997">
        <ele>263</ele>
        <time>2011-12-22T10:56:33Z</time>
      </trkpt>
      <trkpt lat="45.81337" lon="4.82998">
        <ele>263</ele>
        <time>2011-12-22T10:56:34Z</time>
      </trkpt>
      <trkpt lat="45.81326" lon="4.83003">
        <ele>263</ele>
        <time>2011-12-22T10:56:39Z</time>
      </trkpt>
      <trkpt lat="45.8132" lon="4.83007">
        <ele>263</ele>
        <time>2011-12-22T10:56:42Z</time>
      </trkpt>
      <trkpt lat="45.8131" lon="4.83013">
        <ele>262</ele>
        <time>2011-12-22T10:56:46Z</time>
      </trkpt>
      <trkpt lat="45.81301" lon="4.83017">
        <ele>262</ele>
        <time>2011-12-22T10:56:49Z</time>
      </trkpt>
      <trkpt lat="45.81296" lon="4.8302">
        <ele>262</ele>
        <time>2011-12-22T10:56:51Z</time>
      </trkpt>
      <trkpt lat="45.81282" lon="4.83024">
        <ele>262</ele>
        <time>2011-12-22T10:56:56Z</time>
      </trkpt>
      <trkpt lat="45.81268" lon="4.83028">
        <ele>261</ele>
        <time>2011-12-22T10:57:01Z</time>
      </trkpt>
      <trkpt lat="45.81263" lon="4.83029">
        <ele>261</ele>
        <time>2011-12-22T10:57:03Z</time>
      </trkpt>
      <trkpt lat="45.81253" lon="4.83029">
        <ele>261</ele>
        <time>2011-12-22T10:57:06Z</time>
      </trkpt>
      <trkpt lat="45.81242" lon="4.83029">
        <ele>258</ele>
        <time>2011-12-22T10:57:09Z</time>
      </trkpt>
      <trkpt lat="45.81235" lon="4.83032">
        <ele>258</ele>
        <time>2011-12-22T10:57:12Z</time>
      </trkpt>
      <trkpt lat="45.81223" lon="4.83039">
        <ele>258</ele>
        <time>2011-12-22T10:57:17Z</time>
      </trkpt>
      <trkpt lat="45.8122" lon="4.8304">
        <ele>258</ele>
        <time>2011-12-22T10:57:18Z</time>
      </trkpt>
      <trkpt lat="45.8121" lon="4.83046">
        <ele>257</ele>
        <time>2011-12-22T10:57:23Z</time>
      </trkpt>
      <trkpt lat="45.81205" lon="4.83049">
        <ele>257</ele>
        <time>2011-12-22T10:57:25Z</time>
      </trkpt>
      <trkpt lat="45.81203" lon="4.8305">
        <ele>257</ele>
        <time>2011-12-22T10:57:26Z</time>
      </trkpt>
      <trkpt lat="45.81198" lon="4.8305">
        <ele>257</ele>
        <time>2011-12-22T10:57:28Z</time>
      </trkpt>
      <trkpt lat="45.81188" lon="4.83057">
        <ele>257</ele>
        <time>2011-12-22T10:57:33Z</time>
      </trkpt>
      <trkpt lat="45.81183" lon="4.83058">
        <ele>256</ele>
        <time>2011-12-22T10:57:35Z</time>
      </trkpt>
      <trkpt lat="45.81176" lon="4.8306">
        <ele>256</ele>
        <time>2011-12-22T10:57:38Z</time>
      </trkpt>
      <trkpt lat="45.81166" lon="4.83056">
        <ele>254</ele>
        <time>2011-12-22T10:57:40Z</time>
      </trkpt>
      <trkpt lat="45.81151" lon="4.83053">
        <ele>253</ele>
        <time>2011-12-22T10:57:44Z</time>
      </trkpt>
      <trkpt lat="45.81144" lon="4.83052">
        <ele>253</ele>
        <time>2011-12-22T10:57:46Z</time>
      </trkpt>
      <trkpt lat="45.81136" lon="4.83053">
        <ele>253</ele>
        <time>2011-12-22T10:57:49Z</time>
      </trkpt>
      <trkpt lat="45.81124" lon="4.83055">
        <ele>253</ele>
        <time>2011-12-22T10:57:53Z</time>
      </trkpt>
      <trkpt lat="45.81121" lon="4.83056">
        <ele>253</ele>
        <time>2011-12-22T10:57:54Z</time>
      </trkpt>
      <trkpt lat="45.81105" lon="4.83059">
        <ele>252</ele>
        <time>2011-12-22T10:58:00Z</time>
      </trkpt>
      <trkpt lat="45.81088" lon="4.83064">
        <ele>252</ele>
        <time>2011-12-22T10:58:06Z</time>
      </trkpt>
      <trkpt lat="45.81069" lon="4.83065">
        <ele>251</ele>
        <time>2011-12-22T10:58:12Z</time>
      </trkpt>
      <trkpt lat="45.81055" lon="4.83063">
        <ele>251</ele>
        <time>2011-12-22T10:58:17Z</time>
      </trkpt>
      <trkpt lat="45.81051" lon="4.83063">
        <ele>251</ele>
        <time>2011-12-22T10:58:18Z</time>
      </trkpt>
      <trkpt lat="45.81037" lon="4.83063">
        <ele>251</ele>
        <time>2011-12-22T10:58:23Z</time>
      </trkpt>
      <trkpt lat="45.81033" lon="4.83057">
        <ele>251</ele>
        <time>2011-12-22T10:58:25Z</time>
      </trkpt>
      <trkpt lat="45.81029" lon="4.83051">
        <ele>250</ele>
        <time>2011-12-22T10:58:27Z</time>
      </trkpt>
      <trkpt lat="45.81027" lon="4.83044">
        <ele>250</ele>
        <time>2011-12-22T10:58:29Z</time>
      </trkpt>
      <trkpt lat="45.81027" lon="4.83034">
        <ele>250</ele>
        <time>2011-12-22T10:58:31Z</time>
      </trkpt>
      <trkpt lat="45.81027" lon="4.83013">
        <ele>250</ele>
        <time>2011-12-22T10:58:36Z</time>
      </trkpt>
      <trkpt lat="45.81027" lon="4.83009">
        <ele>250</ele>
        <time>2011-12-22T10:58:37Z</time>
      </trkpt>
      <trkpt lat="45.81027" lon="4.83005">
        <ele>250</ele>
        <time>2011-12-22T10:58:38Z</time>
      </trkpt>
      <trkpt lat="45.81026" lon="4.82991">
        <ele>250</ele>
        <time>2011-12-22T10:58:42Z</time>
      </trkpt>
      <trkpt lat="45.81022" lon="4.82982">
        <ele>249</ele>
        <time>2011-12-22T10:58:45Z</time>
      </trkpt>
      <trkpt lat="45.81016" lon="4.82981">
        <ele>249</ele>
        <time>2011-12-22T10:58:47Z</time>
      </trkpt>
      <trkpt lat="45.81004" lon="4.82982">
        <ele>250</ele>
        <time>2011-12-22T10:58:52Z</time>
      </trkpt>
      <trkpt lat="45.80987" lon="4.82984">
        <ele>249</ele>
        <time>2011-12-22T10:58:58Z</time>
      </trkpt>
      <trkpt lat="45.80984" lon="4.82985">
        <ele>249</ele>
        <time>2011-12-22T10:58:59Z</time>
      </trkpt>
      <trkpt lat="45.80975" lon="4.82985">
        <ele>249</ele>
        <time>2011-12-22T10:59:03Z</time>
      </trkpt>
      <trkpt lat="45.80965" lon="4.82985">
        <ele>249</ele>
        <time>2011-12-22T10:59:07Z</time>
      </trkpt>
      <trkpt lat="45.80963" lon="4.82986">
        <ele>249</ele>
        <time>2011-12-22T10:59:08Z</time>
      </trkpt>
      <trkpt lat="45.8095" lon="4.82984">
        <ele>249</ele>
        <time>2011-12-22T10:59:13Z</time>
      </trkpt>
      <trkpt lat="45.80947" lon="4.82982">
        <ele>249</ele>
        <time>2011-12-22T10:59:15Z</time>
      </trkpt>
      <trkpt lat="45.80942" lon="4.82981">
        <ele>248</ele>
        <time>2011-12-22T10:59:17Z</time>
      </trkpt>
      <trkpt lat="45.8093" lon="4.82981">
        <ele>248</ele>
        <time>2011-12-22T10:59:22Z</time>
      </trkpt>
      <trkpt lat="45.80927" lon="4.8298">
        <ele>248</ele>
        <time>2011-12-22T10:59:23Z</time>
      </trkpt>
      <trkpt lat="45.80915" lon="4.82978">
        <ele>247</ele>
        <time>2011-12-22T10:59:28Z</time>
      </trkpt>
      <trkpt lat="45.80909" lon="4.82977">
        <ele>247</ele>
        <time>2011-12-22T10:59:30Z</time>
      </trkpt>
      <trkpt lat="45.80896" lon="4.82974">
        <ele>247</ele>
        <time>2011-12-22T10:59:35Z</time>
      </trkpt>
      <trkpt lat="45.80889" lon="4.82972">
        <ele>247</ele>
        <time>2011-12-22T10:59:38Z</time>
      </trkpt>
      <trkpt lat="45.80881" lon="4.82969">
        <ele>246</ele>
        <time>2011-12-22T10:59:41Z</time>
      </trkpt>
      <trkpt lat="45.80871" lon="4.82966">
        <ele>246</ele>
        <time>2011-12-22T10:59:45Z</time>
      </trkpt>
      <trkpt lat="45.80863" lon="4.82964">
        <ele>246</ele>
        <time>2011-12-22T10:59:48Z</time>
      </trkpt>
      <trkpt lat="45.80852" lon="4.82961">
        <ele>246</ele>
        <time>2011-12-22T10:59:52Z</time>
      </trkpt>
      <trkpt lat="45.80844" lon="4.82959">
        <ele>246</ele>
        <time>2011-12-22T10:59:55Z</time>
      </trkpt>
      <trkpt lat="45.80832" lon="4.82957">
        <ele>244</ele>
        <time>2011-12-22T10:59:59Z</time>
      </trkpt>
      <trkpt lat="45.80824" lon="4.82955">
        <ele>244</ele>
        <time>2011-12-22T11:00:02Z</time>
      </trkpt>
      <trkpt lat="45.80813" lon="4.82952">
        <ele>244</ele>
        <time>2011-12-22T11:00:06Z</time>
      </trkpt>
      <trkpt lat="45.80805" lon="4.8295">
        <ele>244</ele>
        <time>2011-12-22T11:00:09Z</time>
      </trkpt>
      <trkpt lat="45.80794" lon="4.82949">
        <ele>244</ele>
        <time>2011-12-22T11:00:13Z</time>
      </trkpt>
      <trkpt lat="45.80789" lon="4.82947">
        <ele>244</ele>
        <time>2011-12-22T11:00:15Z</time>
      </trkpt>
      <trkpt lat="45.80776" lon="4.82941">
        <ele>244</ele>
        <time>2011-12-22T11:00:20Z</time>
      </trkpt>
      <trkpt lat="45.8076" lon="4.8293">
        <ele>243</ele>
        <time>2011-12-22T11:00:27Z</time>
      </trkpt>
      <trkpt lat="45.80758" lon="4.82928">
        <ele>243</ele>
        <time>2011-12-22T11:00:28Z</time>
      </trkpt>
      <trkpt lat="45.80751" lon="4.82925">
        <ele>243</ele>
        <time>2011-12-22T11:00:32Z</time>
      </trkpt>
      <trkpt lat="45.8074" lon="4.82922">
        <ele>243</ele>
        <time>2011-12-22T11:00:38Z</time>
      </trkpt>
      <trkpt lat="45.80729" lon="4.82915">
        <ele>241</ele>
        <time>2011-12-22T11:00:42Z</time>
      </trkpt>
      <trkpt lat="45.80722" lon="4.82911">
        <ele>241</ele>
        <time>2011-12-22T11:00:44Z</time>
      </trkpt>
      <trkpt lat="45.80712" lon="4.82907">
        <ele>241</ele>
        <time>2011-12-22T11:00:47Z</time>
      </trkpt>
      <trkpt lat="45.80703" lon="4.82905">
        <ele>241</ele>
        <time>2011-12-22T11:00:50Z</time>
      </trkpt>
      <trkpt lat="45.80694" lon="4.82902">
        <ele>241</ele>
        <time>2011-12-22T11:00:53Z</time>
      </trkpt>
      <trkpt lat="45.80683" lon="4.82898">
        <ele>241</ele>
        <time>2011-12-22T11:00:57Z</time>
      </trkpt>
      <trkpt lat="45.8068" lon="4.82898">
        <ele>241</ele>
        <time>2011-12-22T11:00:58Z</time>
      </trkpt>
      <trkpt lat="45.80664" lon="4.82902">
        <ele>240</ele>
        <time>2011-12-22T11:01:04Z</time>
      </trkpt>
      <trkpt lat="45.80649" lon="4.82909">
        <ele>239</ele>
        <time>2011-12-22T11:01:10Z</time>
      </trkpt>
      <trkpt lat="45.80646" lon="4.8291">
        <ele>239</ele>
        <time>2011-12-22T11:01:11Z</time>
      </trkpt>
      <trkpt lat="45.80635" lon="4.82915">
        <ele>238</ele>
        <time>2011-12-22T11:01:16Z</time>
      </trkpt>
      <trkpt lat="45.80627" lon="4.8292">
        <ele>242</ele>
        <time>2011-12-22T11:01:19Z</time>
      </trkpt>
      <trkpt lat="45.8062" lon="4.82924">
        <ele>241</ele>
        <time>2011-12-22T11:01:22Z</time>
      </trkpt>
      <trkpt lat="45.80609" lon="4.8293">
        <ele>241</ele>
        <time>2011-12-22T11:01:27Z</time>
      </trkpt>
      <trkpt lat="45.80604" lon="4.82932">
        <ele>241</ele>
        <time>2011-12-22T11:01:29Z</time>
      </trkpt>
      <trkpt lat="45.80592" lon="4.82936">
        <ele>241</ele>
        <time>2011-12-22T11:01:34Z</time>
      </trkpt>
      <trkpt lat="45.8059" lon="4.82936">
        <ele>241</ele>
        <time>2011-12-22T11:01:35Z</time>
      </trkpt>
      <trkpt lat="45.80577" lon="4.82942">
        <ele>240</ele>
        <time>2011-12-22T11:01:40Z</time>
      </trkpt>
      <trkpt lat="45.80572" lon="4.82945">
        <ele>240</ele>
        <time>2011-12-22T11:01:42Z</time>
      </trkpt>
      <trkpt lat="45.8056" lon="4.82947">
        <ele>240</ele>
        <time>2011-12-22T11:01:46Z</time>
      </trkpt>
      <trkpt lat="45.80554" lon="4.82949">
        <ele>240</ele>
        <time>2011-12-22T11:01:48Z</time>
      </trkpt>
      <trkpt lat="45.80545" lon="4.8295">
        <ele>240</ele>
        <time>2011-12-22T11:01:51Z</time>
      </trkpt>
      <trkpt lat="45.80535" lon="4.8295">
        <ele>240</ele>
        <time>2011-12-22T11:01:54Z</time>
      </trkpt>
      <trkpt lat="45.80526" lon="4.8295">
        <ele>240</ele>
        <time>2011-12-22T11:01:57Z</time>
      </trkpt>
      <trkpt lat="45.80517" lon="4.8295">
        <ele>240</ele>
        <time>2011-12-22T11:02:00Z</time>
      </trkpt>
      <trkpt lat="45.80511" lon="4.8295">
        <ele>240</ele>
        <time>2011-12-22T11:02:02Z</time>
      </trkpt>
      <trkpt lat="45.80497" lon="4.82951">
        <ele>240</ele>
        <time>2011-12-22T11:02:07Z</time>
      </trkpt>
      <trkpt lat="45.80492" lon="4.82952">
        <ele>240</ele>
        <time>2011-12-22T11:02:09Z</time>
      </trkpt>
      <trkpt lat="45.80478" lon="4.82955">
        <ele>240</ele>
        <time>2011-12-22T11:02:14Z</time>
      </trkpt>
      <trkpt lat="45.80472" lon="4.82955">
        <ele>240</ele>
        <time>2011-12-22T11:02:16Z</time>
      </trkpt>
      <trkpt lat="45.80459" lon="4.82955">
        <ele>240</ele>
        <time>2011-12-22T11:02:21Z</time>
      </trkpt>
      <trkpt lat="45.80451" lon="4.82957">
        <ele>240</ele>
        <time>2011-12-22T11:02:24Z</time>
      </trkpt>
      <trkpt lat="45.80443" lon="4.82966">
        <ele>241</ele>
        <time>2011-12-22T11:02:28Z</time>
      </trkpt>
      <trkpt lat="45.80442" lon="4.82968">
        <ele>241</ele>
        <time>2011-12-22T11:02:29Z</time>
      </trkpt>
      <trkpt lat="45.80438" lon="4.82985">
        <ele>241</ele>
        <time>2011-12-22T11:02:34Z</time>
      </trkpt>
      <trkpt lat="45.80436" lon="4.82993">
        <ele>241</ele>
        <time>2011-12-22T11:02:36Z</time>
      </trkpt>
      <trkpt lat="45.80432" lon="4.83012">
        <ele>242</ele>
        <time>2011-12-22T11:02:41Z</time>
      </trkpt>
      <trkpt lat="45.8043" lon="4.83019">
        <ele>242</ele>
        <time>2011-12-22T11:02:43Z</time>
      </trkpt>
      <trkpt lat="45.80427" lon="4.83029">
        <ele>242</ele>
        <time>2011-12-22T11:02:46Z</time>
      </trkpt>
      <trkpt lat="45.80422" lon="4.83043">
        <ele>242</ele>
        <time>2011-12-22T11:02:50Z</time>
      </trkpt>
      <trkpt lat="45.8042" lon="4.8305">
        <ele>242</ele>
        <time>2011-12-22T11:02:52Z</time>
      </trkpt>
      <trkpt lat="45.80415" lon="4.83068">
        <ele>240</ele>
        <time>2011-12-22T11:02:57Z</time>
      </trkpt>
      <trkpt lat="45.80414" lon="4.83071">
        <ele>240</ele>
        <time>2011-12-22T11:02:58Z</time>
      </trkpt>
      <trkpt lat="45.80407" lon="4.83094">
        <ele>239</ele>
        <time>2011-12-22T11:03:04Z</time>
      </trkpt>
      <trkpt lat="45.80405" lon="4.83097">
        <ele>239</ele>
        <time>2011-12-22T11:03:05Z</time>
      </trkpt>
    </trkseg>
  </trk>
</gpx>